Date StartTime U_cm/s V_cm/s W_cm/s Ustd_cm/s Vstd_cm/s Wstd_cm/s Uvar_(cm/s)^2 Vvar_(cm/s)^2 Wvar_(cm/s)^2 KE_(m/s)^2 TurbulentKE_(m/s)^2 HorizWindSpeed_cm/s FrictionSpeec_cm/s DragCoef SpeedOfSound_m/s SonicTemperature_C Pressure_mb 
06/30/2013  00:00:00      -87.574       32.068      -15.997       32.624       38.532       12.837     1064.358     1484.742      164.777        0.583        0.136       93.261       10.607        0.013      348.236       27.786      862.302
06/30/2013  00:01:00      -66.627       44.653       -7.775       39.438       51.172       24.559     1555.345     2618.622      603.162        0.563        0.239       80.207       23.202        0.084      348.205       27.732      862.302
06/30/2013  00:02:00     -162.650      193.413      -35.406       80.826       87.550       41.983     6532.829     7665.039     1762.597        4.054        0.798      252.713       39.780        0.025      348.931       28.983      862.293
06/30/2013  00:03:00     -151.976       63.110      -16.819       61.122       41.828       22.430     3735.933     1749.541      503.088        1.667        0.299      164.559       19.076        0.013      349.177       29.414      862.281
06/30/2013  00:04:00      -97.854       60.263      -11.714       35.876       38.514       21.792     1287.081     1483.331      474.876        0.829        0.162      114.922       15.789        0.019      348.896       28.927      862.289
06/30/2013  00:05:00     -133.738      114.458      -29.530       55.444       53.071       26.514     3073.994     2816.575      703.017        1.922        0.330      176.030       35.215        0.040      348.765       28.698      862.324
06/30/2013  00:06:00     -159.782      138.847      -34.106       49.905       42.956       35.873     2490.526     1845.185     1286.862        2.580        0.281      211.681       32.858        0.024      348.727       28.630      862.361
06/30/2013  00:07:00      -95.531       78.563      -23.365       35.368       49.520       19.635     1250.878     2452.251      385.517        0.997        0.204      123.687       19.216        0.024      348.547       28.322      862.371
06/30/2013  00:08:00      -89.866      -31.826        1.023       31.311       31.965       23.234      980.377     1021.776      539.802        0.582        0.127       95.335       20.695        0.047      348.456       28.165      862.377
06/30/2013  00:09:00      -48.305       -1.981       -3.321       72.019       28.975       22.680     5186.767      839.531      514.403        0.444        0.327       48.346       31.392        0.422      348.799       28.759      862.385
06/30/2013  00:10:00        4.377       89.010      -25.360       30.893       39.629       21.460      954.402     1570.473      460.511        0.578        0.149       89.118       20.040        0.051      348.420       28.104      862.395
06/30/2013  00:11:00        1.952      138.132      -16.019       33.845       61.502       28.463     1145.506     3782.500      810.162        1.254        0.287      138.146       34.036        0.061      348.001       27.378      862.421
06/30/2013  00:12:00      -41.991      154.642      -12.336       26.770       36.732       22.287      716.617     1349.218      496.725        1.420        0.128      160.242       21.252        0.018      347.951       27.293      862.441
06/30/2013  00:13:00      -33.183       51.339      -11.131       25.901       55.677       15.854      670.859     3099.962      251.339        0.394        0.201       61.129       15.208        0.062      347.967       27.319      862.453
06/30/2013  00:14:00      -51.389      -24.911       -2.527       16.292       26.719       14.788      265.438      713.882      218.678        0.223        0.060       57.108        9.857        0.030      347.945       27.281      862.476
06/30/2013  00:15:00     -100.311      -15.485       -3.975       29.609       28.271       17.206      876.702      799.226      296.045        0.614        0.099      101.499       14.333        0.020      347.937       27.269      862.501
06/30/2013  00:16:00      -96.079       -9.890      -13.310       24.179       29.071       18.222      584.625      845.117      332.030        0.563        0.088       96.587       16.667        0.030      347.878       27.166      862.521
06/30/2013  00:17:00      -50.897      -16.521       -3.302       30.679       37.186       22.110      941.173     1382.797      488.851        0.284        0.141       53.512       19.265        0.130      347.950       27.290      862.529
06/30/2013  00:18:00       -8.180      -72.849      -10.806       17.845       24.587       10.878      318.457      604.526      118.336        0.327        0.052       73.307        7.047        0.009      348.171       27.673      862.497
06/30/2013  00:19:00      -24.419      -77.301       -4.882       26.876       45.467       20.330      722.311     2067.265      413.325        0.490        0.160       81.066       16.861        0.043      347.976       27.336      862.491
06/30/2013  00:20:00       -6.112      -49.887        5.374       15.822       14.254       11.053      250.347      203.186      122.159        0.157        0.029       50.260       10.314        0.042      348.069       27.497      862.504
06/30/2013  00:21:00       11.888      -68.663        6.634       18.027       33.269       24.587      324.973     1106.813      604.524        0.347        0.102       69.685       20.933        0.090      347.943       27.279      862.487
06/30/2013  00:22:00      -36.361       45.312       23.592       57.541       24.694       31.944     3310.931      609.806     1020.434        0.444        0.247       58.098       38.781        0.446      347.727       26.907      862.480
06/30/2013  00:23:00     -158.014       64.476      -17.768       62.798       39.473       34.390     3943.541     1558.144     1182.665        1.806        0.334      170.662       23.778        0.019      347.516       26.540      862.516
06/30/2013  00:24:00     -110.315       -1.730       -5.606       73.995       46.500       17.491     5475.327     2162.205      305.926        1.007        0.397      110.329       24.607        0.050      347.722       26.897      862.512
06/30/2013  00:25:00      -12.087      -21.166        4.437       47.830       74.023       28.499     2287.693     5479.471      812.188        0.459        0.429       24.375       22.370        0.842      347.548       26.596      862.454
06/30/2013  00:26:00     -105.582       78.846      -16.130       30.279       36.809       25.132      916.815     1354.911      631.623        1.026        0.145      131.773       22.466        0.029      347.686       26.836      862.483
06/30/2013  00:27:00      -53.752       75.011       -8.326       28.695       36.650       20.144      823.381     1343.209      405.769        0.558        0.129       92.282       12.243        0.018      348.050       27.464      862.506
06/30/2013  00:28:00       -6.870       25.447        5.924       17.560       11.694       12.140      308.371      136.742      147.389        0.066        0.030       26.358        7.401        0.079      348.126       27.595      862.508
06/30/2013  00:29:00       38.087       23.409        2.385       20.497       23.266       14.347      420.145      541.314      205.835        0.159        0.058       44.706        9.746        0.048      347.869       27.151      862.496
06/30/2013  00:30:00        5.891        9.842       37.822       18.031       33.590       13.697      325.115     1128.282      187.617        0.160        0.082       11.471       12.724        1.231      347.543       26.589      862.476
06/30/2013  00:31:00       33.972      -85.112      -18.630       37.993       43.523       28.276     1443.475     1894.288      799.541        0.644        0.207       91.641       21.167        0.053      348.198       27.719      862.470
06/30/2013  00:32:00        6.872      -30.106       16.175       21.919       59.542       27.768      480.456     3545.271      771.064        0.301        0.240       30.880       29.461        0.910      348.065       27.490      862.470
06/30/2013  00:33:00       30.299       69.203        0.917       30.770       25.037       24.838      946.767      626.855      616.907        0.395        0.110       75.545       20.756        0.075      347.450       26.428      862.491
06/30/2013  00:34:00       18.312       55.593       -7.489       31.492       28.850       22.754      991.716      832.344      517.725        0.291        0.117       58.532       15.311        0.068      347.419       26.375      862.496
06/30/2013  00:35:00      -26.398       55.348      -17.417       32.666       48.224        9.765     1067.058     2325.561       95.362        0.378        0.174       61.321       11.901        0.038      347.649       26.773      862.500
06/30/2013  00:36:00      -78.951      -27.403      -12.623       22.028       15.461       15.241      485.254      239.045      232.293        0.405        0.048       83.571       11.410        0.019      347.347       26.252      862.488
06/30/2013  00:37:00      -51.486      -37.610        0.547       32.730       18.684        9.325     1071.245      349.094       86.949        0.279        0.075       63.760       10.665        0.028      347.285       26.142      862.484
06/30/2013  00:38:00      -23.793      -35.476       -0.633       18.937       24.693       13.086      358.604      609.743      171.254        0.148        0.057       42.716       12.637        0.088      347.376       26.300      862.469
06/30/2013  00:39:00      -87.214      -40.009        1.529       30.780       28.468       16.593      947.435      810.443      275.338        0.562        0.102       95.953       16.799        0.031      347.434       26.401      862.472
06/30/2013  00:40:00     -124.857      -36.355       -4.608       37.738       33.612       21.137     1424.122     1129.742      446.761        0.997        0.150      130.042       20.117        0.024      347.340       26.238      862.484
06/30/2013  00:41:00     -115.223      -51.342        2.257       46.984       38.806       24.935     2207.457     1505.870      621.763        1.013        0.217      126.144       25.380        0.040      347.329       26.219      862.481
06/30/2013  00:42:00      -74.626      -96.795        3.750       42.683       35.624       25.497     1821.862     1269.062      650.081        0.935        0.187      122.222       18.614        0.023      347.481       26.482      862.469
06/30/2013  00:43:00      -32.485      -82.320       -4.302       26.833       26.554       14.491      720.008      705.104      209.990        0.474        0.082       88.498       11.346        0.016      347.541       26.584      862.470
06/30/2013  00:44:00      -28.794       -7.681        4.279       25.968       27.407       14.245      674.326      751.135      202.933        0.127        0.081       29.800       12.156        0.166      347.489       26.494      862.463
06/30/2013  00:45:00       -4.828      -39.336       -7.273       12.458       19.224       10.365      155.195      369.561      107.427        0.113        0.032       39.631        7.579        0.037      347.437       26.406      862.450
06/30/2013  00:46:00       -8.618      -28.769        4.156       26.971       14.198       11.937      727.448      201.582      142.488        0.100        0.054       30.032       15.073        0.252      347.593       26.674      862.463
06/30/2013  00:47:00      -76.024        7.413       -5.514       21.667       19.019       11.096      469.464      361.728      123.121        0.341        0.048       76.385        9.880        0.017      347.468       26.459      862.476
06/30/2013  00:48:00     -113.105        3.659       -8.859       20.730       22.605       10.923      429.721      510.971      119.319        0.697        0.053      113.164        9.955        0.008      347.284       26.142      862.470
06/30/2013  00:49:00      -90.354      -15.508       -7.672       28.177       22.697       16.801      793.944      515.132      282.275        0.503        0.080       91.675       14.380        0.025      347.128       25.872      862.479
06/30/2013  00:50:00      -82.941        0.693       -8.298       22.778       15.464       14.396      518.832      239.127      207.234        0.396        0.048       82.944       11.406        0.019      347.283       26.139      862.476
06/30/2013  00:51:00      -94.133        6.025      -15.345       15.335       12.111        8.606      235.156      146.669       74.069        0.479        0.023       94.326        2.905        0.001      347.602       26.689      862.463
06/30/2013  00:52:00     -108.595      -44.501      -11.951       25.913       31.504       17.486      671.502      992.482      305.753        0.794        0.098      117.359        5.148        0.002      347.338       26.236      862.456
06/30/2013  00:53:00      -42.904      -48.226        0.314       42.333       34.465       22.802     1792.069     1187.825      519.934        0.383        0.175       64.548       25.187        0.152      347.013       25.676      862.428
06/30/2013  00:54:00      -14.829      -39.208        4.528       28.028       23.194       19.851      785.579      537.941      394.070        0.175        0.086       41.918       18.340        0.191      347.197       25.993      862.389
06/30/2013  00:55:00      -52.812      -68.249       -1.686       29.952       33.786       15.423      897.136     1141.510      237.866        0.486        0.114       86.296       12.818        0.022      347.817       27.059      862.377
06/30/2013  00:56:00      -68.428       27.414       -4.224       27.122       54.207       19.370      735.587     2938.431      375.203        0.475        0.202       73.715       16.450        0.050      347.328       26.218      862.399
06/30/2013  00:57:00      -42.210       78.361       -0.110       29.359       23.334       19.737      861.945      544.483      389.534        0.486        0.090       89.006       14.753        0.027      347.033       25.708      862.414
06/30/2013  00:58:00      -23.253       97.032       -5.937       12.938       12.111        9.843      167.395      146.676       96.887        0.520        0.021       99.780        4.577        0.002      347.138       25.890      862.417
06/30/2013  00:59:00       -5.130       77.459      -10.462        9.254       18.431        5.958       85.632      339.707       35.499        0.330        0.023       77.629        2.325        0.001      347.409       26.356      862.423
06/30/2013  01:00:00      -58.561       42.689      -13.107       27.749       22.376        8.389      770.012      500.707       70.368        0.338        0.067       72.469        7.496        0.011      347.144       25.900      862.436
06/30/2013  01:01:00      -70.284       -9.619       -8.216       28.194       20.911       14.529      794.885      437.279      211.096        0.327        0.072       70.939       15.707        0.049      346.893       25.467      862.452
06/30/2013  01:02:00      -20.341      -28.752        0.476       34.943       15.498       17.532     1221.022      240.196      307.371        0.150        0.088       35.220       19.944        0.321      346.875       25.436      862.442
06/30/2013  01:03:00      -43.822      -31.317        0.560       32.855       14.638       12.336     1079.474      214.278      152.183        0.217        0.072       53.862       12.203        0.051      346.990       25.634      862.421
06/30/2013  01:04:00      -61.341       -9.350       -7.618       17.508       17.640       14.597      306.546      311.157      213.078        0.237        0.042       62.049       10.486        0.029      346.980       25.618      862.412
06/30/2013  01:05:00     -166.343       27.990      -22.633       57.338       32.807       22.596     3287.685     1076.305      510.576        1.692        0.244      168.681       22.370        0.018      346.934       25.537      862.425
06/30/2013  01:06:00     -127.524      -28.562      -11.928       54.974       24.506       22.565     3022.109      600.561      509.178        1.068        0.207      130.683       29.353        0.050      346.774       25.263      862.414
06/30/2013  01:07:00       -8.049       -3.727        5.401       24.971       14.194        9.254      623.565      201.471       85.641        0.051        0.046        8.870        9.867        1.237      346.700       25.136      862.396
06/30/2013  01:08:00     -158.344       16.147      -19.641       51.987       51.991       20.819     2702.700     2703.093      433.443        1.578        0.292      159.165       20.659        0.017      346.757       25.234      862.424
06/30/2013  01:09:00      -73.499      -36.961        2.680       47.705       29.194       24.910     2275.764      852.298      620.512        0.526        0.187       82.269       24.657        0.090      346.679       25.099      862.404
06/30/2013  01:10:00      -80.352      -27.786       -2.009       14.890       23.848       11.482      221.722      568.716      131.832        0.408        0.046       85.020        7.720        0.008      346.751       25.224      862.399
06/30/2013  01:11:00     -121.635      -27.045       -7.731       33.638       26.187       15.278     1131.518      685.738      233.415        0.882        0.103      124.605       11.146        0.008      346.763       25.244      862.422
06/30/2013  01:12:00     -150.474      -63.083       -8.031       21.254       28.381       14.320      451.726      805.462      205.060        1.407        0.073      163.163        9.874        0.004      346.679       25.100      862.443
06/30/2013  01:13:00      -56.285      -22.033        2.124       41.314       25.670       15.886     1706.823      658.972      252.351        0.314        0.131       60.444       14.616        0.058      346.623       25.004      862.450
06/30/2013  01:14:00     -107.583       49.305      -12.383       35.937       35.956       19.092     1291.465     1292.850      364.505        0.855        0.147      118.343       21.338        0.033      346.785       25.283      862.458
06/30/2013  01:15:00     -103.467       80.947      -23.693       37.122       37.162       22.081     1378.076     1380.979      487.584        1.053        0.162      131.370       18.256        0.019      346.904       25.486      862.447
06/30/2013  01:16:00      -96.054      110.574      -19.815       29.740       55.540       30.261      884.438     3084.710      915.754        1.336        0.244      146.469       27.607        0.036      346.984       25.624      862.445
06/30/2013  01:17:00      -95.805       45.738      -10.575       30.709       45.365       19.718      943.014     2058.023      388.790        0.739        0.169      106.163       19.306        0.033      346.992       25.639      862.457
06/30/2013  01:18:00      -73.006       54.189      -10.282       33.353       52.598       27.142     1112.439     2766.564      736.667        0.649        0.231       90.920       30.698        0.114      346.964       25.590      862.469
06/30/2013  01:19:00      -68.281       17.985        0.451       35.384       28.280       19.885     1252.045      799.751      395.419        0.372        0.122       70.610       20.384        0.083      346.989       25.635      862.469
06/30/2013  01:20:00      -21.205      -23.187        3.649       18.082       19.243       10.811      326.963      370.297      116.880        0.091        0.041       31.421        7.375        0.055      346.963       25.590      862.474
06/30/2013  01:21:00        0.880       -2.069       10.383       22.564       14.379       13.968      509.119      206.747      195.101        0.051        0.046        2.248       13.629       36.743      346.802       25.313      862.499
06/30/2013  01:22:00       -9.169        0.852        5.850       17.407       10.438        9.035      303.011      108.954       81.632        0.031        0.025        9.208       10.318        1.256      346.706       25.147      862.502
06/30/2013  01:23:00       -3.882        2.538       12.534       10.755       13.167        9.501      115.674      173.370       90.276        0.028        0.019        4.638        7.121        2.357      346.628       25.012      862.495
06/30/2013  01:24:00        6.562      -15.363        5.544       11.298       16.186       16.005      127.648      262.002      256.167        0.048        0.032       16.706       15.893        0.905      346.468       24.735      862.480
06/30/2013  01:25:00        5.613      -40.144       -3.890       11.386       13.212        4.405      129.633      174.555       19.401        0.099        0.016       40.534        4.289        0.011      346.694       25.127      862.470
06/30/2013  01:26:00      -52.477      -38.689       -3.626       27.122       20.742       13.479      735.626      430.231      181.691        0.281        0.067       65.198       12.874        0.039      346.697       25.131      862.478
06/30/2013  01:27:00      -84.630      -45.478       -0.619       36.621       19.371       13.948     1341.118      375.243      194.545        0.557        0.096       96.076       11.535        0.014      346.461       24.724      862.488
06/30/2013  01:28:00      -90.299      -29.320       -1.824       26.913       23.777       14.300      724.284      565.347      204.495        0.526        0.075       94.940       13.408        0.020      346.353       24.541      862.494
06/30/2013  01:29:00      -55.185      -21.504        2.484       24.637       18.270       14.095      606.967      333.799      198.682        0.233        0.057       59.226        9.307        0.025      346.427       24.668      862.496
06/30/2013  01:30:00      -43.408      -32.145       -3.678       26.545       15.602       11.212      704.612      243.431      125.717        0.200        0.054       54.014        5.116        0.009      346.556       24.889      862.473
06/30/2013  01:31:00      -22.046      -40.238        5.006       25.331       24.100       13.511      641.675      580.819      182.555        0.177        0.070       45.882        5.307        0.013      346.681       25.103      862.461
06/30/2013  01:32:00       -7.968      -26.744        1.627       18.386       15.751       10.456      338.047      248.090      109.336        0.074        0.035       27.906       10.099        0.131      346.699       25.134      862.470
06/30/2013  01:33:00       -4.080      -13.982        9.544        9.418       12.987        9.267       88.695      168.654       85.884        0.032        0.017       14.565        8.920        0.375      346.541       24.861      862.484
06/30/2013  01:34:00      -30.644        9.175       -3.979       18.528       14.385        9.097      343.297      206.928       82.762        0.084        0.032       31.988        7.874        0.061      346.349       24.531      862.489
06/30/2013  01:35:00       -8.149       12.306        0.445       21.007        8.162        7.845      441.291       66.616       61.541        0.039        0.028       14.759       10.541        0.510      346.322       24.484      862.509
06/30/2013  01:36:00        0.969       -1.239        0.736        7.850        5.021        5.320       61.618       25.213       28.299        0.006        0.006        1.573        3.812        5.871      346.309       24.463      862.508
06/30/2013  01:37:00       -9.467        8.440       16.398        6.748       14.240       17.110       45.530      202.767      292.743        0.049        0.027       12.683       14.004        1.219      346.231       24.329      862.523
06/30/2013  01:38:00       27.759       35.186       24.517       26.979       20.897       20.370      727.867      436.672      414.956        0.209        0.079       44.818       21.021        0.220      346.228       24.324      862.549
06/30/2013  01:39:00       28.758        6.708        8.992       12.288       15.187       10.085      150.984      230.643      101.712        0.072        0.024       29.530        7.906        0.072      346.353       24.540      862.565
06/30/2013  01:40:00       27.223      -25.394       11.080       17.497       12.981        9.349      306.135      168.508       87.409        0.104        0.028       37.229        8.783        0.056      346.642       25.037      862.583
06/30/2013  01:41:00        9.521       -0.330       20.762       11.195       37.317       13.338      125.324     1392.595      177.910        0.111        0.085        9.526       18.721        3.862      346.556       24.890      862.602
06/30/2013  01:42:00       11.825       28.337       32.826       17.980       12.911       12.532      323.287      166.682      157.047        0.133        0.032       30.705       11.715        0.146      346.367       24.564      862.608
06/30/2013  01:43:00       19.902       34.630       30.798       26.007       19.679       20.916      676.356      387.255      437.490        0.202        0.075       39.941       18.973        0.226      346.448       24.702      862.617
06/30/2013  01:44:00       35.406       15.617       15.516       14.825       13.027       10.388      219.788      169.711      107.901        0.112        0.025       38.697        7.140        0.034      346.341       24.519      862.622
06/30/2013  01:45:00       41.031       33.448       27.469       14.560       14.385       12.728      211.990      206.916      162.007        0.207        0.029       52.937        9.617        0.033      346.350       24.534      862.611
06/30/2013  01:46:00       43.106       45.701       39.974       21.725       14.832       11.396      471.988      219.990      129.865        0.318        0.041       62.823        7.596        0.015      346.406       24.630      862.608
06/30/2013  01:47:00       47.690       49.188       38.952       15.543       15.747       13.885      241.585      247.959      192.799        0.345        0.034       68.511        5.938        0.008      346.496       24.785      862.605
06/30/2013  01:48:00       59.361       37.461       23.148       21.626       16.943       17.258      467.692      287.056      297.848        0.326        0.053       70.193        8.753        0.016      346.707       25.149      862.600
06/30/2013  01:49:00       48.710       28.013       22.247       21.176       17.595       15.988      448.437      309.582      255.601        0.233        0.051       56.191       11.565        0.042      346.696       25.129      862.592
06/30/2013  01:50:00       33.009        9.453       18.295       23.818       15.089       13.750      567.312      227.685      189.074        0.125        0.049       34.336        9.525        0.077      346.627       25.011      862.592
06/30/2013  01:51:00       20.847       -1.397        7.225       22.855        9.106        8.903      522.336       82.912       79.259        0.059        0.034       20.894        8.460        0.164      346.670       25.085      862.584
06/30/2013  01:52:00       23.620        4.448        5.716       15.610       15.493        9.811      243.685      240.046       96.258        0.060        0.029       24.036       11.576        0.232      346.774       25.266      862.580
06/30/2013  01:53:00        8.719       -2.400        4.134       10.986       10.972        7.880      120.699      120.374       62.087        0.020        0.015        9.043        4.641        0.263      346.559       24.895      862.576
06/30/2013  01:54:00       23.174       -6.048        1.474       11.040        5.284        5.377      121.874       27.922       28.916        0.038        0.009       23.950        4.930        0.042      346.742       25.209      862.565
06/30/2013  01:55:00        4.935      -11.216        2.456       16.584        9.515        4.074      275.015       90.544       16.598        0.027        0.019       12.254        0.907        0.005      346.675       25.094      862.545
06/30/2013  01:56:00      -31.412      -19.198       -4.071       18.613        8.020        7.472      346.444       64.318       55.832        0.092        0.023       36.814        8.077        0.048      346.276       24.405      862.539
06/30/2013  01:57:00      -54.307      -25.684      -12.346        8.411        6.751        6.569       70.745       45.578       43.148        0.196        0.008       60.074        3.282        0.003      346.105       24.113      862.530
06/30/2013  01:58:00      -58.762      -29.384      -14.570        6.445        9.022        6.511       41.538       81.401       42.399        0.235        0.008       65.699        0.847        0.000      346.033       23.990      862.515
06/30/2013  01:59:00      -61.538      -25.758      -10.826       10.617        8.961        5.979      112.713       80.306       35.743        0.240        0.011       66.711        2.703        0.002      346.026       23.978      862.514
06/30/2013  02:00:00      -61.775      -15.350       -5.649        7.753        8.780        7.123       60.115       77.082       50.742        0.214        0.009       63.653        4.488        0.005      346.048       24.014      862.517
06/30/2013  02:01:00      -64.796      -17.130       -6.978        6.432       11.979        5.236       41.373      143.504       27.419        0.238        0.011       67.022        3.141        0.002      346.105       24.113      862.515
06/30/2013  02:02:00      -81.432      -32.633       -5.714       18.884       15.240        9.342      356.590      232.270       87.275        0.420        0.034       87.727        8.369        0.009      345.966       23.875      862.518
06/30/2013  02:03:00      -81.879      -49.034       -3.973       29.599       18.056       19.701      876.127      326.007      388.115        0.536        0.080       95.438        7.714        0.007      345.875       23.719      862.524
06/30/2013  02:04:00      -43.572      -35.197        1.179       35.441       21.985       15.848     1256.079      483.331      251.170        0.256        0.100       56.012        9.472        0.029      345.794       23.579      862.513
06/30/2013  02:05:00      -51.156      -77.598        3.328       27.651       27.201       19.331      764.572      739.873      373.693        0.526        0.094       92.943       19.348        0.043      346.148       24.188      862.500
06/30/2013  02:06:00      -56.789      -43.423       -4.330       30.454       46.256       21.490      927.476     2139.658      461.820        0.433        0.176       71.487       27.551        0.149      346.128       24.153      862.488
06/30/2013  02:07:00      -33.733      -10.146        8.466       35.415       22.619       13.242     1254.197      511.601      175.347        0.163        0.097       35.226       13.967        0.157      345.982       23.903      862.499
06/30/2013  02:08:00      -81.759       15.820       -3.380       25.789       25.625       14.364      665.050      656.626      206.334        0.424        0.076       83.275       10.401        0.016      345.734       23.475      862.501
06/30/2013  02:09:00     -105.875      -16.303       -8.179       32.384       35.320       15.631     1048.704     1247.511      244.325        0.704        0.127      107.123       13.520        0.016      345.601       23.247      862.509
06/30/2013  02:10:00     -116.887      -14.452       -2.111       42.635       35.758       25.139     1817.774     1278.669      631.974        0.880        0.186      117.777       23.905        0.041      345.499       23.073      862.519
06/30/2013  02:11:00     -103.371      -52.988       -1.324       60.349       41.154       22.083     3641.974     1693.626      487.679        0.966        0.291      116.161       25.270        0.047      345.686       23.393      862.520
06/30/2013  02:12:00      -86.339      -23.302        5.980       47.540       37.373       21.011     2260.081     1396.716      441.472        0.606        0.205       89.428       23.929        0.072      345.698       23.416      862.508
06/30/2013  02:13:00      -58.758       -9.719        0.060       35.425       33.303       20.186     1254.959     1109.115      407.488        0.316        0.139       59.556       18.962        0.101      345.693       23.407      862.517
06/30/2013  02:14:00      -96.621      -19.634       -7.364       22.102       22.364       13.176      488.510      500.144      173.620        0.547        0.058       98.595       10.270        0.011      345.669       23.364      862.517
06/30/2013  02:15:00      -66.467      -21.709        4.357       48.148       26.009       19.522     2318.217      676.456      381.090        0.414        0.169       69.922       23.159        0.110      345.544       23.149      862.511
06/30/2013  02:16:00     -119.830      -29.166       -3.166       23.863       24.162       19.019      569.432      583.822      361.717        0.837        0.076      123.329       15.297        0.015      345.499       23.072      862.506
06/30/2013  02:17:00     -142.606      -35.826       -7.827       35.090       28.247       22.248     1231.277      797.870      494.961        1.210        0.126      147.037       19.300        0.017      345.500       23.074      862.500
06/30/2013  02:18:00     -116.792      -55.930        6.773       57.979       36.908       23.304     3361.565     1362.231      543.084        1.104        0.263      129.494       27.826        0.046      345.574       23.202      862.479
06/30/2013  02:19:00      -81.573      -48.031        2.147       41.100       29.583       24.421     1689.171      875.130      596.383        0.606        0.158       94.663       20.658        0.048      345.590       23.228      862.472
06/30/2013  02:20:00      -94.802      -46.340        1.313       39.659       28.139       18.890     1572.823      791.811      356.815        0.693        0.136      105.522       17.657        0.028      345.585       23.219      862.471
06/30/2013  02:21:00     -105.440      -56.438       -2.656       43.523       35.513       21.707     1894.250     1261.150      471.197        0.897        0.181      119.594       19.620        0.027      345.604       23.254      862.466
06/30/2013  02:22:00      -98.950      -44.146       -2.707       56.385       36.641       21.595     3179.216     1342.568      466.357        0.837        0.249      108.351       24.148        0.050      345.538       23.140      862.478
06/30/2013  02:23:00     -111.844      -40.278       -9.316       25.888       34.345       19.707      670.210     1179.572      388.367        0.823        0.112      118.876       13.040        0.012      345.476       23.032      862.471
06/30/2013  02:24:00      -86.435      -56.967        1.915       56.679       31.152       20.829     3212.462      970.455      433.831        0.767        0.231      103.520       16.894        0.027      345.607       23.258      862.463
06/30/2013  02:25:00     -121.312      -70.471       -6.527       27.110       27.456       21.615      734.932      753.832      467.190        1.084        0.098      140.296        9.034        0.004      345.632       23.302      862.465
06/30/2013  02:26:00      -97.337      -84.927        1.571       60.521       67.621       28.740     3662.845     4572.543      826.007        1.287        0.453      129.179       30.293        0.055      345.595       23.236      862.460
06/30/2013  02:27:00     -117.778      -83.211        3.680       36.809       39.223       24.736     1354.928     1538.449      611.849        1.216        0.175      144.207       20.701        0.021      345.590       23.229      862.455
06/30/2013  02:28:00      -59.077      -46.349        6.836       50.732       42.468       23.120     2573.762     1803.558      534.525        0.530        0.246       75.088       24.962        0.111      345.538       23.139      862.459
06/30/2013  02:29:00      -96.377      -48.032       -6.205       41.046       27.908       17.725     1684.784      778.838      314.177        0.721        0.139      107.683        8.966        0.007      345.591       23.229      862.453
06/30/2013  02:30:00      -93.393      -19.370       -4.235       28.806       27.032       15.484      829.785      730.718      239.768        0.546        0.090       95.381       14.894        0.024      345.513       23.096      862.466
06/30/2013  02:31:00      -96.004       29.648       -6.164       24.634       16.234       14.735      606.837      263.556      217.113        0.561        0.054      100.478       11.896        0.014      345.316       22.759      862.455
06/30/2013  02:32:00     -115.334       12.865       -8.010       21.897       21.861       12.586      479.464      477.906      158.409        0.732        0.056      116.049       10.425        0.008      345.319       22.764      862.446
06/30/2013  02:33:00      -89.606       -2.921       -4.521       31.041       24.748       19.294      963.549      612.450      372.262        0.500        0.097       89.654       18.985        0.045      345.223       22.599      862.441
06/30/2013  02:34:00      -74.271       -4.668       -4.998       27.177       24.184       16.472      738.572      584.874      271.339        0.358        0.080       74.418       16.297        0.048      345.220       22.594      862.433
06/30/2013  02:35:00      -75.911       -0.116       -9.130       23.543       20.535       12.961      554.287      421.674      167.982        0.349        0.057       75.911       10.687        0.020      345.175       22.520      862.439
06/30/2013  02:36:00      -75.857      -22.335       -4.984       27.795       16.524       15.064      772.563      273.059      226.914        0.378        0.064       79.077       14.740        0.035      345.240       22.631      862.432
06/30/2013  02:37:00      -38.509      -29.649        1.811       26.323       18.034       17.637      692.916      325.235      311.059        0.185        0.066       48.601       10.804        0.049      345.138       22.454      862.426
06/30/2013  02:38:00      -53.284      -36.941        4.265       30.808       21.182       15.975      949.130      448.692      255.192        0.294        0.083       64.837       15.621        0.058      345.153       22.481      862.413
06/30/2013  02:39:00      -88.132      -37.503        0.994       26.969       15.521       12.497      727.308      240.899      156.186        0.515        0.056       95.780       11.867        0.015      345.256       22.656      862.400
06/30/2013  02:40:00      -94.799      -33.901      -13.712       15.931       17.975       12.387      253.795      323.110      153.449        0.553        0.037      100.679        3.428        0.001      345.235       22.619      862.405
06/30/2013  02:41:00      -99.906       -8.755      -13.795       17.223       15.810       12.910      296.639      249.955      166.672        0.548        0.036      100.289        8.426        0.007      345.120       22.424      862.401
06/30/2013  02:42:00     -100.361      -33.761       -7.119       19.388       19.906       14.375      375.880      396.259      206.643        0.612        0.049      105.888       11.675        0.012      345.035       22.277      862.390
06/30/2013  02:43:00     -109.784      -33.879       -1.361       18.056       19.987       12.612      326.032      399.473      159.062        0.704        0.044      114.893        7.883        0.005      345.064       22.328      862.375
06/30/2013  02:44:00      -94.827       -9.331       -4.090       22.109       18.862       14.207      488.808      355.780      201.829        0.507        0.052       95.285       10.528        0.012      345.038       22.285      862.355
06/30/2013  02:45:00      -83.606      -10.919       -1.691       34.125       17.365       16.024     1164.533      301.547      256.780        0.442        0.086       84.316       19.576        0.054      344.993       22.207      862.354
06/30/2013  02:46:00     -105.541      -11.802       -5.379       36.837       28.313       19.947     1356.936      801.641      397.868        0.693        0.128      106.199       16.070        0.023      344.866       21.989      862.353
06/30/2013  02:47:00     -123.130      -38.358       -7.780       34.134       37.836       22.327     1165.115     1431.589      498.480        0.989        0.155      128.967       18.528        0.021      344.889       22.029      862.345
06/30/2013  02:48:00     -113.377      -25.738       -5.323       32.104       27.274       16.382     1030.675      743.851      268.368        0.779        0.102      116.261       14.883        0.016      344.818       21.906      862.338
06/30/2013  02:49:00     -101.732       -3.774       -6.570       37.695       27.014       16.017     1420.898      729.734      256.552        0.641        0.120      101.802       16.829        0.027      344.811       21.893      862.325
06/30/2013  02:50:00      -87.010      -21.303       -5.651       27.389       29.531       15.048      750.174      872.065      226.442        0.495        0.092       89.579       14.402        0.026      344.774       21.832      862.314
06/30/2013  02:51:00      -98.342      -30.928       -9.156       21.435       18.824       13.571      459.446      354.346      184.160        0.585        0.050      103.091        9.793        0.009      344.857       21.975      862.306
06/30/2013  02:52:00      -67.951       -9.443       -3.233       26.594       21.896       12.648      707.214      479.426      159.974        0.303        0.067       68.604       12.399        0.033      344.810       21.894      862.296
06/30/2013  02:53:00     -133.412       29.216       -6.697       37.053       22.934       12.826     1372.939      525.973      164.506        1.038        0.103      136.573       12.315        0.008      344.851       21.964      862.288
06/30/2013  02:54:00     -127.257        1.742      -14.540       31.335       21.583       16.450      981.911      465.831      270.606        0.906        0.086      127.269       15.858        0.016      344.924       22.087      862.267
06/30/2013  02:55:00     -118.290      -25.385       -8.248       25.857       24.740       16.337      668.588      612.077      266.914        0.813        0.077      120.983       12.353        0.010      344.915       22.073      862.247
06/30/2013  02:56:00     -107.546      -39.823      -11.409       23.283       31.839       16.768      542.106     1013.753      281.177        0.756        0.092      114.682        8.902        0.006      344.863       21.984      862.237
06/30/2013  02:57:00     -111.024      -45.723       -8.215       27.012       28.148       16.526      729.662      792.283      273.117        0.814        0.090      120.071       11.585        0.009      344.783       21.846      862.228
06/30/2013  02:58:00      -36.124      -33.119        5.642       54.525       40.141       28.566     2973.011     1611.283      816.011        0.392        0.270       49.008       28.794        0.345      344.809       21.892      862.232
06/30/2013  02:59:00      -63.969      -18.031        5.636       50.679       31.325       19.777     2568.386      981.238      391.142        0.419        0.197       66.461       24.355        0.134      344.785       21.850      862.233
06/30/2013  03:00:00     -129.493      -29.942       -9.598       33.921       27.202       18.863     1150.668      739.964      355.824        1.000        0.112      132.910       13.394        0.010      344.805       21.886      862.231
06/30/2013  03:01:00     -120.775       -1.967      -10.923       37.940       25.434       25.666     1439.435      646.883      658.734        0.873        0.137      120.791       23.485        0.038      344.757       21.803      862.235
06/30/2013  03:02:00     -117.485       -4.050      -10.850       35.628       22.501       20.562     1269.325      506.291      422.813        0.807        0.110      117.555       17.026        0.021      344.690       21.687      862.226
06/30/2013  03:03:00      -63.049      -14.269       -4.940       28.543       23.005       15.671      814.683      529.216      245.583        0.290        0.079       64.644       15.244        0.056      344.774       21.831      862.222
06/30/2013  03:04:00      -30.499      -30.115        3.357       23.017       19.434       12.744      529.803      377.667      162.409        0.146        0.053       42.862       11.299        0.069      344.825       21.917      862.214
06/30/2013  03:05:00      -79.238      -10.812       -8.205       43.115       23.144       12.059     1858.883      535.668      145.429        0.450        0.127       79.972        8.267        0.011      344.892       22.034      862.202
06/30/2013  03:06:00     -106.662       15.190      -16.626       21.038       21.745       15.852      442.597      472.862      251.278        0.653        0.058      107.738       10.490        0.009      344.968       22.164      862.205
06/30/2013  03:07:00     -105.210        1.229      -13.896       16.758       16.650       11.534      280.837      277.207      133.036        0.598        0.035      105.217        7.389        0.005      345.005       22.228      862.186
06/30/2013  03:08:00      -91.115      -25.705       -7.981       20.436       25.556       18.262      417.634      653.106      333.486        0.522        0.070       94.672       11.277        0.014      344.999       22.217      862.183
06/30/2013  03:09:00      -65.090      -21.259       -9.242       41.702       33.524       23.262     1739.072     1123.834      541.120        0.409        0.170       68.474       11.545        0.028      344.907       22.059      862.182
06/30/2013  03:10:00     -112.489      -61.657       -9.487       28.911       27.959       16.360      835.857      781.713      267.665        0.921        0.094      128.279        5.665        0.002      344.768       21.819      862.172
06/30/2013  03:11:00      -90.282      -54.813       -3.402       16.731       27.624       12.046      279.935      763.062      145.111        0.618        0.059      105.619        8.177        0.006      344.853       21.966      862.174
06/30/2013  03:12:00      -82.994      -37.205      -11.338       12.101       14.545        9.236      146.424      211.565       85.296        0.442        0.022       90.951        4.997        0.003      344.861       21.982      862.165
06/30/2013  03:13:00      -84.600      -55.455       -9.795       15.975       16.655       12.908      255.191      277.392      166.623        0.551        0.035      101.155        8.965        0.008      344.924       22.088      862.182
06/30/2013  03:14:00     -106.602      -60.223      -11.732       26.823       23.491       11.245      719.473      551.845      126.439        0.826        0.070      122.437        6.519        0.003      344.940       22.116      862.193
06/30/2013  03:15:00      -54.309      -53.037        0.871       38.093       27.177       19.505     1451.057      738.591      380.459        0.417        0.129       75.910       19.092        0.063      344.892       22.034      862.199
06/30/2013  03:16:00      -69.101      -77.342       -0.065       43.040       29.412       21.743     1852.432      865.051      472.743        0.697        0.160      103.714       25.104        0.059      344.888       22.028      862.212
06/30/2013  03:17:00      -65.765      -79.554       -2.125       23.492       24.576       19.085      551.880      603.998      364.255        0.609        0.076      103.217       15.135        0.022      344.954       22.139      862.209
06/30/2013  03:18:00      -53.902      -56.867       -3.023       25.733       25.296       20.047      662.179      639.891      401.881        0.393        0.085       78.353       15.283        0.038      344.876       22.005      862.201
06/30/2013  03:19:00      -86.636      -72.961       -1.290       30.229       29.245       20.872      913.795      855.252      435.660        0.752        0.110      113.266       17.592        0.024      344.827       21.922      862.204
06/30/2013  03:20:00     -123.854      -92.113       -9.821       40.964       34.436       22.761     1678.078     1185.839      518.066        1.365        0.169      154.352       13.901        0.008      344.858       21.976      862.193
06/30/2013  03:21:00     -141.626      -75.809       -1.023       38.610       32.904       23.968     1490.746     1082.693      574.478        1.448        0.157      160.639        9.859        0.004      344.967       22.163      862.187
06/30/2013  03:22:00      -91.670      -58.113        4.508       49.641       34.771       22.523     2464.182     1209.020      507.299        0.799        0.209      108.538       19.288        0.032      344.915       22.073      862.186
06/30/2013  03:23:00     -110.771      -52.685        7.532       41.563       37.068       21.698     1727.471     1374.037      470.797        0.934        0.179      122.661       20.550        0.028      344.896       22.041      862.175
06/30/2013  03:24:00     -140.752      -60.408       -1.417       43.209       42.493       23.852     1867.020     1805.622      568.910        1.385        0.212      153.167       21.594        0.020      344.903       22.052      862.168
06/30/2013  03:25:00     -119.086      -60.897       -6.249       35.339       38.928       17.418     1248.872     1515.414      303.385        1.050        0.153      133.753        9.937        0.006      344.955       22.141      862.172
06/30/2013  03:26:00     -102.386      -43.944       -0.114       49.100       36.418       23.282     2410.766     1326.302      542.053        0.835        0.214      111.418       25.735        0.053      344.901       22.050      862.163
06/30/2013  03:27:00      -97.640      -37.191        3.871       32.751       24.102       20.222     1072.638      580.887      408.913        0.650        0.103      104.483       20.361        0.038      344.858       21.974      862.165
06/30/2013  03:28:00      -85.798      -43.642        0.174       43.042       28.656       19.027     1852.581      821.147      362.029        0.615        0.152       96.260       20.200        0.044      344.940       22.117      862.164
06/30/2013  03:29:00      -88.506      -52.338        4.819       41.522       24.226       19.885     1724.110      586.914      395.419        0.665        0.135      102.823       19.754        0.037      345.017       22.247      862.152
06/30/2013  03:30:00      -54.403      -48.051       -3.851       27.752       20.601       15.037      770.165      424.388      226.119        0.335        0.071       72.584       11.284        0.024      345.043       22.293      862.140
06/30/2013  03:31:00      -41.521      -32.182        4.334       37.537       31.413       17.035     1409.050      986.771      290.187        0.273        0.134       52.533       12.561        0.057      344.998       22.216      862.129
06/30/2013  03:32:00      -97.827      -38.800       -6.671       42.356       29.071       16.491     1794.015      845.127      271.947        0.701        0.146      105.241       15.573        0.022      344.915       22.073      862.141
06/30/2013  03:33:00     -102.773       -7.667        0.042       34.861       26.427       20.467     1215.267      698.360      418.906        0.648        0.117      103.059       20.406        0.039      344.758       21.803      862.144
06/30/2013  03:34:00      -85.494      -12.296       -5.008       27.119       19.648       14.748      735.425      386.043      217.503        0.441        0.067       86.374       11.825        0.019      344.777       21.836      862.136
06/30/2013  03:35:00      -59.205      -49.919       -4.837       20.001       19.198       14.455      400.032      368.547      208.949        0.350        0.049       77.441       10.212        0.017      344.905       22.056      862.135
06/30/2013  03:36:00      -25.646      -46.935       -3.168       30.423       20.467       11.121      925.536      418.897      123.668        0.217        0.073       53.484        7.861        0.022      344.986       22.192      862.143
06/30/2013  03:37:00      -63.213      -41.079        8.488       51.859       30.093       19.152     2689.393      905.596      366.801        0.486        0.198       75.388       15.762        0.044      344.872       21.999      862.150
06/30/2013  03:38:00     -128.938      -64.823       -4.418       30.727       30.629       17.070      944.170      938.125      291.377        1.151        0.109      144.316       13.550        0.009      344.717       21.734      862.164
06/30/2013  03:39:00      -71.388      -58.227       -0.160       45.410       28.800       17.514     2062.074      829.450      306.737        0.584        0.160       92.123       21.994        0.057      344.661       21.638      862.181
06/30/2013  03:40:00      -46.964      -76.387       -4.353       28.642       18.651       14.387      820.346      347.860      206.991        0.472        0.069       89.669       10.262        0.013      344.735       21.764      862.180
06/30/2013  03:41:00      -75.446      -53.990       -6.157       33.013       31.181       22.340     1089.843      972.242      499.060        0.560        0.128       92.774       15.149        0.027      344.733       21.759      862.192
06/30/2013  03:42:00      -81.065      -49.204        5.429       56.776       31.243       24.065     3223.510      976.140      579.137        0.690        0.239       94.829       25.430        0.072      344.754       21.797      862.212
06/30/2013  03:43:00     -110.008      -94.652       -3.064       68.796       60.064       27.635     4732.895     3607.712      763.717        1.509        0.455      145.124       34.092        0.055      344.687       21.680      862.221
06/30/2013  03:44:00     -126.490     -101.536       -7.781       57.095       51.680       29.007     3259.804     2670.777      841.411        1.657        0.339      162.201       29.196        0.032      344.635       21.593      862.214
06/30/2013  03:45:00      -86.890      -74.706        7.376       36.784       43.635       32.268     1353.054     1903.979     1041.241        0.874        0.215      114.590       22.343        0.038      344.631       21.588      862.208
06/30/2013  03:46:00     -113.640      -84.035       -3.577       41.735       39.626       24.080     1741.784     1570.237      579.837        1.194        0.195      141.336       20.118        0.020      344.638       21.600      862.217
06/30/2013  03:47:00     -105.750      -47.528       -9.983       26.780       29.981       19.691      717.167      898.866      387.755        0.777        0.100      115.939       11.981        0.011      344.629       21.584      862.225
06/30/2013  03:48:00      -66.873      -44.252        9.962       40.469       25.062       25.028     1637.726      628.114      626.414        0.471        0.145       80.189       24.473        0.093      344.582       21.502      862.223
06/30/2013  03:49:00       -6.464      -17.217       13.868       21.345       21.509       16.248      455.612      462.647      264.012        0.086        0.059       18.391       12.359        0.452      344.576       21.494      862.220
06/30/2013  03:50:00      -38.249      -31.442       11.378       34.276       30.419       20.254     1174.824      925.290      410.237        0.255        0.126       49.514       15.880        0.103      344.569       21.479      862.229
06/30/2013  03:51:00     -104.338      -94.661       -9.140       40.591       33.497       20.940     1647.623     1122.031      438.496        1.157        0.160      140.880       15.869        0.013      344.624       21.574      862.229
06/30/2013  03:52:00      -58.000      -71.833        0.210       35.423       33.461       22.789     1254.819     1119.671      519.339        0.571        0.145       92.325       21.772        0.056      344.640       21.601      862.234
06/30/2013  03:53:00      -39.193      -53.894       -3.745       49.537       23.729       17.881     2453.918      563.042      319.713        0.390        0.167       66.639       13.728        0.042      344.666       21.646      862.246
06/30/2013  03:54:00     -100.390      -72.758      -10.233       25.063       17.925       16.091      628.168      321.307      258.924        0.834        0.060      123.984       11.089        0.008      344.675       21.661      862.253
06/30/2013  03:55:00      -98.218      -64.204       -0.675       42.986       29.210       15.927     1847.790      853.210      253.679        0.836        0.148      117.341       14.394        0.015      344.683       21.676      862.242
06/30/2013  03:56:00      -54.360      -51.695        6.455       43.980       31.758       21.616     1934.200     1008.575      467.252        0.454        0.171       75.016       21.360        0.081      344.627       21.581      862.238
06/30/2013  03:57:00     -104.775      -67.161        2.177       37.740       31.408       22.860     1424.306      986.474      522.588        0.921        0.147      124.452       22.788        0.034      344.614       21.557      862.233
06/30/2013  03:58:00      -88.622      -80.767        3.793       51.388       36.576       28.859     2640.773     1337.804      832.864        0.960        0.241      119.905       29.905        0.062      344.591       21.519      862.224
06/30/2013  03:59:00      -86.824      -76.296        4.349       32.140       35.143       20.125     1032.991     1235.014      405.010        0.803        0.134      115.583       17.411        0.023      344.587       21.513      862.221
06/30/2013  04:00:00      -93.309      -71.139       -8.253       30.947       33.499       15.954      957.713     1122.160      254.534        0.808        0.117      117.334        8.713        0.006      344.615       21.561      862.229
06/30/2013  04:01:00      -77.318      -49.259        1.929       30.959       27.726       16.203      958.433      768.712      262.535        0.520        0.099       91.677        8.088        0.008      344.586       21.509      862.226
06/30/2013  04:02:00      -79.150      -32.535        7.528       48.390       29.451       21.532     2341.570      867.344      463.648        0.553        0.184       85.576       19.447        0.052      344.586       21.510      862.226
06/30/2013  04:03:00      -83.646      -54.708        2.344       53.858       28.248       19.569     2900.730      797.969      382.959        0.704        0.204       99.948       26.634        0.071      344.571       21.485      862.223
06/30/2013  04:04:00      -86.416      -35.257        6.553       53.708       26.485       21.070     2884.593      701.454      443.959        0.639        0.202       93.331       29.034        0.097      344.548       21.444      862.235
06/30/2013  04:05:00     -106.365      -58.871       -0.628       47.278       44.713       21.584     2235.236     1999.249      465.859        0.974        0.235      121.570       23.967        0.039      344.560       21.466      862.241
06/30/2013  04:06:00      -89.115      -32.937        5.456       41.807       42.235       24.067     1747.834     1783.755      579.208        0.658        0.206       95.007       21.165        0.050      344.490       21.344      862.246
06/30/2013  04:07:00     -107.514      -11.236        2.119       43.856       28.248       23.018     1923.367      797.934      529.813        0.747        0.163      108.100       24.839        0.053      344.481       21.331      862.265
06/30/2013  04:08:00      -89.145      -23.912        1.256       32.864       28.480       21.236     1080.044      811.132      450.976        0.543        0.117       92.297       18.792        0.041      344.390       21.174      862.281
06/30/2013  04:09:00      -84.479      -33.684        1.577       34.053       29.441       18.229     1159.588      866.801      332.305        0.532        0.118       90.946       13.049        0.021      344.388       21.169      862.286
06/30/2013  04:10:00      -79.542      -60.732       -3.594       40.880       21.540       14.813     1671.160      463.980      219.410        0.619        0.118      100.077       10.482        0.011      344.400       21.192      862.286
06/30/2013  04:11:00      -22.476      -54.641       -3.760       21.967       20.144       11.162      482.555      405.768      124.598        0.226        0.051       59.083        9.620        0.027      344.462       21.299      862.295
06/30/2013  04:12:00      -46.465      -54.169       -5.465       36.339       30.178       14.236     1320.528      910.741      202.658        0.378        0.122       71.367       12.462        0.030      344.457       21.288      862.303
06/30/2013  04:13:00      -92.457      -44.013       -5.778       38.733       16.917       18.473     1500.239      286.187      341.234        0.632        0.106      102.398       20.272        0.039      344.349       21.106      862.315
06/30/2013  04:14:00     -107.229      -31.570       -3.874       25.615       19.510       16.290      656.123      380.634      265.380        0.691        0.065      111.780       10.405        0.009      344.360       21.122      862.335
06/30/2013  04:15:00     -108.361      -35.448       -5.815       25.149       26.871       13.956      632.470      722.062      194.783        0.729        0.077      114.011       11.771        0.011      344.257       20.948      862.358
06/30/2013  04:16:00      -91.030      -14.987       -0.076       32.294       25.227       16.757     1042.873      636.392      280.787        0.524        0.098       92.256       17.138        0.035      344.149       20.764      862.374
06/30/2013  04:17:00      -72.590      -14.090        1.718       26.344       23.098       12.356      693.985      533.538      152.663        0.343        0.069       73.944        9.786        0.018      344.181       20.818      862.383
06/30/2013  04:18:00     -105.426      -42.564       -9.192       18.550       15.622       14.162      344.114      244.055      200.576        0.690        0.039      113.694        8.327        0.005      344.192       20.837      862.410
06/30/2013  04:19:00      -87.900      -34.000       -2.552       41.708       31.985       18.039     1739.528     1023.065      325.409        0.599        0.154       94.246       18.955        0.040      344.190       20.831      862.421
06/30/2013  04:20:00     -111.847      -46.240       -9.934       18.441       20.320       16.717      340.069      412.918      279.468        0.789        0.052      121.028       10.516        0.008      344.154       20.770      862.425
06/30/2013  04:21:00      -86.299      -36.122        3.041       28.131       28.261       17.400      791.355      798.708      302.753        0.533        0.095       93.554       16.605        0.032      344.154       20.771      862.430
06/30/2013  04:22:00      -96.715      -34.262       -8.837       23.424       19.483       17.236      548.682      379.596      297.071        0.592        0.061      102.604        9.884        0.009      344.195       20.840      862.446
06/30/2013  04:23:00     -112.141      -51.881       -4.243       29.668       23.461       15.312      880.186      550.408      234.445        0.847        0.083      123.560       12.775        0.011      344.209       20.865      862.456
06/30/2013  04:24:00     -106.478      -40.271       -2.556       31.779       20.728       18.645     1009.914      429.640      347.619        0.738        0.089      113.839       19.458        0.029      344.216       20.876      862.444
06/30/2013  04:25:00     -121.961      -44.528       -4.309       21.073       23.537       14.302      444.076      553.984      204.560        0.904        0.060      129.835       12.049        0.009      344.220       20.885      862.431
06/30/2013  04:26:00     -121.712      -40.698       -3.999       16.897       17.828       13.888      285.494      317.832      192.889        0.864        0.040      128.336       10.738        0.007      344.119       20.711      862.416
06/30/2013  04:27:00     -115.680      -49.547       -1.610       23.340       25.710       14.199      544.761      661.009      201.623        0.862        0.070      125.845       12.863        0.010      344.093       20.666      862.406
06/30/2013  04:28:00     -102.344      -39.134       -4.409       39.054       22.322       14.892     1525.177      498.255      221.774        0.713        0.112      109.571       15.425        0.020      344.042       20.580      862.393
06/30/2013  04:29:00     -119.345      -26.084       -5.960       25.498       21.679       14.690      650.139      469.970      215.798        0.815        0.067      122.162        8.624        0.005      343.863       20.276      862.384
06/30/2013  04:30:00     -113.912      -34.456        3.565       41.007       32.201       20.009     1681.552     1036.876      400.378        0.865        0.156      119.009       17.908        0.023      343.915       20.363      862.381
06/30/2013  04:31:00      -48.311      -38.415        8.233       39.873       24.488       22.311     1589.876      599.642      497.774        0.328        0.134       61.723       21.421        0.120      344.002       20.511      862.384
06/30/2013  04:32:00      -66.920      -23.654        0.404       33.399       29.347       16.007     1115.526      861.224      256.229        0.364        0.112       70.978       17.410        0.060      343.960       20.439      862.379
06/30/2013  04:33:00     -103.670      -35.930       -3.860       14.694       16.488       10.894      215.900      271.860      118.677        0.633        0.030      109.720        6.011        0.003      344.016       20.533      862.370
06/30/2013  04:34:00      -92.474      -31.461       -1.308       26.848       18.182       12.777      720.808      330.601      163.258        0.538        0.061       97.680       12.089        0.015      343.980       20.473      862.360
06/30/2013  04:35:00      -51.805      -41.067        8.535       32.756       25.070       20.173     1072.959      628.488      406.943        0.328        0.105       66.108       20.478        0.096      343.989       20.489      862.356
06/30/2013  04:36:00      -73.658      -63.538        3.319       35.501       28.992       19.676     1260.326      840.538      387.163        0.598        0.124       97.275       16.839        0.030      344.011       20.529      862.353
06/30/2013  04:37:00      -97.234      -60.924        1.315       46.126       32.630       17.773     2127.642     1064.697      315.886        0.834        0.175      114.744       12.785        0.012      343.992       20.495      862.347
06/30/2013  04:38:00      -68.906      -33.911        5.563       51.198       30.847       21.035     2621.267      951.539      442.465        0.497        0.201       76.798       24.398        0.101      343.943       20.410      862.340
06/30/2013  04:39:00      -85.316      -49.493        6.626       47.301       27.228       25.075     2237.379      741.362      628.751        0.669        0.180       98.633       28.819        0.085      343.950       20.423      862.331
06/30/2013  04:40:00      -98.662      -53.971       -1.503       55.400       23.880       23.726     3069.178      570.263      562.927        0.843        0.210      112.459       17.878        0.025      343.917       20.366      862.326
06/30/2013  04:41:00     -141.270      -54.428        5.166       33.350       29.349       19.184     1112.223      861.365      368.039        1.264        0.117      151.392       18.465        0.015      343.876       20.295      862.329
06/30/2013  04:42:00     -127.133      -54.147       -6.153       32.596       25.937       21.534     1062.493      672.734      463.725        1.067        0.110      138.183       20.171        0.021      343.833       20.223      862.338
06/30/2013  04:43:00      -99.765      -58.541        2.354       41.366       34.794       20.027     1711.124     1210.640      401.094        0.835        0.166      115.673       16.748        0.021      343.883       20.309      862.340
06/30/2013  04:44:00      -97.102      -49.504        0.242       52.389       30.149       25.564     2744.644      908.937      653.522        0.809        0.215      108.992       27.123        0.062      343.885       20.310      862.342
06/30/2013  04:45:00     -152.616      -29.193       -5.434       35.380       29.353       22.803     1251.736      861.591      519.977        1.340        0.132      155.383       21.265        0.019      343.847       20.248      862.346
06/30/2013  04:46:00     -158.552      -41.752        2.787       44.413       38.659       26.526     1972.521     1494.528      703.648        1.553        0.209      163.958       26.499        0.026      343.757       20.094      862.340
06/30/2013  04:47:00     -156.349      -57.894        1.508       45.619       43.821       26.848     2081.073     1920.249      720.799        1.626        0.236      166.724       22.558        0.018      343.775       20.124      862.324
06/30/2013  04:48:00     -192.104      -83.073       -4.770       40.974       43.612       23.490     1678.870     1902.011      551.761        2.398        0.207      209.296       16.551        0.006      343.803       20.169      862.306
06/30/2013  04:49:00     -138.798      -40.786       -0.306       49.960       36.595       24.938     2496.022     1339.176      621.918        1.269        0.223      144.666       22.912        0.025      343.731       20.048      862.299
06/30/2013  04:50:00     -147.827      -33.951       -8.566       43.265       37.794       23.217     1871.834     1428.377      539.050        1.346        0.192      151.676       19.986        0.017      343.658       19.925      862.286
06/30/2013  04:51:00     -132.580      -45.087       -6.104       37.947       30.708       21.052     1439.990      942.957      443.185        1.124        0.141      140.036       19.139        0.019      343.648       19.906      862.287
06/30/2013  04:52:00     -125.936      -36.876      -13.158       31.127       26.663       21.954      968.902      710.937      481.960        0.978        0.108      131.224       15.645        0.014      343.633       19.881      862.287
06/30/2013  04:53:00     -160.928      -24.209      -10.254       54.225       42.391       21.994     2940.310     1797.024      483.726        1.590        0.261      162.739       12.891        0.006      343.681       19.962      862.287
06/30/2013  04:54:00     -159.274      -17.902       -8.337       49.509       44.043       30.408     2451.180     1939.792      924.626        1.554        0.266      160.277       27.015        0.028      343.761       20.099      862.291
06/30/2013  04:55:00     -163.521      -45.022       -2.784       57.754       57.820       34.178     3335.564     3343.095     1168.113        1.831        0.392      169.606       30.587        0.033      343.765       20.105      862.290
06/30/2013  04:56:00     -143.491      -22.521       -0.080       56.269       61.286       31.477     3166.246     3755.934      990.776        1.450        0.396      145.248       24.623        0.029      343.863       20.274      862.282
06/30/2013  04:57:00     -191.956      -17.932      -14.695       38.112       39.838       26.599     1452.496     1587.065      707.530        2.057        0.187      192.792       23.768        0.015      343.848       20.248      862.278
06/30/2013  04:58:00     -166.705       -2.150      -11.881       49.889       36.538       23.286     2488.872     1334.990      542.220        1.615        0.218      166.719       21.305        0.016      343.841       20.236      862.288
06/30/2013  04:59:00     -233.808        4.373      -25.806       39.454       43.991       25.579     1556.646     1935.250      654.265        2.975        0.207      233.849       21.426        0.008      344.015       20.529      862.279
06/30/2013  05:00:00     -198.200        4.821      -22.099       50.750       40.969       26.804     2575.592     1678.426      718.466        2.238        0.249      198.258       23.204        0.014      344.023       20.545      862.284
06/30/2013  05:01:00     -169.570       14.849      -16.815       50.545       48.984       29.342     2554.777     2399.423      860.933        1.754        0.291      170.219       26.082        0.023      344.104       20.684      862.291
06/30/2013  05:02:00     -192.872       36.058      -18.797       53.591       40.921       32.470     2872.014     1674.555     1054.270        2.223        0.280      196.213       32.895        0.028      344.255       20.942      862.280
06/30/2013  05:03:00     -213.504       56.810      -21.647       45.672       39.799       28.559     2085.956     1583.924      815.601        2.688        0.224      220.933       23.689        0.011      344.316       21.046      862.283
06/30/2013  05:04:00     -177.942       49.900      -17.181       42.558       37.386       24.993     1811.183     1397.696      624.629        1.914        0.192      184.806       17.165        0.009      344.312       21.041      862.279
06/30/2013  05:05:00     -175.183       61.625      -18.801       44.793       33.002       23.269     2006.400     1089.156      541.465        1.924        0.182      185.706       20.328        0.012      344.380       21.156      862.288
06/30/2013  05:06:00     -133.956       62.519      -10.654       49.356       28.687       22.825     2436.032      822.941      520.993        1.287        0.189      147.827       19.718        0.018      344.332       21.075      862.301
06/30/2013  05:07:00     -112.145        3.510      -14.155       36.226       30.879       23.972     1312.355      953.520      574.639        0.781        0.142      112.200       22.911        0.042      344.288       21.002      862.295
06/30/2013  05:08:00     -121.709      -33.460        1.079       49.415       53.941       27.382     2441.826     2909.630      749.782        1.102        0.305      126.225       23.406        0.034      344.240       20.918      862.307
06/30/2013  05:09:00     -160.223      -80.789      -18.886       33.727       37.506       23.849     1137.519     1406.708      568.756        1.783        0.156      179.439       16.651        0.009      344.100       20.679      862.314
06/30/2013  05:10:00     -130.464      -80.924      -12.571       43.153       32.587       28.049     1862.193     1061.929      786.764        1.372        0.186      153.524       24.445        0.025      343.919       20.370      862.323
06/30/2013  05:11:00     -128.057      -45.089       -8.559       36.064       38.348       20.705     1300.615     1470.589      428.700        1.085        0.160      135.763       13.472        0.010      343.889       20.320      862.332
06/30/2013  05:12:00     -125.206      -34.405       -4.284       52.995       33.212       21.541     2808.447     1103.022      464.035        1.063        0.219      129.847       15.877        0.015      343.847       20.247      862.343
06/30/2013  05:13:00     -110.022      -19.773        0.220       48.445       38.645       23.808     2346.953     1493.445      566.822        0.845        0.220      111.785       19.746        0.031      343.780       20.134      862.363
06/30/2013  05:14:00      -81.631      -21.328        1.550       43.013       29.131       23.545     1850.119      848.631      554.380        0.519        0.163       84.371       24.223        0.082      343.828       20.216      862.365
06/30/2013  05:15:00      -92.299      -19.911       -6.037       39.088       23.961       16.857     1527.890      574.140      284.151        0.567        0.119       94.422       17.205        0.033      343.885       20.311      862.381
06/30/2013  05:16:00      -42.884      -25.553       -4.523       24.617       18.322       12.083      605.992      335.698      145.988        0.180        0.054       49.920       14.286        0.082      343.882       20.304      862.385
06/30/2013  05:17:00      -46.979      -17.141       -9.513       25.392       15.366        9.307      644.746      236.104       86.620        0.178        0.048       50.009        5.404        0.012      343.894       20.327      862.383
06/30/2013  05:18:00      -39.100      -30.074        8.362       34.967       28.645       18.567     1222.708      820.551      344.747        0.245        0.119       49.328       20.916        0.180      343.995       20.500      862.382
06/30/2013  05:19:00      -90.480      -36.861       -0.751       36.658       17.020       14.294     1343.778      289.683      204.314        0.569        0.092       97.700       19.362        0.039      343.998       20.505      862.368
06/30/2013  05:20:00      -97.778      -32.863       -0.844       27.751       17.460       14.523      770.098      304.859      210.921        0.596        0.064      103.152       11.887        0.013      343.977       20.469      862.349
06/30/2013  05:21:00      -81.625      -45.708       -5.764       23.131       16.388       13.182      535.052      268.556      173.766        0.488        0.049       93.551        7.475        0.006      343.893       20.326      862.361
06/30/2013  05:22:00      -71.390      -31.890        2.537       25.272       19.545       13.834      638.658      381.988      191.378        0.367        0.061       78.189       15.408        0.039      343.896       20.332      862.371
06/30/2013  05:23:00      -18.843      -14.543        6.700       34.761       17.865       12.902     1208.315      319.164      166.465        0.115        0.085       23.802       12.491        0.275      343.882       20.306      862.370
06/30/2013  05:24:00      -28.138      -32.729        6.010       25.605       15.173       12.314      655.610      230.224      151.622        0.147        0.052       43.162       11.254        0.068      343.984       20.483      862.369
06/30/2013  05:25:00      -28.392      -39.384       -1.309       24.969       16.473       13.105      623.453      271.356      171.749        0.171        0.053       48.551        6.775        0.019      344.068       20.625      862.381
06/30/2013  05:26:00      -37.925      -78.929       -4.395       33.032       35.259       16.136     1091.118     1243.220      260.376        0.514        0.130       87.568        6.632        0.006      343.986       20.484      862.408
06/30/2013  05:27:00      -60.794      -37.287        0.097       30.850       41.504       15.948      951.722     1722.619      254.335        0.401        0.146       71.318       18.734        0.069      344.044       20.584      862.424
06/30/2013  05:28:00      -67.276      -34.400        0.451       33.333       28.460       18.174     1111.105      809.952      330.289        0.398        0.113       75.561       18.657        0.061      344.006       20.520      862.428
06/30/2013  05:29:00      -87.344      -53.671        3.356       68.412       37.731       26.166     4680.191     1423.614      684.639        0.865        0.339      102.517       20.589        0.040      343.895       20.328      862.438
06/30/2013  05:30:00     -129.005      -83.628        2.423       60.326       45.549       30.747     3639.211     2074.716      945.407        1.515        0.333      153.740       31.595        0.042      343.809       20.181      862.440
06/30/2013  05:31:00     -109.738      -76.534        1.480       45.437       31.519       25.902     2064.546      993.418      670.902        1.081        0.186      133.790       25.835        0.037      343.747       20.076      862.435
06/30/2013  05:32:00      -94.849      -59.407        3.968       39.242       28.183       19.962     1539.966      794.299      398.493        0.764        0.137      111.917       21.024        0.035      343.723       20.037      862.422
06/30/2013  05:33:00     -116.923      -77.415       -1.504       29.420       21.413       14.168      865.554      458.526      200.733        1.060        0.076      140.229       10.255        0.005      343.789       20.148      862.403
06/30/2013  05:34:00     -131.115      -65.200       -1.552       32.023       31.091       20.503     1025.457      966.623      420.358        1.193        0.121      146.432       18.506        0.016      343.749       20.081      862.390
06/30/2013  05:35:00     -119.273      -58.555        2.606       48.834       29.313       21.856     2384.806      859.263      477.686        1.069        0.186      132.872       25.881        0.038      343.733       20.052      862.372
06/30/2013  05:36:00     -105.310      -32.275        2.015       45.845       28.310       25.544     2101.770      801.478      652.519        0.785        0.178      110.145       25.930        0.055      343.764       20.105      862.371
06/30/2013  05:37:00     -130.644      -44.370       -2.192       26.555       25.932       17.792      705.149      672.451      316.548        1.037        0.085      137.973       14.820        0.012      343.780       20.132      862.366
06/30/2013  05:38:00      -57.714      -40.286       11.875       38.039       37.410       18.950     1446.992     1399.517      359.112        0.415        0.160       70.384       20.819        0.087      343.778       20.129      862.362
06/30/2013  05:39:00     -105.055      -36.495       -2.757       19.726       24.934       13.180      389.128      621.725      173.718        0.678        0.059      111.213       10.549        0.009      343.818       20.198      862.365
06/30/2013  05:40:00      -55.543      -23.374        5.099       24.293       18.859       15.332      590.153      355.666      235.067        0.242        0.059       60.261       14.634        0.059      343.750       20.082      862.384
06/30/2013  05:41:00      -70.346      -11.617       -2.383       30.305       18.426       15.316      918.366      339.533      234.570        0.329        0.075       71.299       17.610        0.061      343.561       19.759      862.414
06/30/2013  05:42:00      -58.236      -28.841        4.318       22.249       17.089       13.762      495.033      292.028      189.386        0.261        0.049       64.986       14.163        0.047      343.560       19.758      862.417
06/30/2013  05:43:00      -74.668      -55.019       -9.663       21.001       14.960       13.769      441.030      223.815      189.576        0.477        0.043       92.749        8.814        0.009      343.685       19.969      862.420
06/30/2013  05:44:00      -31.319      -35.199        5.264       27.875       18.849       20.542      777.005      355.293      421.955        0.190        0.078       47.115       13.978        0.088      343.758       20.095      862.424
06/30/2013  05:45:00      -47.555      -70.005       -2.560       60.679       44.954       27.423     3681.903     2020.821      752.018        0.681        0.323       84.630       34.166        0.163      343.745       20.074      862.427
06/30/2013  05:46:00     -116.218     -101.344       -8.309       32.771       34.246       25.097     1073.915     1172.763      629.855        1.336        0.144      154.199       18.327        0.014      343.660       19.927      862.426
06/30/2013  05:47:00      -99.787      -74.505      -12.173       73.223       43.647       33.848     5361.618     1905.076     1145.702        1.203        0.421      124.533       27.069        0.047      343.627       19.871      862.425
06/30/2013  05:48:00      -95.034      -66.894        1.798       74.402       65.603       39.095     5535.723     4303.763     1528.383        1.244        0.568      116.216       44.643        0.148      343.578       19.786      862.418
06/30/2013  05:49:00     -111.668      -70.991       -4.925       53.720       49.730       26.001     2885.788     2473.114      676.046        1.178        0.302      132.324       23.456        0.031      343.548       19.736      862.415
06/30/2013  05:50:00      -82.957      -45.696        1.630       55.329       38.529       29.292     3061.270     1484.463      858.041        0.719        0.270       94.710       32.098        0.115      343.577       19.787      862.419
06/30/2013  05:51:00     -131.161     -101.680       -8.941       21.556       30.802       21.160      464.680      948.741      447.731        1.474        0.093      165.958       15.593        0.009      343.586       19.802      862.423
06/30/2013  05:52:00      -74.208      -54.012        4.474       36.358       33.437       17.051     1321.897     1118.024      290.746        0.559        0.137       91.783       13.908        0.023      343.602       19.829      862.435
06/30/2013  05:53:00      -90.068      -64.798       -5.779       20.899       27.406       13.916      436.786      751.080      193.662        0.686        0.069      110.955       11.281        0.010      343.603       19.830      862.447
06/30/2013  05:54:00      -56.035      -64.544       -1.475       28.002       24.778       18.996      784.085      613.953      360.864        0.453        0.088       85.474       18.420        0.046      343.591       19.811      862.444
06/30/2013  05:55:00      -51.258      -49.935        0.964       36.063       32.930       18.120     1300.511     1084.386      328.328        0.392        0.136       71.560       22.503        0.099      343.621       19.861      862.429
06/30/2013  05:56:00      -58.200      -29.581       -2.823       25.086       13.413       13.655      629.312      179.910      186.468        0.263        0.050       65.286       10.215        0.024      343.613       19.847      862.429
06/30/2013  05:57:00      -24.030      -29.193       -1.507       25.639        9.075       10.899      657.376       82.350      118.784        0.115        0.043       37.811       12.893        0.116      343.658       19.925      862.423
06/30/2013  05:58:00       -7.860      -26.128        3.203       21.355       11.442       17.043      456.047      130.908      290.473        0.082        0.044       27.285        9.669        0.126      343.713       20.019      862.409
06/30/2013  05:59:00      -71.070      -30.483       -5.502       13.618       14.052        8.744      185.457      197.465       76.451        0.323        0.023       77.332        4.610        0.004      343.696       19.988      862.403
06/30/2013  06:00:00      -82.828       -5.647      -10.664       21.057       13.701        9.635      443.386      187.710       92.830        0.386        0.036       83.021        8.564        0.011      343.577       19.787      862.395
06/30/2013  06:01:00      -65.261      -27.856       -6.317       14.332       15.682        9.060      205.401      245.932       82.083        0.280        0.027       70.957        6.706        0.009      343.579       19.789      862.397
06/30/2013  06:02:00      -13.647      -31.920       -7.637       32.161       14.203       19.797     1034.328      201.728      391.932        0.145        0.081       34.715       16.430        0.224      343.663       19.934      862.398
06/30/2013  06:03:00       -2.912      -18.446       -0.563        8.715       17.963        9.869       75.950      322.652       97.398        0.042        0.025       18.675        9.481        0.258      343.747       20.077      862.416
06/30/2013  06:04:00       -2.896      -25.317        5.301       15.485       12.190       10.804      239.782      148.605      116.722        0.059        0.025       25.482       10.312        0.164      343.791       20.152      862.446
06/30/2013  06:05:00      -10.997      -26.965        5.147       26.772       14.749       13.652      716.742      217.533      186.386        0.100        0.056       29.121       11.841        0.165      343.834       20.225      862.482
06/30/2013  06:06:00      -19.203      -26.883       11.641       26.130       34.435       24.056      682.777     1185.793      578.672        0.184        0.122       33.037       25.819        0.611      343.852       20.256      862.518
06/30/2013  06:07:00      -26.032      -23.913       -4.813       31.990       18.496       14.360     1023.342      342.102      206.211        0.142        0.079       35.348       11.580        0.107      343.765       20.110      862.547
06/30/2013  06:08:00      -37.537      -40.268      -20.492       23.628       26.090       16.026      558.296      680.684      256.834        0.247        0.075       55.050        9.614        0.031      343.783       20.138      862.575
06/30/2013  06:09:00      -21.304      -35.380       -8.096       19.186       24.767       18.893      368.101      613.416      356.932        0.155        0.067       41.299        9.053        0.048      343.771       20.119      862.579
06/30/2013  06:10:00      -55.007       -0.411       -6.288       29.060       21.819       17.480      844.491      476.060      305.537        0.235        0.081       55.008       11.637        0.045      343.730       20.048      862.568
06/30/2013  06:11:00      -48.718        8.490       -4.286       31.055       14.671       14.891      964.391      215.247      221.753        0.193        0.070       49.452       12.075        0.060      343.675       19.953      862.550
06/30/2013  06:12:00      -32.591       -8.446        7.153       42.254       16.753       19.226     1785.411      280.676      369.644        0.181        0.122       33.668       23.116        0.471      343.689       19.978      862.528
06/30/2013  06:13:00      -68.710      -22.768       -8.458       34.693       26.886       16.698     1203.602      722.831      278.840        0.376        0.110       72.384       21.388        0.087      343.703       20.000      862.494
06/30/2013  06:14:00      -34.663        5.905       -7.106       14.318       10.591        9.886      205.017      112.161       97.726        0.085        0.021       35.162        8.296        0.056      343.611       19.846      862.467
06/30/2013  06:15:00      -55.539       -5.381       -4.515       14.557       19.215       11.555      211.895      369.230      133.522        0.192        0.036       55.799        9.332        0.028      343.631       19.880      862.455
06/30/2013  06:16:00      -35.189      -32.688       -1.885       13.093       15.918       10.949      171.437      253.382      119.891        0.143        0.027       48.029        7.125        0.022      343.706       20.006      862.449
06/30/2013  06:17:00      -69.672      -31.131       -3.841       19.926       12.547       12.029      397.044      157.429      144.709        0.327        0.035       76.310        6.300        0.007      343.729       20.045      862.456
06/30/2013  06:18:00      -80.092      -47.153       -3.887       15.155       13.741       11.006      229.666      188.804      121.129        0.460        0.027       92.941        7.608        0.007      343.743       20.069      862.459
06/30/2013  06:19:00      -78.662      -36.065       -4.977       13.437       11.817        9.036      180.553      139.637       81.648        0.396        0.020       86.535        6.221        0.005      343.719       20.030      862.481
06/30/2013  06:20:00      -49.276      -17.262       -3.876       19.318       13.546       10.887      373.168      183.482      118.524        0.171        0.034       52.212        7.884        0.023      343.684       19.969      862.499
06/30/2013  06:21:00      -13.597       -6.090        5.493       12.977       14.299       14.202      168.415      204.464      201.707        0.041        0.029       14.898       12.595        0.715      343.997       20.502      862.510
06/30/2013  06:22:00      -14.081        1.985        2.084        8.214        4.544       10.816       67.465       20.645      116.984        0.021        0.010       14.220        6.098        0.184      343.984       20.482      862.523
06/30/2013  06:23:00      -11.709        2.045        6.028        9.116        8.125        9.359       83.096       66.023       87.591        0.021        0.012       11.887        5.813        0.239      344.050       20.593      862.526
06/30/2013  06:24:00      -44.331        2.354       -0.871       13.289       16.975       10.922      176.599      288.137      119.280        0.128        0.029       44.393        6.004        0.018      343.822       20.206      862.517
06/30/2013  06:25:00      -78.587      -20.504       -1.027       14.540       13.764       12.229      211.422      189.455      149.545        0.357        0.028       81.218        9.181        0.013      343.812       20.189      862.513
06/30/2013  06:26:00      -59.779      -28.010        1.213       20.178       12.317       12.048      407.156      151.699      145.155        0.253        0.035       66.015        9.126        0.019      343.851       20.253      862.504
06/30/2013  06:27:00      -26.971      -27.089        0.388       21.414       17.350       13.875      458.550      301.008      192.504        0.121        0.048       38.226       11.682        0.093      343.892       20.325      862.521
06/30/2013  06:28:00      -28.918      -43.549        1.367       25.487       23.801       16.946      649.573      566.503      287.175        0.212        0.075       52.276       17.513        0.112      343.878       20.300      862.531
06/30/2013  06:29:00      -80.953      -98.057      -15.151       14.405       11.680       12.333      207.501      136.414      152.092        0.845        0.025      127.155        8.943        0.005      343.853       20.257      862.537
06/30/2013  06:30:00      -73.065      -69.469       -3.260       39.752       33.081       22.097     1580.199     1094.337      488.287        0.667        0.158      100.819       24.317        0.058      343.809       20.182      862.531
06/30/2013  06:31:00      -81.189      -93.142       -9.057       36.188       24.905       22.340     1309.569      620.257      499.074        0.889        0.121      123.560       17.921        0.021      343.829       20.218      862.515
06/30/2013  06:32:00      -68.855      -90.105       -8.262       36.596       31.513       21.006     1339.251      993.098      441.237        0.785        0.139      113.402       23.409        0.043      343.858       20.265      862.505
06/30/2013  06:33:00      -66.362      -92.913       -6.885       25.139       19.694       16.619      631.983      387.853      276.196        0.719        0.065      114.178        8.076        0.005      343.851       20.255      862.490
06/30/2013  06:34:00      -83.716      -54.251       -0.980       40.331       27.658       20.485     1626.573      764.991      419.616        0.638        0.141       99.757       19.452        0.038      343.862       20.273      862.494
06/30/2013  06:35:00      -75.857      -47.460       -3.263       27.812       20.719       15.073      773.524      429.283      227.202        0.472        0.072       89.480       15.509        0.030      343.933       20.393      862.490
06/30/2013  06:36:00      -79.664      -66.018       -3.571       29.914       36.352       22.250      894.836     1321.470      495.062        0.671        0.136      103.464       21.003        0.041      343.859       20.269      862.501
06/30/2013  06:37:00      -73.767      -83.572       -5.992       27.520       23.559       17.906      757.330      555.045      320.625        0.705        0.082      111.471       11.134        0.010      343.879       20.300      862.501
06/30/2013  06:38:00      -61.677      -65.225       -7.216       40.057       31.721       14.296     1604.554     1006.240      204.369        0.546        0.141       89.769       10.657        0.014      343.871       20.288      862.534
06/30/2013  06:39:00     -101.301      -73.737       -7.097       25.215       25.867       15.916      635.817      669.088      253.308        0.865        0.078      125.296        9.399        0.006      343.831       20.219      862.538
06/30/2013  06:40:00      -89.885      -56.684        0.859       41.524       26.632       20.270     1724.269      709.253      410.878        0.707        0.142      106.265       21.381        0.040      343.883       20.309      862.549
06/30/2013  06:41:00      -73.935      -72.892        2.946       38.903       41.150       19.227     1513.435     1693.282      369.662        0.718        0.179      103.824       17.378        0.028      343.841       20.237      862.554
06/30/2013  06:42:00     -116.190     -108.423      -10.926       39.351       37.345       26.006     1548.533     1394.672      676.298        1.450        0.181      158.921       21.299        0.018      343.820       20.201      862.558
06/30/2013  06:43:00     -109.169     -106.079       -2.717       45.111       41.923       30.862     2035.028     1757.569      952.472        1.396        0.237      152.218       28.917        0.036      343.805       20.177      862.554
06/30/2013  06:44:00     -137.766     -123.346       -3.148       50.074       45.416       30.187     2507.446     2062.584      911.251        1.984        0.274      184.915       29.691        0.026      343.791       20.150      862.558
06/30/2013  06:45:00      -90.448     -110.951       -2.365       33.118       55.616       24.903     1096.786     3093.094      620.151        1.265        0.241      143.146       21.341        0.022      343.846       20.243      862.561
06/30/2013  06:46:00      -91.856     -108.304       -6.434       44.678       30.715       24.187     1996.127      943.440      585.010        1.187        0.176      142.012       21.816        0.024      343.854       20.260      862.567
06/30/2013  06:47:00      -97.583      -76.139       -2.623       41.655       29.855       26.209     1735.154      891.298      686.933        0.932        0.166      123.772       19.364        0.024      343.901       20.340      862.570
06/30/2013  06:48:00      -20.320      -48.103        2.755       39.843       37.415       22.283     1587.464     1399.881      496.525        0.311        0.174       52.219       13.255        0.064      343.993       20.496      862.571
06/30/2013  06:49:00      -74.335      -92.923       -5.854       40.103       48.262       18.510     1608.285     2329.207      342.638        0.924        0.214      118.997       18.772        0.025      343.961       20.443      862.588
06/30/2013  06:50:00      -64.495      -68.863       -2.277       45.576       37.787       23.285     2077.147     1427.886      542.198        0.648        0.202       94.349       18.092        0.037      344.044       20.583      862.580
06/30/2013  06:51:00      -95.700      -65.342       -1.960       48.613       30.471       24.309     2363.247      928.511      590.910        0.866        0.194      115.879       19.557        0.028      344.024       20.550      862.576
06/30/2013  06:52:00     -111.664      -86.393       -1.715       46.652       48.079       30.566     2176.381     2311.568      934.307        1.268        0.271      141.182       31.244        0.049      344.013       20.528      862.558
06/30/2013  06:53:00      -78.462      -77.233        3.161       39.813       43.969       26.230     1585.046     1933.308      688.002        0.817        0.210      110.096       25.013        0.052      344.060       20.611      862.567
06/30/2013  06:54:00     -119.790      -79.625        1.280       49.037       41.103       25.341     2404.628     1689.429      642.187        1.271        0.237      143.839       24.354        0.029      344.053       20.602      862.563
06/30/2013  06:55:00      -94.572      -88.240        4.161       53.755       40.886       25.677     2889.547     1671.631      659.302        1.098        0.261      129.345       24.307        0.035      344.074       20.636      862.565
06/30/2013  06:56:00     -115.684      -82.746       -3.528       53.608       41.671       28.570     2873.792     1736.511      816.224        1.283        0.271      142.231       32.888        0.053      344.111       20.697      862.572
06/30/2013  06:57:00     -132.521     -102.252       -1.624       55.092       50.059       28.257     3035.162     2505.864      798.432        1.718        0.317      167.383       28.751        0.030      344.104       20.684      862.583
06/30/2013  06:58:00     -122.687     -106.998       -7.005       47.884       45.241       31.785     2292.860     2046.758     1010.281        1.595        0.267      162.790       32.122        0.039      344.128       20.729      862.580
06/30/2013  06:59:00      -56.929      -81.406        4.211       48.990       40.603       28.913     2400.045     1648.601      835.987        0.738        0.244       99.337       28.481        0.082      344.173       20.804      862.593
06/30/2013  07:00:00      -73.932      -57.700       -8.208       40.490       52.611       21.955     1639.449     2767.889      482.044        0.688        0.244       93.783       22.086        0.055      344.260       20.952      862.608
06/30/2013  07:01:00      -87.761       20.739        0.013       46.507       37.496       24.213     2162.928     1405.937      586.290        0.614        0.208       90.178       24.817        0.076      344.298       21.017      862.614
06/30/2013  07:02:00     -109.951      -26.939       -8.952       28.819       24.134       16.337      830.560      582.459      266.910        0.729        0.084      113.203       10.225        0.008      344.164       20.789      862.619
06/30/2013  07:03:00      -71.397      -11.534        4.538       32.867       37.864       22.401     1080.221     1433.675      501.786        0.413        0.151       72.323       18.998        0.069      344.205       20.857      862.605
06/30/2013  07:04:00      -74.933      -30.643        2.568       30.087       19.764       18.501      905.237      390.627      342.282        0.410        0.082       80.957       14.135        0.030      344.234       20.906      862.600
06/30/2013  07:05:00      -84.674      -17.960       -4.824       29.418       27.212       13.465      865.390      740.519      181.318        0.465        0.089       86.558       13.670        0.025      344.269       20.967      862.577
06/30/2013  07:06:00      -68.874      -15.259       -0.602       13.409       18.255       11.007      179.811      333.232      121.152        0.281        0.032       70.544        4.632        0.004      344.291       21.007      862.567
06/30/2013  07:07:00      -69.591        0.863        3.625       31.271       24.957       15.955      977.892      622.832      254.563        0.336        0.093       69.597       16.474        0.056      344.438       21.259      862.554
06/30/2013  07:08:00      -60.494      -37.470       -0.120       31.218       21.739       13.832      974.589      472.594      191.332        0.335        0.082       71.159       14.867        0.044      344.343       21.096      862.563
06/30/2013  07:09:00      -69.466      -23.494        2.768       31.826       23.067       15.721     1012.887      532.102      247.158        0.359        0.090       73.331       15.519        0.045      344.492       21.348      862.563
06/30/2013  07:10:00      -26.770      -35.901        5.553       34.909       26.364       19.416     1218.627      695.069      376.994        0.216        0.115       44.783       18.266        0.166      344.618       21.564      862.592
06/30/2013  07:11:00      -25.606      -40.354        5.950       26.705       37.227       15.924      713.135     1385.840      253.578        0.234        0.118       47.793       14.426        0.091      344.692       21.692      862.596
06/30/2013  07:12:00      -69.375      -47.416        6.542       34.873       30.513       22.444     1216.106      931.066      503.717        0.488        0.133       84.031       24.900        0.088      344.555       21.456      862.605
06/30/2013  07:13:00      -55.156      -60.346       -1.069       27.326       22.065       15.015      746.684      486.878      225.447        0.407        0.073       81.755       11.733        0.021      344.472       21.315      862.594
06/30/2013  07:14:00      -34.707      -77.323       -7.704       20.850       20.590       15.105      434.734      423.928      228.151        0.416        0.054       84.755       13.174        0.024      344.460       21.295      862.587
06/30/2013  07:15:00      -23.575      -70.041        0.255       14.536       13.320       11.953      211.304      177.411      142.867        0.300        0.027       73.902        7.302        0.010      344.467       21.305      862.584
06/30/2013  07:16:00      -43.964      -61.821        3.497       26.399       32.329       16.888      696.908     1045.144      285.193        0.390        0.101       75.860       18.306        0.058      344.544       21.438      862.579
06/30/2013  07:17:00      -54.319      -81.626        2.047       31.327       31.425       20.549      981.375      987.506      422.277        0.600        0.120       98.048       16.818        0.029      344.461       21.294      862.584
06/30/2013  07:18:00      -66.771      -76.335       -3.925       41.349       40.253       23.312     1709.766     1620.271      543.436        0.709        0.194      101.417       25.867        0.065      344.521       21.398      862.584
06/30/2013  07:19:00      -87.310      -75.162       -3.135       43.059       31.934       23.476     1854.041     1019.782      551.107        0.835        0.171      115.206       17.333        0.023      344.546       21.442      862.601
06/30/2013  07:20:00      -63.006      -79.358       -0.408       35.203       36.706       21.628     1239.251     1347.358      467.760        0.666        0.153      101.328       19.448        0.037      344.575       21.491      862.622
06/30/2013  07:21:00     -118.806      -96.633       -4.117       49.172       32.290       27.508     2417.846     1042.643      756.697        1.384        0.211      153.143       28.496        0.035      344.625       21.576      862.637
06/30/2013  07:22:00     -116.781      -76.674        6.011       56.967       52.805       28.123     3245.268     2788.384      790.895        1.319        0.341      139.702       27.552        0.039      344.630       21.585      862.657
06/30/2013  07:23:00     -107.638      -51.867        8.702       54.956       46.342       29.829     3020.200     2147.564      889.763        1.020        0.303      119.482       29.958        0.063      344.644       21.610      862.665
06/30/2013  07:24:00      -58.025      -73.146       12.890       38.973       64.184       24.959     1518.905     4119.593      622.954        0.757        0.313       93.366       24.781        0.070      344.746       21.782      862.675
06/30/2013  07:25:00      -86.784      -53.772        4.892       29.124       53.429       25.515      848.213     2854.614      651.009        0.740        0.218      102.093       24.305        0.057      344.658       21.632      862.653
06/30/2013  07:26:00      -66.409      -44.849       -0.107       26.136       22.025       22.593      683.091      485.120      510.444        0.405        0.084       80.134       15.071        0.035      344.746       21.781      862.646
06/30/2013  07:27:00      -40.717      -19.466       -0.752       32.807       28.183       22.065     1076.314      794.273      486.863        0.220        0.118       45.130       19.225        0.181      345.029       22.268      862.639
06/30/2013  07:28:00      -65.240      -35.844       -1.003       42.764       23.896       18.949     1828.797      571.029      359.077        0.415        0.138       74.439       20.442        0.075      344.783       21.847      862.625
06/30/2013  07:29:00      -72.868      -21.075        4.023       32.183       34.299       21.480     1035.716     1176.439      461.410        0.422        0.134       75.855       15.340        0.041      344.804       21.884      862.627
06/30/2013  07:30:00      -83.882      -17.145        5.813       36.930       39.785       20.634     1363.790     1582.858      425.769        0.537        0.169       85.616       21.428        0.063      344.748       21.786      862.619
06/30/2013  07:31:00      -81.810      -35.611       -6.114       25.896       27.488       16.702      670.628      755.586      278.956        0.485        0.085       89.224       14.245        0.025      344.824       21.917      862.620
06/30/2013  07:32:00      -51.494      -66.788       -2.100       29.214       22.968       20.184      853.465      527.545      407.387        0.445        0.089       84.334       16.396        0.038      344.885       22.021      862.622
06/30/2013  07:33:00      -53.336      -63.840        1.654       36.787       32.204       19.947     1353.313     1037.109      397.885        0.486        0.139       83.188       20.044        0.058      344.984       22.192      862.612
06/30/2013  07:34:00      -75.145      -62.798       -5.932       53.615       32.095       20.264     2874.587     1030.059      410.622        0.697        0.216       97.931       24.189        0.061      344.988       22.198      862.619
06/30/2013  07:35:00      -54.542      -43.667        6.098       46.367       28.944       25.977     2149.884      837.781      674.796        0.429        0.183       69.869       28.623        0.168      345.163       22.498      862.621
06/30/2013  07:36:00      -32.548      -59.346        8.831       23.522       21.123       20.313      553.283      446.170      412.599        0.304        0.071       67.686       13.894        0.042      345.047       22.298      862.631
06/30/2013  07:37:00      -49.205      -55.600        4.752       27.569       29.570       16.365      760.057      874.375      267.823        0.372        0.095       74.246       16.021        0.047      345.081       22.357      862.629
06/30/2013  07:38:00      -61.605      -57.935       -2.513       31.537       21.787       17.875      994.565      474.680      319.509        0.447        0.089       84.567       17.486        0.043      345.109       22.406      862.639
06/30/2013  07:39:00      -52.694      -49.798       -0.615       34.978       15.925       13.658     1223.440      253.615      186.546        0.346        0.083       72.502       16.805        0.054      345.127       22.438      862.646
06/30/2013  07:40:00      -51.401      -38.881        6.854       36.703       25.276       17.148     1347.141      638.868      294.040        0.324        0.114       64.450       20.813        0.104      345.277       22.693      862.646
06/30/2013  07:41:00      -59.106      -43.837        1.824       29.364       29.107       16.577      862.243      847.190      274.794        0.370        0.099       73.588       20.821        0.080      345.277       22.693      862.657
06/30/2013  07:42:00      -46.125      -49.941       -1.793       15.227       19.862       13.343      231.848      394.494      178.041        0.271        0.040       67.982       12.079        0.032      345.280       22.699      862.657
06/30/2013  07:43:00      -35.961      -19.214       -2.699       19.817       21.697       11.909      392.726      470.773      141.827        0.134        0.050       40.772        9.285        0.052      345.289       22.712      862.661
06/30/2013  07:44:00      -21.239       -4.616        4.957       12.689        8.339       11.162      161.020       69.542      124.583        0.043        0.018       21.734        7.375        0.115      345.570       23.194      862.669
06/30/2013  07:45:00      -27.259      -34.024        1.907       15.629       25.448       10.504      244.255      647.581      110.333        0.145        0.050       43.597        8.436        0.037      345.322       22.769      862.669
06/30/2013  07:46:00      -14.585      -49.384       -3.210        6.540       15.647        5.887       42.774      244.831       34.661        0.149        0.016       51.493        4.008        0.006      345.216       22.586      862.681
06/30/2013  07:47:00      -18.960      -32.265       -1.348        6.903        7.921        5.638       47.652       62.743       31.788        0.077        0.007       37.424        3.738        0.010      345.291       22.716      862.687
06/30/2013  07:48:00      -22.264      -28.172        3.161       12.573       12.265       11.155      158.092      150.426      124.440        0.087        0.022       35.908        8.027        0.050      345.514       23.100      862.698
06/30/2013  07:49:00      -19.108      -27.660        4.467       13.107       12.633        9.770      171.791      159.597       95.455        0.079        0.021       33.619        8.791        0.068      345.624       23.288      862.718
06/30/2013  07:50:00      -28.499      -61.361        2.406       18.112       30.798       15.266      328.029      948.531      233.047        0.305        0.075       67.657        8.773        0.017      345.389       22.883      862.730
06/30/2013  07:51:00      -26.040      -34.446        2.999       19.629       20.651       14.457      385.291      426.447      209.013        0.145        0.051       43.181       14.002        0.105      345.629       23.296      862.732
06/30/2013  07:52:00      -38.451      -28.926        2.902       17.224       16.339       16.203      296.683      266.954      262.523        0.157        0.041       48.116       11.700        0.059      345.504       23.081      862.730
06/30/2013  07:53:00      -22.175       -6.377        0.376       14.725       10.906       11.028      216.826      118.934      121.621        0.049        0.023       23.074        6.339        0.075      345.698       23.414      862.724
06/30/2013  07:54:00      -15.792      -25.129        5.693       17.426       13.640       10.892      303.654      186.039      118.642        0.076        0.030       29.680       10.333        0.121      345.631       23.301      862.722
06/30/2013  07:55:00      -30.393      -13.441        0.353       15.339       13.234        9.438      235.274      175.152       89.073        0.080        0.025       33.232        7.244        0.048      345.578       23.208      862.718
06/30/2013  07:56:00      -35.453      -19.527       -0.225       25.724       18.515       12.603      661.702      342.808      158.831        0.140        0.058       40.475        9.831        0.059      345.646       23.326      862.716
06/30/2013  07:57:00      -47.923      -20.709       -0.164       25.642       16.703       10.552      657.488      278.983      111.350        0.189        0.052       52.206        8.472        0.026      345.600       23.246      862.715
06/30/2013  07:58:00      -37.559      -19.322        0.108       15.558       24.405       12.181      242.043      595.605      148.372        0.138        0.049       42.237        8.079        0.037      345.534       23.134      862.718
06/30/2013  07:59:00      -43.939       -1.328       -4.903       19.774       20.717       15.087      391.022      429.193      227.607        0.150        0.052       43.959       13.044        0.088      345.585       23.220      862.729
06/30/2013  08:00:00      -21.826      -19.552        6.946       18.139       19.026       15.086      329.039      361.970      227.597        0.091        0.046       29.302       14.531        0.246      346.026       23.978      862.729
06/30/2013  08:01:00      -28.419       -7.865       10.038       23.210       20.984       19.326      538.713      440.331      373.483        0.116        0.068       29.488       13.877        0.221      346.144       24.182      862.731
06/30/2013  08:02:00      -46.273      -27.267        0.849       17.408       18.393       13.957      303.022      338.292      194.797        0.186        0.042       53.709       10.810        0.041      345.714       23.441      862.739
06/30/2013  08:03:00      -26.690       -9.243        6.666       10.453       14.809       13.008      109.258      219.307      169.198        0.067        0.025       28.245       11.801        0.175      345.955       23.855      862.747
06/30/2013  08:04:00      -34.419       -6.862       -1.116       10.783        7.031        6.809      116.284       49.439       46.368        0.072        0.011       35.096        3.962        0.013      345.666       23.361      862.742
06/30/2013  08:05:00      -24.466        1.040       -3.982        6.920        5.073        5.786       47.891       25.736       33.479        0.036        0.005       24.488        3.218        0.017      345.681       23.385      862.742
06/30/2013  08:06:00      -15.358        5.944       -3.948        9.295        5.800        6.489       86.388       33.640       42.110        0.022        0.008       16.468        4.290        0.068      345.764       23.527      862.743
06/30/2013  08:07:00      -27.762      -35.409       -3.413       13.209       22.195        8.477      174.473      492.627       71.854        0.139        0.037       44.995        8.718        0.038      345.715       23.443      862.738
06/30/2013  08:08:00      -28.964      -31.429        2.425       21.101       14.204       10.464      445.267      201.742      109.495        0.129        0.038       42.740        8.383        0.038      345.794       23.580      862.739
06/30/2013  08:09:00      -26.049      -30.530        1.224       17.584       12.703        9.959      309.187      161.360       99.175        0.109        0.028       40.133        5.788        0.021      345.842       23.665      862.739
06/30/2013  08:10:00      -18.090      -42.576        3.517        9.026       16.898        7.680       81.474      285.532       58.979        0.129        0.021       46.260        3.821        0.007      345.737       23.480      862.741
06/30/2013  08:11:00      -22.156      -39.935        2.407       13.086        9.096       10.830      171.246       82.745      117.284        0.123        0.019       45.669        9.210        0.041      345.766       23.532      862.748
06/30/2013  08:12:00      -29.715      -12.969        7.496       14.911       27.182       24.307      222.325      738.854      590.848        0.133        0.078       32.422       24.249        0.559      346.132       24.160      862.751
06/30/2013  08:13:00      -11.075       29.285       34.810       17.558       27.089       19.808      308.273      733.821      392.374        0.181        0.072       31.309        9.757        0.097      346.728       25.185      862.755
06/30/2013  08:14:00       -2.443       -5.505       34.842       11.037       19.185       13.567      121.822      368.077      184.057        0.096        0.034        6.023       10.984        3.326      346.926       25.526      862.746
06/30/2013  08:15:00       11.952      -26.539       15.743       20.429       27.990       23.743      417.353      783.412      563.730        0.143        0.088       29.106       21.761        0.559      346.645       25.044      862.735
06/30/2013  08:16:00       -0.129      -23.228       11.252       21.642       20.125       15.049      468.371      405.028      226.467        0.088        0.055       23.229       10.326        0.198      346.081       24.073      862.739
06/30/2013  08:17:00        9.962        0.765       25.609       16.154       18.667       22.303      260.948      348.471      497.417        0.093        0.055        9.991       13.551        1.840      346.973       25.607      862.737
06/30/2013  08:18:00      -13.709      -29.910       12.107       15.684       34.108       22.293      245.984     1163.353      496.963        0.157        0.095       32.902       22.576        0.471      346.478       24.756      862.745
06/30/2013  08:19:00      -25.186      -30.854       11.022       21.504       14.416       10.534      462.424      207.834      110.962        0.124        0.039       39.829        5.701        0.020      346.134       24.163      862.744
06/30/2013  08:20:00      -34.024      -31.946        5.398       25.929       19.866       17.171      672.300      394.667      294.842        0.178        0.068       46.671        7.825        0.028      345.976       23.890      862.744
06/30/2013  08:21:00      -27.808      -13.766        9.664       14.405       20.324       16.953      207.501      413.080      287.389        0.098        0.045       31.028       15.205        0.240      346.140       24.172      862.746
06/30/2013  08:22:00       -8.345       -0.332       30.308       12.680       11.528       13.138      160.772      132.897      172.595        0.073        0.023        8.351        9.321        1.246      347.431       26.397      862.739
06/30/2013  08:23:00       -3.717       -5.618       27.345       18.732       21.872       14.224      350.878      478.404      202.326        0.091        0.052        6.736        9.404        1.949      346.960       25.583      862.734
06/30/2013  08:24:00      -23.617        7.190        8.077       12.488        8.269       13.263      155.955       68.372      175.907        0.054        0.020       24.687        9.392        0.145      346.615       24.992      862.737
06/30/2013  08:25:00      -36.428       19.477        9.659       18.609       14.207       16.594      346.300      201.829      275.356        0.131        0.041       41.308        8.917        0.047      346.520       24.828      862.731
06/30/2013  08:26:00        9.817       -4.461       14.455       32.005       19.621       21.017     1024.295      384.986      441.730        0.109        0.093       10.784       15.387        2.036      346.968       25.599      862.736
06/30/2013  08:27:00        2.097      -23.334        9.003       13.803       18.636       18.420      190.513      347.300      339.313        0.075        0.044       23.428       14.795        0.399      346.807       25.323      862.733
06/30/2013  08:28:00      -16.651      -47.664        5.517       15.942       17.369       11.809      254.155      301.698      139.443        0.164        0.035       50.489        9.755        0.037      346.354       24.539      862.736
06/30/2013  08:29:00      -48.662      -70.105       -0.764       19.620       18.398       12.960      384.943      338.483      167.968        0.409        0.045       85.339        8.864        0.011      346.315       24.473      862.738
06/30/2013  08:30:00      -33.709      -21.735       11.403       23.812       24.921       19.933      567.009      621.036      397.327        0.166        0.079       40.109       20.405        0.259      347.133       25.883      862.740
06/30/2013  08:31:00        1.447       -3.059       11.673       29.830       22.348       24.459      889.856      499.438      598.239        0.107        0.099        3.384       14.699       18.868      347.197       25.992      862.736
06/30/2013  08:32:00      -21.046      -58.502        9.011       20.401       31.804       21.792      416.192     1011.503      474.873        0.292        0.095       62.173       17.067        0.075      346.685       25.112      862.730
06/30/2013  08:33:00      -14.883      -77.574        2.311       16.256       26.556       15.837      264.242      705.219      250.795        0.373        0.061       78.988        8.800        0.012      346.492       24.779      862.714
06/30/2013  08:34:00      -29.701      -54.265        5.725       23.114       30.656       19.196      534.257      939.816      368.506        0.285        0.092       61.861       14.375        0.054      346.744       25.210      862.692
06/30/2013  08:35:00      -57.380     -111.274       -8.562       38.521       31.844       23.565     1483.833     1014.049      555.290        0.940        0.153      125.197        9.717        0.006      346.600       24.965      862.680
06/30/2013  08:36:00      -91.662      -34.776        4.344       46.227       47.390       28.523     2136.979     2245.835      813.539        0.741        0.260       98.038       29.778        0.092      346.667       25.078      862.665
06/30/2013  08:37:00      -28.068     -103.193        8.399       10.909       14.270       13.579      119.009      203.635      184.398        0.601        0.025      106.942        8.995        0.007      346.512       24.812      862.660
06/30/2013  08:38:00      -24.106     -100.775        8.472       11.569       17.904       13.654      133.847      320.545      186.435        0.572        0.032      103.618        8.580        0.007      346.587       24.943      862.643
06/30/2013  08:39:00      -37.580      -88.776        2.745       21.068       20.881       12.195      443.847      436.006      148.709        0.516        0.051       96.402       11.456        0.014      346.642       25.036      862.639
06/30/2013  08:40:00      -48.920      -66.573       -1.427       13.050       27.944       12.568      170.291      780.872      157.947        0.397        0.055       82.615       10.910        0.017      346.775       25.264      862.634
06/30/2013  08:41:00      -80.516      -73.038        1.251       50.743       35.055       27.436     2574.821     1228.880      752.727        0.819        0.228      108.708       28.482        0.069      346.847       25.388      862.640
06/30/2013  08:42:00      -77.803      -85.227       -9.068       24.655       20.049       16.594      607.886      401.970      275.358        0.734        0.064      115.399        8.173        0.005      346.687       25.114      862.641
06/30/2013  08:43:00      -81.231      -48.318       -3.614       26.074       22.762       17.718      679.868      518.095      313.940        0.523        0.076       94.515       12.649        0.018      346.815       25.333      862.646
06/30/2013  08:44:00      -38.674      -27.475       -6.128       27.429       16.985       10.800      752.343      288.473      116.648        0.172        0.058       47.440        7.145        0.023      346.833       25.364      862.641
06/30/2013  08:45:00      -77.549      -18.799       -2.343       31.213       19.602       13.910      974.250      384.246      193.490        0.396        0.078       79.796       16.207        0.041      346.830       25.361      862.627
06/30/2013  08:46:00      -38.819       -8.840       -2.986       21.772       17.431       16.597      474.019      303.825      275.470        0.132        0.053       39.812       13.315        0.112      346.939       25.548      862.625
06/30/2013  08:47:00      -27.502       15.488       17.360       15.004       17.781       24.268      225.119      316.178      588.916        0.121        0.057       31.563       15.869        0.253      347.471       26.468      862.607
06/30/2013  08:48:00      -24.508        1.992        4.999       12.016        9.810       12.090      144.379       96.239      146.161        0.051        0.019       24.589        7.336        0.089      347.280       26.134      862.601
06/30/2013  08:49:00      -19.655       -3.046        9.270       13.489       13.987       16.238      181.956      195.637      263.679        0.056        0.032       19.890        9.172        0.213      347.587       26.665      862.596
06/30/2013  08:50:00      -17.689      -34.891        2.630       21.578       26.668       18.938      465.603      711.173      358.631        0.154        0.077       39.118       11.710        0.090      347.016       25.681      862.598
06/30/2013  08:51:00      -43.570       -1.867        1.670       34.415       15.835       18.583     1184.390      250.756      345.321        0.184        0.089       43.610       14.805        0.115      347.056       25.748      862.593
06/30/2013  08:52:00      -33.864      -51.843        2.769       31.274       50.290       23.855      978.041     2529.039      569.062        0.396        0.204       61.923       18.021        0.085      347.036       25.715      862.584
06/30/2013  08:53:00      -57.857        4.508        1.410       34.066       28.320       12.429     1160.516      802.034      154.489        0.274        0.106       58.032       14.953        0.066      347.069       25.771      862.584
06/30/2013  08:54:00      -75.623       30.667        7.850       53.845       25.125       21.703     2899.256      631.290      471.017        0.536        0.200       81.604       28.164        0.119      347.376       26.302      862.579
06/30/2013  08:55:00      -48.155       20.037       -2.420       22.129       13.924       17.376      489.672      193.888      301.922        0.186        0.049       52.158        8.537        0.027      347.168       25.942      862.577
06/30/2013  08:56:00      -68.053       20.067        4.285       29.066       19.702       17.723      844.845      388.188      314.111        0.330        0.077       70.950       12.413        0.031      347.224       26.037      862.577
06/30/2013  08:57:00      -51.408       12.669       -2.733       20.825       24.124       18.955      433.700      581.967      359.309        0.209        0.069       52.946       13.793        0.068      347.360       26.274      862.584
06/30/2013  08:58:00      -13.279       -3.498       -2.520       42.670       16.121       23.571     1820.687      259.890      555.570        0.142        0.132       13.732       18.035        1.725      347.538       26.581      862.585
06/30/2013  08:59:00       16.054        5.630       26.471       33.289       25.652       19.704     1108.188      658.006      388.240        0.157        0.108       17.013        9.885        0.338      348.125       27.595      862.581
06/30/2013  09:00:00       27.127      -24.382       28.649       32.329       30.916       24.665     1045.196      955.782      608.362        0.238        0.130       36.474       18.674        0.262      347.525       26.557      862.580
06/30/2013  09:01:00       18.125       -3.331       22.822       27.875       48.654       33.765      777.038     2367.178     1140.084        0.257        0.214       18.429       28.568        2.403      347.784       27.006      862.571
06/30/2013  09:02:00       17.343      -10.487       22.084       20.512       30.288       34.305      420.759      917.338     1176.817        0.171        0.126       20.268       23.177        1.308      347.949       27.292      862.564
06/30/2013  09:03:00       28.904      -57.585       22.565       31.052       38.086       31.274      964.210     1450.550      978.056        0.403        0.170       64.432       19.115        0.088      347.321       26.207      862.550
06/30/2013  09:04:00       27.240        2.179       19.757       21.350       25.149       24.491      455.826      632.488      599.824        0.141        0.084       27.327        4.673        0.029      347.579       26.651      862.548
06/30/2013  09:05:00       44.166       18.117       25.706       30.278       38.549       33.591      916.743     1486.058     1128.352        0.323        0.177       47.738       16.964        0.126      347.462       26.449      862.540
06/30/2013  09:06:00       27.440       -0.807       27.356       43.809       30.734       33.298     1919.261      944.567     1108.726        0.274        0.199       27.451       16.569        0.364      348.003       27.383      862.526
06/30/2013  09:07:00       36.329       13.797       18.264       37.559       38.099       48.055     1410.665     1451.499     2309.310        0.351        0.259       38.860       31.525        0.658      347.815       27.059      862.531
06/30/2013  09:08:00        3.023       15.689       21.626       21.606       29.882       18.126      466.831      892.949      328.539        0.121        0.084       15.977       11.378        0.507      348.047       27.459      862.523
06/30/2013  09:09:00       29.365       -5.256       10.330       32.873       31.340       33.852     1080.602      982.197     1145.956        0.210        0.160       29.831       23.533        0.622      348.035       27.439      862.527
06/30/2013  09:10:00       24.197       29.825       30.607       31.373       20.609       20.836      984.244      424.724      434.154        0.213        0.092       38.406       19.241        0.251      348.282       27.864      862.519
06/30/2013  09:11:00       15.640       33.455       13.297       28.545       30.098       23.358      814.829      905.916      545.575        0.190        0.113       36.930       20.072        0.295      348.265       27.836      862.510
06/30/2013  09:12:00       -5.406        6.862       31.299       18.083       26.241       16.414      327.007      688.592      269.419        0.117        0.064        8.736        8.205        0.882      348.687       28.567      862.500
06/30/2013  09:13:00        4.849      -41.456       18.690       23.523       28.385       28.455      553.316      805.727      809.664        0.213        0.108       41.738       15.586        0.139      347.789       27.014      862.490
06/30/2013  09:14:00       16.395      -31.282       16.729       20.393       35.945       33.219      415.890     1292.026     1103.529        0.217        0.141       35.318       28.660        0.659      348.064       27.492      862.468
06/30/2013  09:15:00       22.562       10.295       45.768       32.254       19.475       20.574     1040.333      379.289      423.274        0.228        0.092       24.800       16.647        0.451      348.175       27.680      862.459
06/30/2013  09:16:00       10.346      -17.763        9.254       29.995       22.646       25.977      899.676      512.841      674.787        0.130        0.104       20.556       13.106        0.406      347.855       27.127      862.453
06/30/2013  09:17:00      -20.745      -28.934        5.555       35.793       36.694       30.741     1281.161     1346.453      944.985        0.243        0.179       35.603       18.289        0.264      347.967       27.322      862.441
06/30/2013  09:18:00      -94.773      -53.898        1.445       44.880       38.183       26.508     2014.239     1457.950      702.652        0.803        0.209      109.027       23.802        0.048      347.739       26.927      862.443
06/30/2013  09:19:00      -75.107      -40.238        4.160       34.101       30.364       20.853     1162.894      921.944      434.842        0.490        0.126       85.207       21.462        0.063      347.798       27.028      862.439
06/30/2013  09:20:00      -26.283      -18.797       21.177       36.425       26.068       18.839     1326.795      679.541      354.926        0.193        0.118       32.313       19.105        0.350      348.056       27.475      862.438
06/30/2013  09:21:00      -30.506       15.812       14.787       26.919       27.777       25.406      724.644      771.550      645.450        0.177        0.107       34.360       18.841        0.301      348.348       27.980      862.428
06/30/2013  09:22:00      -29.075       -5.529       10.825       30.465       25.003       21.452      928.126      625.158      460.167        0.150        0.101       29.596       18.005        0.370      348.520       28.277      862.399
06/30/2013  09:23:00      -51.041      -55.178       -5.052       57.163       23.946       20.734     3267.655      573.409      429.882        0.497        0.214       75.165       22.422        0.089      347.882       27.175      862.388
06/30/2013  09:24:00      -47.947      -66.319        0.294       43.228       34.458       21.161     1868.667     1187.331      447.781        0.510        0.175       81.836       17.497        0.046      347.898       27.202      862.370
06/30/2013  09:25:00      -58.608      -86.911        1.110       19.136       23.358       16.923      366.204      545.576      286.381        0.609        0.060      104.826       14.628        0.019      347.741       26.927      862.361
06/30/2013  09:26:00       -4.284      -76.661       -2.548       37.298       25.177       15.225     1391.141      633.866      231.801        0.408        0.113       76.781       16.620        0.047      347.727       26.907      862.363
06/30/2013  09:27:00      -51.830      -30.657        4.576       24.498       25.060       20.649      600.158      627.984      426.370        0.265        0.083       60.218       16.797        0.078      347.968       27.321      862.354
06/30/2013  09:28:00      -53.613       -1.891       -7.747       13.382       12.722        9.557      179.091      161.843       91.332        0.168        0.022       53.646        6.521        0.015      347.811       27.050      862.340
06/30/2013  09:29:00      -74.805       28.003       -6.404       22.294       17.340       15.848      497.038      300.693      251.171        0.373        0.052       79.875       11.988        0.023      347.869       27.152      862.326
06/30/2013  09:30:00      -40.287       15.119       14.439       22.898       15.117       20.745      524.314      228.533      430.340        0.162        0.059       43.030       17.605        0.167      348.397       28.067      862.306
06/30/2013  09:31:00      -21.939      -18.296       10.036       28.213       22.766       21.925      795.960      518.269      480.720        0.136        0.090       28.567       13.551        0.225      348.238       27.790      862.281
06/30/2013  09:32:00      -11.195      -18.549       14.370       18.658       24.057       17.559      348.126      578.743      308.334        0.096        0.062       21.666       11.166        0.266      348.885       28.910      862.264
06/30/2013  09:33:00      -34.121      -37.409        3.019       24.861       25.357       17.070      618.090      642.997      291.376        0.206        0.078       50.632       15.173        0.090      348.246       27.801      862.261
06/30/2013  09:34:00      -39.765      -50.862        5.914       35.034       32.061       25.362     1227.414     1027.885      643.237        0.355        0.145       64.561       23.973        0.138      348.329       27.946      862.253
06/30/2013  09:35:00       -6.361      -25.804       13.262       30.475       25.709       27.768      928.718      660.943      771.080        0.162        0.118       26.576       20.387        0.588      348.673       28.542      862.249
06/30/2013  09:36:00        1.289        4.389       38.619       29.583       35.260       23.698      875.148     1243.275      561.609        0.210        0.134        4.574       20.639       20.358      349.276       29.586      862.242
06/30/2013  09:37:00      -39.724      -23.112       15.686       62.762       42.901       32.837     3939.097     1840.501     1078.262        0.461        0.343       45.958       31.136        0.459      348.594       28.405      862.221
06/30/2013  09:38:00      -82.701      -74.567        9.502       45.591       41.150       27.522     2078.535     1693.359      757.456        0.851        0.226      111.354       28.312        0.065      348.208       27.736      862.212
06/30/2013  09:39:00      -56.799      -38.579        3.760       56.649       41.067       27.320     3209.089     1686.469      746.382        0.518        0.282       68.661       30.253        0.194      348.366       28.010      862.209
06/30/2013  09:40:00      -44.606      -32.537        8.236       35.531       33.662       24.917     1262.462     1133.154      620.859        0.307        0.151       55.212       22.648        0.168      348.486       28.218      862.197
06/30/2013  09:41:00      -33.384      -22.203        3.388       20.286       14.661       10.102      411.541      214.945      102.051        0.117        0.036       40.093        6.918        0.030      348.285       27.869      862.192
06/30/2013  09:42:00      -28.513        4.507        4.029       15.278       27.974       11.366      233.409      782.572      129.186        0.100        0.057       28.867        7.231        0.063      348.331       27.948      862.177
06/30/2013  09:43:00      -23.076       10.929       17.390       23.808       16.915       14.136      566.799      286.131      199.838        0.100        0.053       25.533        5.297        0.043      348.748       28.671      862.161
06/30/2013  09:44:00       11.682       10.853       28.222       30.271       19.140       17.999      916.335      366.352      323.947        0.133        0.080       15.945       15.356        0.927      349.222       29.493      862.149
06/30/2013  09:45:00        6.536      -13.586        8.968       20.979       22.663       26.352      440.106      513.608      694.445        0.098        0.082       15.076       16.128        1.144      348.761       28.693      862.130
06/30/2013  09:46:00       19.436       21.938       13.306       44.602       34.019       22.158     1989.304     1157.262      490.973        0.234        0.182       29.309       12.088        0.170      348.910       28.951      862.112
06/30/2013  09:47:00       79.703       55.980       15.392       47.806       33.885       33.766     2285.448     1148.187     1140.162        0.715        0.229       97.398       23.835        0.060      348.638       28.481      862.093
06/30/2013  09:48:00      133.791       72.742       26.441       37.025       30.327       29.942     1370.879      919.723      896.510        1.354        0.159      152.287       13.043        0.007      348.445       28.146      862.080
06/30/2013  09:49:00       79.158       49.770       17.381       43.922       38.826       30.465     1929.173     1507.466      928.125        0.670        0.218       93.504        8.603        0.008      348.656       28.510      862.062
06/30/2013  09:50:00       67.737       59.827       61.275       55.050       32.669       30.689     3030.529     1067.280      941.818        0.848        0.252       90.375       29.940        0.110      348.539       28.309      862.056
06/30/2013  09:51:00       21.208       24.188       -0.349       55.337       30.862       22.717     3062.216      952.470      516.045        0.278        0.227       32.168       14.172        0.194      348.335       27.956      862.050
06/30/2013  09:52:00       35.441       11.289       45.996       35.690       17.083       21.949     1273.810      291.834      481.746        0.277        0.102       37.196        9.351        0.063      348.790       28.742      862.040
06/30/2013  09:53:00       16.266       25.736       29.090       39.187       40.956       25.774     1535.630     1677.420      664.291        0.282        0.194       30.445       22.826        0.562      349.064       29.219      862.030
06/30/2013  09:54:00       -8.944      -25.530       -0.821       38.615       29.974       27.334     1491.150      898.421      747.153        0.193        0.157       27.052       20.534        0.576      348.061       27.482      862.027
06/30/2013  09:55:00       -1.332        3.021       43.981       28.533       36.929       21.466      814.105     1363.730      460.771        0.229        0.132        3.302       16.405       24.687      349.155       29.376      862.012
06/30/2013  09:56:00       18.102      -49.162       29.219       27.695       39.822       29.769      767.004     1585.766      886.183        0.342        0.162       52.389       18.360        0.123      348.789       28.743      862.007
06/30/2013  09:57:00       34.021      -12.823       34.763       28.753       38.875       21.156      826.747     1511.302      447.560        0.266        0.139       36.357       18.404        0.256      348.611       28.434      861.996
06/30/2013  09:58:00       18.391      -27.907        5.920       21.344       43.967       23.102      455.548     1933.103      533.693        0.204        0.146       33.422       16.838        0.254      348.549       28.326      861.982
06/30/2013  09:59:00       -7.647      -69.144       -4.269       17.140       29.668       16.461      293.774      880.208      270.956        0.315        0.072       69.565       14.328        0.042      348.353       27.986      861.970
06/30/2013  10:00:00        0.337        9.798       28.832       26.685       25.104       28.640      712.116      630.214      820.274        0.154        0.108        9.804       20.733        4.472      349.213       29.476      861.945
06/30/2013  10:01:00       13.624        8.103        8.480       39.197       33.890       32.137     1536.404     1148.518     1032.759        0.202        0.186       15.851       18.069        1.299      348.627       28.461      861.943
06/30/2013  10:02:00       27.826       13.389       21.291       38.160       24.074       21.047     1456.159      579.534      442.983        0.194        0.124       30.880        8.126        0.069      348.972       29.057      861.939
06/30/2013  10:03:00       39.253       -9.656       18.925       43.875       41.915       35.982     1925.048     1756.856     1294.735        0.348        0.249       40.423       34.577        0.732      348.798       28.758      861.929
06/30/2013  10:04:00       57.555       39.829       48.782       54.055       59.365       37.832     2921.940     3524.157     1431.239        0.758        0.394       69.992       37.621        0.289      348.697       28.582      861.916
06/30/2013  10:05:00      139.811       74.721       26.727       44.463       40.546       41.286     1976.978     1644.012     1704.528        1.558        0.266      158.526       24.671        0.024      348.525       28.285      861.922
06/30/2013  10:06:00       79.729       79.297        8.309       49.910       34.700       29.883     2491.008     1204.056      893.016        0.865        0.229      112.449       21.779        0.038      348.891       28.917      861.920
06/30/2013  10:07:00       20.565       53.389       -1.571       34.940       31.046       31.546     1220.787      963.866      995.135        0.323        0.159       57.213       23.020        0.162      349.082       29.249      861.905
06/30/2013  10:08:00      -19.335       55.481        9.697       22.315       34.421       30.216      497.948     1184.785      913.015        0.307        0.130       58.753       29.439        0.251      349.654       30.241      861.895
06/30/2013  10:09:00       -8.049       10.015       32.481       19.880       17.526       16.751      395.229      307.163      280.605        0.110        0.049       12.848        7.964        0.384      350.358       31.465      861.880
06/30/2013  10:10:00      -22.275       -7.433        9.932       26.880       18.551       17.025      722.541      344.140      289.858        0.100        0.068       23.483       16.659        0.503      349.137       29.346      861.873
06/30/2013  10:11:00       -0.019      -23.102       18.818       37.530       34.478       23.055     1408.509     1188.737      531.515        0.201        0.156       23.102       22.487        0.947      349.331       29.681      861.855
06/30/2013  10:12:00       11.256      -36.916       -7.625       24.493       25.358       17.203      599.897      643.025      295.957        0.154        0.077       38.594       13.885        0.129      348.595       28.405      861.839
06/30/2013  10:13:00        7.442       22.371       42.269       43.925       50.245       41.040     1929.414     2524.564     1684.271        0.424        0.307       23.577       45.754        3.766      348.737       28.653      861.835
06/30/2013  10:14:00       48.209      -34.315       38.705       35.248       73.673       43.011     1242.418     5427.652     1849.958        0.676        0.426       59.174       40.414        0.466      348.436       28.131      861.830
06/30/2013  10:15:00       34.229      -12.769       31.948       39.665       50.994       32.834     1573.347     2600.393     1078.052        0.380        0.263       36.533       34.986        0.917      348.745       28.667      861.838
06/30/2013  10:16:00        3.881       19.575       28.615       31.779       38.780       26.153     1009.879     1503.926      683.971        0.221        0.160       19.956       20.399        1.045      349.219       29.487      861.837
06/30/2013  10:17:00       23.717       88.446       -2.453       30.598       50.682       33.753      936.267     2568.655     1139.274        0.652        0.232       91.570       25.758        0.079      349.084       29.253      861.838
06/30/2013  10:18:00      -42.390        8.627      -20.120       22.400       23.758       22.169      501.772      564.451      491.480        0.192        0.078       43.259       16.828        0.151      348.901       28.936      861.820
06/30/2013  10:19:00      -86.752      -29.922      -11.223       18.688       15.719       17.012      349.258      247.083      289.415        0.472        0.044       91.767       10.012        0.012      348.753       28.679      861.805
06/30/2013  10:20:00      -98.874      -66.018       -8.054       35.403       36.170       19.091     1253.385     1308.246      364.472        0.856        0.146      118.888       12.215        0.011      348.782       28.728      861.776
06/30/2013  10:21:00      -29.198      -24.231       18.650       48.278       36.285       27.658     2330.723     1316.567      764.982        0.310        0.221       37.943       28.632        0.569      349.391       29.785      861.783
06/30/2013  10:22:00       15.578      -30.934       14.542       30.920       31.680       28.079      956.050     1003.640      788.445        0.208        0.137       34.635       23.586        0.464      349.305       29.637      861.775
06/30/2013  10:23:00        0.657        5.895       18.911       33.591       30.356       31.534     1128.382      921.495      994.375        0.172        0.152        5.932       20.956       12.481      350.046       30.925      861.781
06/30/2013  10:24:00      -23.414      -18.262        9.801       40.961       36.141       25.315     1677.768     1306.152      640.856        0.230        0.181       29.693       26.176        0.777      349.252       29.544      861.778
06/30/2013  10:25:00      -42.911      -25.387       -3.227       16.844       12.052       12.475      283.737      145.245      155.638        0.154        0.029       49.858       10.688        0.046      349.047       29.188      861.780
06/30/2013  10:26:00      -19.092      -17.035       -1.119       12.520       16.906       12.469      156.754      285.807      155.466        0.063        0.030       25.587        6.891        0.073      349.177       29.415      861.762
06/30/2013  10:27:00      -35.243      -49.411        4.225       32.791       36.073       28.500     1075.221     1301.280      812.233        0.344        0.159       60.691       15.368        0.064      349.255       29.549      861.757
06/30/2013  10:28:00       49.244      -82.242       34.821       45.832       42.773       39.389     2100.548     1829.540     1551.501        0.794        0.274       95.858       22.882        0.057      348.873       28.886      861.742
06/30/2013  10:29:00       48.563      -80.451       16.575       40.042       60.913       50.899     1603.391     3710.443     2590.703        0.850        0.395       93.972       31.950        0.116      348.858       28.860      861.736
06/30/2013  10:30:00       31.832      -48.081       30.970       46.454       64.483       47.527     2157.989     4158.086     2258.836        0.643        0.429       57.664       40.900        0.503      349.510       29.994      861.714
06/30/2013  10:31:00       28.660      -15.119       48.275       42.681       62.886       38.079     1821.640     3954.618     1450.036        0.530        0.361       32.403       32.858        1.028      349.905       30.677      861.701
06/30/2013  10:32:00       77.886      -67.094        9.824       42.997       72.537       46.200     1848.764     5261.579     2134.453        0.995        0.462      102.800       44.213        0.185      348.834       28.821      861.711
06/30/2013  10:33:00       44.053       11.492       16.825       29.119       53.985       33.547      847.924     2914.329     1125.416        0.362        0.244       45.527       27.536        0.366      349.226       29.499      861.699
06/30/2013  10:34:00       22.574       -6.031       -7.365       35.181       37.412       23.635     1237.678     1399.686      558.633        0.190        0.160       23.366       18.197        0.606      349.209       29.470      861.692
06/30/2013  10:35:00       52.349       72.371       19.113       32.037       33.685       35.081     1026.359     1134.679     1230.667        0.587        0.170       89.320       10.622        0.014      349.093       29.270      861.680
06/30/2013  10:36:00       75.138       68.054       38.379       48.426       42.005       21.495     2345.096     1764.435      462.016        0.816        0.229      101.376       16.408        0.026      349.197       29.448      861.662
06/30/2013  10:37:00       26.858       -7.724       32.130       35.322       48.859       30.085     1247.640     2387.161      905.120        0.318        0.227       27.947       16.012        0.328      349.288       29.606      861.640
06/30/2013  10:38:00       42.954       36.218       21.371       34.324       22.295       26.941     1178.115      497.069      725.805        0.301        0.120       56.185       22.507        0.160      349.213       29.477      861.639
06/30/2013  10:39:00       79.259       56.529       27.785       33.178       32.736       37.793     1100.801     1071.621     1428.319        0.692        0.180       97.352       16.051        0.027      349.347       29.710      861.621
06/30/2013  10:40:00       26.810       41.123       16.190       35.753       35.629       36.238     1278.243     1269.446     1313.217        0.327        0.193       49.090       26.482        0.291      349.951       30.757      861.609
06/30/2013  10:41:00       37.802       25.501       25.346       32.388       27.491       28.774     1048.975      755.742      827.942        0.268        0.132       45.599       15.217        0.111      349.945       30.746      861.596
06/30/2013  10:42:00      120.212       77.829       48.185       51.402       40.502       32.003     2642.157     1640.416     1024.192        1.407        0.265      143.207       20.728        0.021      349.492       29.960      861.581
06/30/2013  10:43:00       59.808       62.358       42.998       50.858       43.485       28.199     2586.522     1890.932      795.205        0.729        0.264       86.404       17.936        0.043      349.604       30.154      861.590
06/30/2013  10:44:00        9.215      -34.579       14.565       32.473       40.717       29.995     1054.465     1657.903      899.718        0.255        0.181       35.786       22.285        0.388      349.794       30.485      861.585
06/30/2013  10:45:00       10.953      -36.325        7.031       13.820       29.320       23.498      190.997      859.674      552.177        0.155        0.080       37.940       15.876        0.175      349.699       30.319      861.577
06/30/2013  10:46:00       -4.843       -7.171       19.226       10.336       15.620       17.450      106.840      243.979      304.504        0.055        0.033        8.654       12.152        1.972      350.377       31.498      861.562
06/30/2013  10:47:00       -6.319       -6.426       13.115       27.044       28.609       23.603      731.352      818.459      557.102        0.118        0.105        9.012       16.886        3.511      350.038       30.908      861.549
06/30/2013  10:48:00      -30.720      -12.929        0.575       18.331       17.552       14.630      336.022      308.086      214.051        0.098        0.043       33.330       10.349        0.096      349.601       30.149      861.531
06/30/2013  10:49:00       -4.289        0.880       24.795       22.858       19.154       20.497      522.491      366.862      420.137        0.097        0.065        4.379        8.995        4.220      350.853       32.327      861.517
06/30/2013  10:50:00       60.051       48.099       26.105       48.352       26.666       26.314     2337.914      711.061      692.419        0.517        0.187       76.939       11.905        0.024      350.008       30.857      861.500
06/30/2013  10:51:00       61.562       45.785       14.066       57.156       48.764       35.590     3266.752     2377.931     1266.637        0.650        0.346       76.721       22.790        0.088      349.787       30.473      861.493
06/30/2013  10:52:00      -30.549       31.774       16.222       25.941       34.806       24.428      672.915     1211.444      596.711        0.234        0.124       44.078       13.539        0.094      350.374       31.493      861.467
06/30/2013  10:53:00      -49.776       28.568       -2.248       32.184       23.717       24.305     1035.783      562.503      590.748        0.274        0.109       57.391       17.912        0.097      349.777       30.454      861.457
06/30/2013  10:54:00       -4.545       19.738       18.531       30.623       29.813       26.566      937.773      888.802      705.760        0.164        0.127       20.255       16.342        0.651      350.591       31.871      861.444
06/30/2013  10:55:00       28.554        2.843       14.654       31.211       34.692       30.049      974.126     1203.551      902.948        0.206        0.154       28.695       13.127        0.209      349.991       30.827      861.434
06/30/2013  10:56:00       59.102       38.114       38.499       74.250       50.444       27.347     5513.083     2544.628      747.873        0.762        0.440       70.326       31.821        0.205      350.310       31.381      861.433
06/30/2013  10:57:00      135.846       78.240       18.306       49.847       34.878       42.265     2484.761     1216.474     1786.333        1.520        0.274      156.766       21.481        0.019      349.881       30.634      861.430
06/30/2013  10:58:00      130.379       79.673       29.627       60.962       69.170       39.984     3716.317     4784.461     1598.700        1.716        0.505      152.796       26.624        0.030      349.720       30.355      861.419
06/30/2013  10:59:00      119.915       94.749       75.721       61.190       43.414       43.134     3744.202     1884.791     1860.544        1.829        0.374      152.830       24.018        0.025      349.877       30.627      861.403
06/30/2013  11:00:00      103.999       78.993       56.973       75.324       55.346       47.423     5673.714     3063.183     2248.972        1.564        0.549      130.597       30.381        0.054      349.968       30.785      861.392
06/30/2013  11:01:00      127.995      106.231       32.578       46.459       25.709       39.559     2158.419      660.935     1564.938        1.656        0.219      166.336       20.439        0.015      349.772       30.446      861.393
06/30/2013  11:02:00       41.787       39.531        5.857       45.970       45.022       35.869     2113.283     2026.967     1286.603        0.438        0.271       57.523       26.575        0.213      349.756       30.418      861.386
06/30/2013  11:03:00        5.613        4.613       37.115       22.691       31.021       23.484      514.877      962.272      551.501        0.173        0.101        7.265       21.000        8.354      350.544       31.788      861.376
06/30/2013  11:04:00       68.923       38.323       25.576       56.989       55.548       32.022     3247.725     3085.623     1025.398        0.711        0.368       78.861       17.265        0.048      350.079       30.981      861.365
06/30/2013  11:05:00       19.254       50.084       11.455       29.825       44.109       32.639      889.526     1945.562     1065.301        0.345        0.195       53.658       31.122        0.336      350.551       31.800      861.361
06/30/2013  11:06:00       31.874        6.122       23.439       42.611       30.680       26.442     1815.708      941.258      699.169        0.253        0.173       32.457        7.391        0.052      350.760       32.164      861.344
06/30/2013  11:07:00       66.343      -33.105       21.064       30.998       29.657       28.924      960.889      879.539      836.590        0.431        0.134       74.144       14.510        0.038      349.547       30.057      861.351
06/30/2013  11:08:00       50.636        6.079        8.083       34.242       41.948       34.633     1172.485     1759.617     1199.410        0.340        0.207       50.999       22.731        0.199      349.873       30.621      861.339
06/30/2013  11:09:00       39.065       26.836       10.865       28.788       36.131       28.346      828.772     1305.422      803.518        0.265        0.147       47.395       12.053        0.065      350.481       31.679      861.335
06/30/2013  11:10:00       54.706       61.684        1.499       57.304       45.766       43.908     3283.706     2094.519     1927.903        0.705        0.365       82.449       21.817        0.070      350.244       31.265      861.331
06/30/2013  11:11:00      -12.423       16.981       11.163       31.770       25.623       23.451     1009.358      656.541      549.973        0.139        0.111       21.040       19.830        0.888      350.897       32.403      861.328
06/30/2013  11:12:00       35.488       10.490       43.220       40.502       22.566       27.197     1640.415      509.240      739.690        0.306        0.144       37.006       14.245        0.148      350.752       32.150      861.323
06/30/2013  11:13:00       39.957        5.815       35.748       43.729       38.589       38.914     1912.191     1489.122     1514.268        0.391        0.246       40.378       29.902        0.548      350.313       31.386      861.319
06/30/2013  11:14:00       -1.142       36.703       79.433       38.915       59.583       35.521     1514.342     3550.108     1261.731        0.699        0.316       36.721       34.594        0.887      350.979       32.545      861.306
06/30/2013  11:15:00       42.205       39.299       79.243       62.002       68.114       46.116     3844.283     4639.510     2126.653        1.011        0.531       57.669       20.818        0.130      350.724       32.100      861.305
06/30/2013  11:16:00      146.769       49.247        6.302       75.113       75.342       36.955     5641.930     5676.464     1365.693        1.834        0.634      154.810       40.326        0.068      350.010       30.856      861.314
06/30/2013  11:17:00       51.376       52.062       39.954       45.940       53.541       33.461     2110.457     2866.608     1119.640        0.652        0.305       73.143       19.698        0.073      350.409       31.552      861.302
06/30/2013  11:18:00       14.834       42.689       12.066       30.865       39.990       30.873      952.669     1599.196      953.147        0.285        0.175       45.193       23.244        0.265      350.649       31.970      861.304
06/30/2013  11:19:00       57.902       43.540       10.225       36.455       38.114       33.670     1328.962     1452.642     1133.668        0.463        0.196       72.446       18.541        0.065      350.518       31.743      861.292
06/30/2013  11:20:00      -39.894      -16.027        2.166       33.757       21.696       16.796     1139.503      470.700      282.097        0.187        0.095       42.993       19.340        0.202      350.789       32.214      861.294
06/30/2013  11:21:00      -53.160        7.162       18.222       37.196       52.430       38.321     1383.526     2748.867     1468.482        0.440        0.280       53.641       36.658        0.467      350.775       32.188      861.270
06/30/2013  11:22:00       25.855       32.480        1.482       31.775       31.910       30.198     1009.661     1018.235      911.892        0.233        0.147       41.514       18.399        0.196      350.349       31.449      861.266
06/30/2013  11:23:00       -0.624       -7.984       14.705       18.788       34.568       26.670      352.974     1194.951      711.315        0.127        0.113        8.008       21.405        7.145      350.655       31.981      861.262
06/30/2013  11:24:00       -3.180       -2.606       35.299       20.114       20.205       11.598      404.581      408.240      134.509        0.110        0.047        4.112        8.929        4.717      351.242       33.003      861.250
06/30/2013  11:25:00       75.118       32.938       34.454       61.095       37.429       37.445     3732.646     1400.952     1402.133        0.722        0.327       82.022       29.979        0.134      350.514       31.737      861.228
06/30/2013  11:26:00       84.235       56.417        5.894       39.380       40.242       38.403     1550.765     1619.399     1474.774        0.748        0.232      101.382       27.825        0.075      350.656       31.982      861.218
06/30/2013  11:27:00       86.889       57.378       24.158       70.194       40.846       26.001     4927.242     1668.368      676.068        0.935        0.364      104.125       24.543        0.056      350.735       32.119      861.211
06/30/2013  11:28:00      105.931       99.479       11.101       75.335       57.178       45.994     5675.436     3269.308     2115.424        1.615        0.553      145.318       27.689        0.036      350.745       32.134      861.186
06/30/2013  11:29:00       55.920      100.261        0.707       56.413       63.455       44.397     3182.475     4026.477     1971.115        1.118        0.459      114.801       40.553        0.125      350.821       32.268      861.188
06/30/2013  11:30:00       26.639       26.458       18.932       34.734       51.575       31.761     1206.478     2659.966     1008.762        0.332        0.244       37.545       13.317        0.126      351.123       32.797      861.187
06/30/2013  11:31:00       66.724       98.078       95.734       68.815       61.645       46.608     4735.459     3800.059     2172.294        1.697        0.535      118.623       29.226        0.061      350.705       32.066      861.191
06/30/2013  11:32:00       65.473      -56.447       19.651       57.178       64.568       47.396     3269.373     4169.039     2246.334        0.877        0.484       86.446       35.435        0.168      350.429       31.587      861.192
06/30/2013  11:33:00       40.564      -72.336       15.647       54.822       69.686       41.243     3005.495     4856.077     1701.025        0.834        0.478       82.933       43.993        0.281      350.890       32.390      861.191
06/30/2013  11:34:00       78.372        9.882       62.703       62.855       82.589       60.836     3950.743     6820.894     3701.039        1.232        0.724       78.992       57.106        0.523      350.668       32.005      861.195
06/30/2013  11:35:00       33.164      -21.777       27.557       43.600       66.549       53.982     1900.966     4428.792     2914.035        0.579        0.462       39.675       49.486        1.556      350.561       31.818      861.208
06/30/2013  11:36:00       89.359       25.525       59.923       58.395       51.190       52.081     3409.951     2620.394     2712.430        1.048        0.437       92.933       39.262        0.178      350.297       31.358      861.200
06/30/2013  11:37:00       23.750      -11.817       10.022       29.015       49.614       26.230      841.849     2461.548      688.035        0.240        0.200       26.528       15.864        0.358      350.342       31.437      861.190
06/30/2013  11:38:00       19.595       18.019       40.563       33.251       27.725       25.254     1105.657      768.688      637.778        0.243        0.126       26.621       16.309        0.375      350.693       32.046      861.166
06/30/2013  11:39:00       32.900      -44.761       32.186       46.737       81.989       46.650     2184.360     6722.226     2176.183        0.760        0.554       55.551       54.815        0.974      351.056       32.678      861.144
06/30/2013  11:40:00       76.530       -7.207       43.826       63.941       57.322       51.562     4088.474     3285.819     2658.623        0.893        0.502       76.869       41.265        0.288      350.445       31.615      861.142
06/30/2013  11:41:00       24.617      -21.088       20.697       27.651       24.098       21.767      764.570      580.709      473.783        0.165        0.091       32.414       11.476        0.125      350.393       31.526      861.148
06/30/2013  11:42:00       10.143      -18.382       20.928       15.919       17.938       19.749      253.430      321.776      390.011        0.092        0.048       20.995       13.675        0.424      350.672       32.011      861.138
06/30/2013  11:43:00        6.795        2.539       28.351       20.877       37.384       17.116      435.835     1397.579      292.951        0.149        0.106        7.254       12.088        2.777      350.707       32.072      861.117
06/30/2013  11:44:00       66.075        8.320       20.192       26.181       19.231       26.285      685.452      369.825      690.903        0.329        0.087       66.596       15.252        0.052      350.619       31.920      861.118
06/30/2013  11:45:00       54.346       -4.564       27.884       42.030       48.054       31.378     1766.514     2309.230      984.578        0.441        0.253       54.537       16.681        0.094      350.378       31.500      861.098
06/30/2013  11:46:00       57.742       39.180       40.461       85.128       42.487       33.925     7246.697     1805.128     1150.900        0.835        0.510       69.780       23.703        0.115      351.276       33.062      861.087
06/30/2013  11:47:00       41.967      -24.687       38.765       42.125       84.571       42.641     1774.524     7152.203     1818.274        0.731        0.537       48.690       42.259        0.753      351.109       32.772      861.075
06/30/2013  11:48:00       51.822      -12.611       46.160       82.241      102.387       72.367     6763.560    10483.116     5237.026        1.372        1.124       53.334       77.179        2.094      351.389       33.258      861.054
06/30/2013  11:49:00       55.914      -49.042       33.790       53.385       70.156       55.611     2850.008     4921.801     3092.575        0.877        0.543       74.374       44.770        0.362      350.612       31.905      861.064
06/30/2013  11:50:00       47.151      -75.622       14.188       37.238       64.957       31.664     1386.656     4219.365     1002.612        0.737        0.330       89.117       36.410        0.167      350.712       32.080      861.057
06/30/2013  11:51:00       25.548       -9.098       19.790       35.133       66.100       36.139     1234.308     4369.271     1306.033        0.402        0.345       27.120       21.431        0.624      350.738       32.124      861.043
06/30/2013  11:52:00       17.846       29.133       46.304       30.393       36.425       27.449      923.740     1326.800      753.429        0.316        0.150       34.165       14.996        0.193      350.962       32.515      861.042
06/30/2013  11:53:00        9.937       -7.124       21.862       40.863       69.039       35.692     1669.798     4766.361     1273.919        0.417        0.386       12.227       33.538        7.524      351.010       32.599      861.026
06/30/2013  11:54:00       26.285       -9.085        8.152       38.051       32.922       33.571     1447.873     1083.842     1127.037        0.225        0.183       27.811       20.528        0.545      351.209       32.945      861.030
06/30/2013  11:55:00       41.793        0.047       38.005       40.701       47.199       32.425     1656.538     2227.713     1051.406        0.406        0.247       41.793       33.334        0.636      350.696       32.051      861.033
06/30/2013  11:56:00       71.115       -4.932       28.709       49.286       53.702       43.344     2429.074     2883.867     1878.717        0.655        0.360       71.286       44.912        0.397      350.553       31.803      861.023
06/30/2013  11:57:00       73.854      -22.351       12.974       58.194       40.049       45.681     3386.501     1603.915     2086.709        0.660        0.354       77.162       39.853        0.267      350.699       32.058      861.018
06/30/2013  11:58:00        8.860       -6.274       30.524       38.264       46.484       29.983     1464.104     2160.742      898.992        0.279        0.226       10.856       18.939        3.044      351.282       33.073      861.018
06/30/2013  11:59:00      -43.052        6.143       19.564       37.262       21.753       26.052     1388.491      473.197      678.707        0.241        0.127       43.488       20.928        0.232      351.510       33.471      861.004
06/30/2013  12:00:00      -72.040       13.921        7.232       53.435       28.833       27.483     2855.302      831.359      755.312        0.494        0.222       73.373       22.956        0.098      351.057       32.680      860.994
06/30/2013  12:01:00        0.802       26.042       15.143       25.280       25.138       21.182      639.104      631.914      448.692        0.131        0.086       26.055       13.708        0.277      351.608       33.641      860.981
06/30/2013  12:02:00        3.866       43.952       -2.535       27.271       25.410       33.966      743.725      645.652     1153.718        0.225        0.127       44.122       12.374        0.079      351.385       33.252      860.959
06/30/2013  12:03:00      -42.192       -7.661       -2.505       27.665       30.297       15.958      765.364      917.932      254.648        0.189        0.097       42.882        8.102        0.036      351.375       33.233      860.959
06/30/2013  12:04:00      -27.737       12.348       -0.065       27.463       27.411       24.079      754.242      751.383      579.815        0.150        0.104       30.362       11.524        0.144      351.404       33.285      860.935
06/30/2013  12:05:00      -19.177      -36.291        7.014       46.955       62.226       27.914     2204.774     3872.014      779.169        0.429        0.343       41.046       19.596        0.228      351.459       33.381      860.924
06/30/2013  12:06:00      -30.511      -91.619       -8.232       32.535       46.480       27.515     1058.505     2160.366      757.064        0.668        0.199       96.566        8.728        0.008      350.930       32.459      860.920
06/30/2013  12:07:00      -60.137      -91.669        1.279       45.801       33.249       29.022     2097.770     1105.491      842.282        0.803        0.202      109.634       25.436        0.054      350.970       32.528      860.900
06/30/2013  12:08:00       -1.805      -20.531       14.818       47.501       36.062       29.838     2256.379     1300.458      890.307        0.254        0.222       20.610       11.970        0.337      351.381       33.246      860.885
06/30/2013  12:09:00      -14.411      -16.537       26.269       29.010       47.593       26.872      841.561     2265.049      722.096        0.250        0.191       21.935        7.213        0.108      351.788       33.956      860.866
06/30/2013  12:10:00      -24.810      -33.187       22.015       28.808       59.115       41.697      829.897     3494.567     1738.600        0.413        0.303       41.436       34.529        0.694      351.814       34.001      860.857
06/30/2013  12:11:00       -0.862      -48.157       13.585       37.068       46.267       43.127     1374.052     2140.660     1859.905        0.394        0.269       48.165       22.735        0.223      351.056       32.680      860.866
06/30/2013  12:12:00       40.842      -64.176        9.007       33.976       39.440       34.918     1154.338     1555.490     1219.242        0.490        0.196       76.070       28.200        0.137      351.258       33.030      860.858
06/30/2013  12:13:00       18.505        0.448       36.550       46.175       30.113       24.862     2132.114      906.769      618.109        0.267        0.183       18.510       22.303        1.452      351.482       33.420      860.849
06/30/2013  12:14:00       10.102      -19.107       15.126       32.671       41.960       30.764     1067.382     1760.636      946.415        0.223        0.189       21.613       30.219        1.955      351.372       33.230      860.842
06/30/2013  12:15:00        2.586      -11.428       -4.454       31.060       20.676       30.995      964.723      427.504      960.675        0.125        0.118       11.717       22.490        3.684      351.043       32.658      860.845
06/30/2013  12:16:00       60.486       42.272       30.758       26.141       21.238       29.233      683.326      451.061      854.546        0.419        0.099       73.793       16.059        0.047      351.113       32.778      860.833
06/30/2013  12:17:00       32.608       25.157       28.138       30.657       25.582       31.799      939.833      654.447     1011.176        0.255        0.130       41.184       23.728        0.332      351.117       32.786      860.822
06/30/2013  12:18:00       22.291       46.585       28.465       45.482       36.166       32.253     2068.607     1307.950     1040.268        0.395        0.221       51.644       22.143        0.184      351.284       33.076      860.820
06/30/2013  12:19:00       75.503       92.210        8.534       71.667       46.995       41.233     5136.175     2208.572     1700.192        1.166        0.452      119.178       34.749        0.085      351.594       33.618      860.809
06/30/2013  12:20:00       75.035      118.075      -11.847       49.614       45.485       45.985     2461.508     2068.893     2114.602        1.318        0.332      139.900       31.313        0.050      351.462       33.386      860.816
06/30/2013  12:21:00       19.450       32.721       -8.628       32.035       41.249       26.929     1026.264     1701.514      725.163        0.249        0.173       38.066       15.848        0.173      351.440       33.347      860.821
06/30/2013  12:22:00       -6.276       19.091       20.859       36.498       23.875       25.445     1332.128      570.021      647.471        0.169        0.127       20.096       11.881        0.350      351.934       34.210      860.817
06/30/2013  12:23:00     -101.507       14.086      -12.734       27.610       21.412       17.834      762.302      458.458      318.045        0.610        0.077      102.480        8.745        0.007      351.139       32.822      860.791
06/30/2013  12:24:00      -31.198       -5.587        7.063       50.743       43.953       26.795     2574.801     1931.844      717.967        0.314        0.261       31.694       25.089        0.627      351.716       33.830      860.782
06/30/2013  12:25:00       -2.204      -12.216       11.003       40.748       31.112       36.556     1660.397      967.987     1336.342        0.212        0.198       12.413       23.561        3.603      351.483       33.424      860.775
06/30/2013  12:26:00      -13.364        5.669       27.114       52.483       26.846       25.017     2754.458      720.683      625.839        0.252        0.205       14.517       30.218        4.333      351.381       33.244      860.771
06/30/2013  12:27:00       15.656        6.118       42.577       30.058       35.584       28.523      903.474     1266.228      813.538        0.254        0.149       16.809       28.361        2.847      351.408       33.293      860.777
06/30/2013  12:28:00      102.571       78.447       36.082       56.021       41.676       36.820     3138.311     1736.911     1355.698        1.210        0.312      129.131       28.826        0.050      351.415       33.303      860.772
06/30/2013  12:29:00      122.883       89.411       51.333       71.617       55.958       61.837     5129.001     3131.325     3823.865        1.890        0.604      151.969       46.036        0.092      351.685       33.773      860.755
06/30/2013  12:30:00       30.028      -10.987       60.704       56.567       83.848       50.128     3199.834     7030.538     2512.828        0.872        0.637       31.975       47.663        2.222      351.429       33.330      860.731
06/30/2013  12:31:00       34.905      -30.351       33.506       59.023       53.021       49.097     3483.660     2811.232     2410.515        0.598        0.435       46.255       39.447        0.727      350.887       32.386      860.710
06/30/2013  12:32:00       32.567       66.415       99.321       59.630       72.912       51.010     3555.696     5316.117     2601.976        1.340        0.574       73.971       44.422        0.361      351.297       33.099      860.711
06/30/2013  12:33:00       62.802       86.947       86.837       74.098       76.874       64.362     5490.570     5909.603     4142.421        1.729        0.777      107.256       51.643        0.232      351.182       32.898      860.693
06/30/2013  12:34:00       53.274       51.485       51.706       76.555       36.233       30.447     5860.707     1312.803      927.025        0.813        0.405       74.087       33.014        0.199      351.465       33.392      860.697
06/30/2013  12:35:00      225.057      151.276       19.881       69.233       52.168       46.687     4793.139     2721.452     2179.651        4.181        0.485      271.173       19.161        0.005      351.302       33.102      860.687
06/30/2013  12:36:00      159.141       79.806       22.491       86.088       52.891       41.053     7411.144     2797.406     1685.342        2.204        0.595      178.031       26.804        0.023      351.327       33.149      860.688
06/30/2013  12:37:00       71.023        8.393       10.379       44.246       32.339       29.913     1957.750     1045.825      894.802        0.456        0.195       71.517       27.547        0.148      351.259       33.033      860.689
06/30/2013  12:38:00       32.576       -6.062       27.416       24.941       38.946       24.694      622.046     1516.828      609.791        0.230        0.137       33.135       25.596        0.597      351.566       33.569      860.662
06/30/2013  12:39:00       38.404       22.997        5.591       17.816       23.291       27.367      317.404      542.465      748.940        0.182        0.080       44.763       19.201        0.184      351.201       32.931      860.663
06/30/2013  12:40:00       67.665       35.671       27.226       31.065       39.268       31.526      965.023     1541.977      993.888        0.505        0.175       76.491       13.108        0.029      350.924       32.448      860.643
06/30/2013  12:41:00       18.447      -45.837       -8.869       64.313       38.623       37.816     4136.186     1491.763     1430.063        0.479        0.353       49.410       15.826        0.103      351.377       33.238      860.633
06/30/2013  12:42:00      -46.878      -22.421       16.924       48.350       42.422       21.716     2337.738     1799.665      471.565        0.380        0.230       51.964       25.888        0.248      351.772       33.929      860.607
06/30/2013  12:43:00       40.754       22.718       25.264       33.248       26.066       29.204     1105.402      679.439      852.853        0.273        0.132       46.659       13.397        0.082      351.829       34.027      860.598
06/30/2013  12:44:00       68.035       30.960       22.321       45.352       33.581       33.131     2056.807     1127.675     1097.691        0.518        0.214       74.749       17.719        0.056      351.938       34.218      860.590
06/30/2013  12:45:00       69.117       32.464       33.116       45.536       39.564       39.266     2073.496     1565.289     1541.820        0.605        0.259       76.362       24.928        0.107      351.648       33.710      860.580
06/30/2013  12:46:00       15.080       14.094       13.913       35.164       27.818       26.666     1236.536      773.846      711.093        0.167        0.136       20.641       16.516        0.640      352.363       34.962      860.569
06/30/2013  12:47:00       28.802       39.406       21.081       52.879       45.955       22.394     2796.202     2111.889      501.475        0.412        0.270       48.809       19.412        0.158      352.262       34.785      860.567
06/30/2013  12:48:00       -5.411       80.888      -12.922       87.699       51.658       39.851     7691.162     2668.565     1588.140        0.934        0.597       81.069       43.091        0.283      351.403       33.283      860.555
06/30/2013  12:49:00     -133.585       52.984      -15.898       26.970       35.479       26.953      727.375     1258.742      726.476        1.181        0.136      143.709       19.984        0.019      351.404       33.286      860.538
06/30/2013  12:50:00     -120.338       24.271       -5.917       32.515       29.926       18.633     1057.246      895.580      347.184        0.870        0.115      122.761       15.848        0.017      351.541       33.524      860.521
06/30/2013  12:51:00     -105.593       28.755        0.757       55.551       59.210       33.213     3085.891     3505.792     1103.129        0.983        0.385      109.438       24.368        0.050      351.708       33.816      860.519
06/30/2013  12:52:00      -11.182      -11.021       -1.057       19.217       17.906       21.053      369.285      320.625      443.209        0.069        0.057       15.701       12.262        0.610      351.989       34.308      860.491
06/30/2013  12:53:00       43.255      -54.586       13.969       37.623       39.393       30.349     1415.495     1551.833      921.091        0.447        0.194       69.646       26.910        0.149      351.926       34.196      860.474
06/30/2013  12:54:00       21.754       25.911       39.606       26.441       19.732       16.691      699.103      389.370      278.584        0.204        0.068       33.832        8.627        0.065      352.005       34.335      860.467
06/30/2013  12:55:00       44.357       10.743      -11.122       32.361       36.106       24.561     1047.234     1303.608      603.233        0.258        0.148       45.640       14.622        0.103      351.607       33.639      860.448
06/30/2013  12:56:00      -48.344      -66.058        5.395       48.651       43.605       29.302     2366.892     1901.397      858.616        0.593        0.256       81.858       31.180        0.145      351.568       33.569      860.442
06/30/2013  12:57:00      -66.080      -55.482       12.870       64.692       55.217       43.512     4185.055     3048.962     1893.309        0.837        0.456       86.283       40.163        0.217      351.731       33.856      860.423
06/30/2013  12:58:00       -3.931      -57.186       31.649       61.199       65.618       38.016     3745.345     4305.702     1445.194        0.689        0.475       57.321       42.422        0.548      351.934       34.210      860.404
06/30/2013  12:59:00      -75.503      -14.979        3.189       70.688       31.357       32.122     4996.820      983.287     1031.800        0.647        0.351       76.974       40.370        0.275      351.786       33.951      860.392
06/30/2013  13:00:00     -136.625       13.962       -5.050       79.333       52.280       36.709     6293.718     2733.229     1347.552        1.463        0.519      137.337       40.504        0.087      351.994       34.314      860.392
06/30/2013  13:01:00     -145.114       41.714      -11.924       64.110       43.627       33.936     4110.063     1903.342     1151.642        1.505        0.358      150.990       25.144        0.028      351.990       34.307      860.382
06/30/2013  13:02:00     -184.237       36.747      -19.806       40.325       43.977       23.470     1626.097     1933.999      550.854        1.990        0.206      187.866       14.354        0.006      351.627       33.671      860.376
06/30/2013  13:03:00      -69.350       -6.920        9.233       61.210       59.729       30.617     3746.720     3567.506      937.380        0.660        0.413       69.694       28.590        0.168      352.390       35.007      860.375
06/30/2013  13:04:00      -95.895      -12.469       -1.155       59.608       47.541       32.288     3553.115     2260.121     1042.540        0.810        0.343       96.702       36.076        0.139      351.860       34.081      860.369
06/30/2013  13:05:00     -158.542       12.233      -11.333       67.787       46.019       41.009     4595.127     2117.741     1681.698        1.690        0.420      159.013       39.632        0.062      352.105       34.508      860.364
06/30/2013  13:06:00     -117.261       21.461      -11.073       56.314       29.011       23.484     3171.296      841.614      551.484        0.945        0.228      119.208       27.309        0.052      351.731       33.858      860.350
06/30/2013  13:07:00      -52.509      132.236        1.566       53.793       87.664       38.987     2893.656     7685.002     1519.990        1.617        0.605      142.280       50.750        0.127      352.147       34.582      860.356
06/30/2013  13:08:00      -13.797       55.335       11.088       29.031       39.917       30.886      842.824     1593.402      953.968        0.338        0.170       57.029       26.362        0.214      352.868       35.846      860.348
06/30/2013  13:09:00      -10.283       64.829       25.143       27.807       68.209       36.933      773.219     4652.474     1364.070        0.586        0.339       65.639       36.297        0.306      352.719       35.584      860.333
06/30/2013  13:10:00      107.757       83.541        3.181       39.161       35.695       28.438     1533.547     1274.149      808.702        1.111        0.181      136.348       10.805        0.006      351.748       33.885      860.315
06/30/2013  13:11:00       40.920       74.974       18.752       50.091       53.866       38.311     2509.125     2901.595     1467.762        0.726        0.344       85.414       34.692        0.165      352.003       34.333      860.296
06/30/2013  13:12:00       77.267       65.831       16.113       64.880       49.290       41.437     4209.399     2429.466     1717.016        0.946        0.418      101.508       28.615        0.079      352.171       34.624      860.288
06/30/2013  13:13:00       39.793       31.613        5.927       38.750       32.100       27.861     1501.580     1030.405      776.215        0.296        0.165       50.822       17.865        0.124      352.332       34.906      860.277
06/30/2013  13:14:00       26.578        4.585       26.178       35.204       38.613       24.597     1239.299     1490.983      605.019        0.237        0.167       26.970       21.485        0.635      352.307       34.862      860.260
06/30/2013  13:15:00       20.077       29.526        2.118       22.088       29.101       40.000      487.901      846.865     1600.031        0.211        0.147       35.705       27.247        0.582      351.961       34.258      860.247
06/30/2013  13:16:00       99.072       29.894       44.830       55.972       71.314       42.316     3132.920     5085.678     1790.670        1.136        0.500      103.484       48.051        0.216      351.268       33.048      860.241
06/30/2013  13:17:00       58.420      -43.553        5.865       49.600       59.400       46.273     2460.151     3528.342     2141.227        0.674        0.406       72.868       46.340        0.404      351.968       34.272      860.231
06/30/2013  13:18:00       67.711       86.334       78.863       55.551       54.951       42.063     3085.917     3019.569     1769.291        1.306        0.394      109.720       30.043        0.075      351.713       33.824      860.220
06/30/2013  13:19:00       72.335       64.497       27.255       40.298       44.176       39.831     1623.896     1951.542     1586.537        0.765        0.258       96.914       14.870        0.024      351.662       33.735      860.212
06/30/2013  13:20:00        9.188       51.670       19.672       34.594       47.037       34.263     1196.756     2212.478     1173.980        0.386        0.229       52.481       30.020        0.327      352.518       35.232      860.201
06/30/2013  13:21:00       43.322       52.063        4.351       59.698       43.105       33.456     3563.881     1858.065     1119.286        0.557        0.327       67.730       19.992        0.087      352.458       35.127      860.200
06/30/2013  13:22:00       32.389       -1.058       13.716       66.103       38.872       33.945     4369.662     1510.997     1152.289        0.413        0.352       32.406       16.957        0.274      352.134       34.561      860.193
06/30/2013  13:23:00      103.753       64.031       18.076       42.067       31.726       36.398     1769.613     1006.521     1324.813        0.965        0.205      121.921       17.961        0.022      351.723       33.843      860.190
06/30/2013  13:24:00       90.508       52.504       18.350       37.189       35.940       33.233     1383.023     1291.690     1104.429        0.753        0.189      104.634       17.994        0.030      351.887       34.128      860.170
06/30/2013  13:25:00       91.147       51.274       15.070       34.545       33.365       25.309     1193.338     1113.218      640.570        0.705        0.147      104.579       16.442        0.025      351.713       33.825      860.152
06/30/2013  13:26:00       81.326       27.488       22.235       39.519       47.342       28.651     1561.755     2241.239      820.905        0.624        0.231       85.846       18.913        0.049      352.014       34.350      860.131
06/30/2013  13:27:00       39.241       52.011       38.671       49.137       43.442       48.211     2414.425     1887.210     2324.295        0.618        0.331       65.154       28.840        0.196      352.407       35.038      860.123
06/30/2013  13:28:00      113.566       99.431       84.261      102.659       81.269       67.076    10538.854     6604.576     4499.250        2.576        1.082      150.943       51.008        0.114      351.929       34.200      860.092
06/30/2013  13:29:00        3.420       85.136      140.240       75.114       72.063       58.363     5642.175     5193.030     3406.236        2.058        0.712       85.205       41.189        0.234      352.298       34.845      860.079
06/30/2013  13:30:00       73.608       38.800       94.313       54.930       70.810       55.630     3017.358     5013.993     3094.664        1.347        0.556       83.208       43.664        0.275      351.831       34.031      860.082
06/30/2013  13:31:00       48.112      -34.015       12.618       49.021       63.433       38.592     2403.078     4023.803     1489.375        0.577        0.396       58.922       37.628        0.408      351.606       33.637      860.101
06/30/2013  13:32:00       39.447       46.565       18.764       37.011       44.392       46.921     1369.846     1970.656     2201.558        0.481        0.277       61.027       27.701        0.206      351.629       33.679      860.088
06/30/2013  13:33:00       11.871        3.722       14.733       29.636       40.684       34.778      878.265     1655.201     1209.523        0.206        0.187       12.441       26.275        4.460      351.776       33.936      860.085
06/30/2013  13:34:00       47.917      -23.875        6.122       44.321       45.052       33.720     1964.386     2029.665     1137.035        0.402        0.257       53.535       31.469        0.346      351.700       33.803      860.073
06/30/2013  13:35:00       50.035       23.274       46.184       46.149       78.798       61.544     2129.704     6209.104     3787.638        0.865        0.606       55.183       61.030        1.223      351.756       33.900      860.056
06/30/2013  13:36:00       93.057      116.189      106.902       98.048       81.178       61.841     9613.459     6589.804     3824.318        2.680        1.001      148.861       55.928        0.141      351.993       34.312      860.057
06/30/2013  13:37:00      163.220      130.312       39.919       75.319       50.108       58.900     5672.938     2510.827     3469.260        2.843        0.583      208.859       42.430        0.041      352.464       35.133      860.039
06/30/2013  13:38:00      150.027       96.041       40.110       90.352       78.990       64.212     8163.417     6239.461     4123.166        2.593        0.926      178.135       51.445        0.083      352.676       35.506      860.030
06/30/2013  13:39:00      103.875      113.827       13.621       71.020       55.682       65.294     5043.782     3100.507     4263.367        1.817        0.620      154.099       21.226        0.019      352.459       35.127      860.041
06/30/2013  13:40:00      137.232       41.706       47.424       67.480       51.715       47.884     4553.524     2674.457     2292.918        1.617        0.476      143.429       35.599        0.062      352.439       35.092      860.044
06/30/2013  13:41:00       92.584       75.014        6.274       52.479       41.130       39.370     2754.084     1691.683     1550.004        1.012        0.300      119.159       27.776        0.054      352.549       35.286      860.025
06/30/2013  13:42:00       83.180       71.444       18.793       78.011       61.316       53.118     6085.694     3759.696     2821.519        1.252        0.633      109.650       37.386        0.116      352.566       35.315      859.993
06/30/2013  13:43:00      159.586      143.145       33.485      114.045       86.894       76.483    13006.373     7550.651     5849.582        3.674        1.320      214.379       45.695        0.045      352.484       35.167      859.974
06/30/2013  13:44:00      153.399       90.542       19.431      115.588       77.287       52.825    13360.541     5973.224     2790.475        2.711        1.106      178.127       37.621        0.045      352.617       35.403      859.968
06/30/2013  13:45:00       39.986      133.699      -15.216       98.896       65.777       59.316     9780.422     4326.580     3518.350        1.866        0.881      139.550       51.452        0.136      352.337       34.914      859.971
06/30/2013  13:46:00       68.053       33.812       22.789       78.897       42.218       37.210     6224.762     1782.361     1384.559        0.784        0.470       75.990       16.021        0.044      352.730       35.603      859.972
06/30/2013  13:47:00      105.637       52.212       21.675       74.833       39.193       29.259     5599.986     1536.129      856.088        1.117        0.400      117.835       21.638        0.034      352.687       35.526      859.974
06/30/2013  13:48:00        7.183        2.137        8.313       49.797       33.079       26.004     2479.759     1094.217      676.191        0.219        0.213        7.494       16.795        5.023      352.768       35.669      859.976
06/30/2013  13:49:00       52.407      -20.183       28.888       53.431       58.384       40.041     2854.863     3408.749     1603.257        0.593        0.393       56.159       38.448        0.469      352.446       35.106      859.986
06/30/2013  13:50:00       46.760      -57.388       19.497       57.330       78.552       46.645     3286.735     6170.413     2175.754        0.874        0.582       74.026       47.440        0.411      352.578       35.337      859.987
06/30/2013  13:51:00       67.212      -48.761       23.319       62.444       70.859       47.777     3899.292     5020.936     2282.656        0.932        0.560       83.037       54.622        0.433      352.523       35.241      859.990
06/30/2013  13:52:00       24.565      -87.526       17.664       64.812       90.194       35.228     4200.633     8134.891     1241.008        1.107        0.679       90.908       46.696        0.264      352.266       34.790      859.992
06/30/2013  13:53:00      -72.196      -98.435       -2.669       60.124       63.152       28.284     3614.935     3988.120      799.968        1.165        0.420      122.073       30.577        0.063      352.457       35.125      859.977
06/30/2013  13:54:00      -42.163     -160.593      -28.041       78.010       61.188       39.880     6085.550     3744.003     1590.413        1.988        0.571      166.036       35.971        0.047      352.560       35.303      859.963
06/30/2013  13:55:00      -73.525     -140.892        3.262       77.061      115.074       51.007     5938.420    13242.126     2601.752        2.352        1.089      158.923       69.709        0.192      352.364       34.959      859.969
06/30/2013  13:56:00      -29.366       41.094       40.870       69.999       47.927       49.978     4899.879     2297.037     2497.787        0.696        0.485       50.508       28.352        0.315      352.274       34.804      859.963
06/30/2013  13:57:00       46.210       76.450       -8.635       42.460       68.247       37.037     1802.893     4657.602     1371.746        0.794        0.392       89.331       26.747        0.090      351.938       34.217      859.945
06/30/2013  13:58:00      -44.556      -61.149        7.200       39.960       37.752       32.726     1596.827     1425.250     1071.014        0.493        0.205       75.660       19.290        0.065      352.525       35.246      859.915
06/30/2013  13:59:00      -35.935      -30.862       10.623       49.372       34.395       30.253     2437.638     1182.995      915.259        0.345        0.227       47.369       28.033        0.350      352.758       35.653      859.923
06/30/2013  14:00:00        0.159      -60.714       12.292       52.195       38.974       33.728     2724.356     1518.944     1137.600        0.461        0.269       60.714       27.233        0.201      352.811       35.743      859.931
06/30/2013  14:01:00      -84.807     -133.340      -12.613       79.060       40.564       33.654     6250.496     1645.435     1132.606        1.708        0.451      158.025       35.452        0.050      352.354       34.944      859.919
06/30/2013  14:02:00      -92.635      -30.256       -7.800       46.475       35.669       24.944     2159.962     1272.247      622.188        0.681        0.203       97.451       23.318        0.057      352.341       34.922      859.899
06/30/2013  14:03:00      -14.887       14.191       23.936       20.092       30.007       24.858      403.683      900.432      617.899        0.146        0.096       20.567       14.857        0.522      353.145       36.330      859.898
06/30/2013  14:04:00       -3.046      -27.997        7.823       35.818       32.095       28.361     1282.940     1030.092      804.366        0.199        0.156       28.162       24.955        0.785      352.713       35.573      859.886
06/30/2013  14:05:00       15.388      -24.833      -10.996       41.518       30.583       29.340     1723.755      935.312      860.808        0.225        0.176       29.214       16.266        0.310      352.326       34.896      859.871
06/30/2013  14:06:00      -44.596        6.176       -5.928       53.537       48.511       28.820     2866.184     2353.302      830.571        0.405        0.303       45.021       11.526        0.066      352.920       35.936      859.875
06/30/2013  14:07:00      -67.447       -6.571        2.389       22.295       37.544       16.093      497.045     1409.540      258.978        0.338        0.108       67.766        9.266        0.019      352.489       35.182      859.873
06/30/2013  14:08:00      -75.848       53.484        2.852       31.640       76.867       27.950     1001.108     5908.481      781.219        0.815        0.385       92.809       19.438        0.044      352.608       35.389      859.841
06/30/2013  14:09:00      -52.366       96.641       -0.132       40.766       52.657       31.633     1661.868     2772.767     1000.629        0.876        0.272      109.917       31.278        0.081      352.821       35.761      859.833
06/30/2013  14:10:00      -96.201      114.535      -24.085       43.818       43.486       29.896     1919.983     1891.058      893.778        1.383        0.235      149.576       29.332        0.038      352.596       35.368      859.812
06/30/2013  14:11:00      -42.992      110.714      -11.444       34.260       52.227       31.670     1173.714     2727.650     1002.977        0.957        0.245      118.768       27.079        0.052      352.688       35.530      859.798
06/30/2013  14:12:00        5.441       25.444       20.973       18.859       27.668       15.568      355.680      765.543      242.367        0.124        0.068       26.020        8.754        0.113      353.333       36.659      859.799
06/30/2013  14:13:00      -75.597      -15.361      -13.002       30.280       18.782       15.523      916.868      352.771      240.954        0.381        0.076       77.141        8.953        0.013      352.526       35.245      859.780
06/30/2013  14:14:00       19.244      -14.135       10.832       30.708       27.663       27.625      942.996      765.244      763.119        0.158        0.124       23.878       22.700        0.904      352.338       34.918      859.762
06/30/2013  14:15:00       11.609      -80.960       -1.691       31.703       37.460       34.659     1005.102     1403.251     1201.267        0.515        0.180       81.788       24.221        0.088      352.217       34.704      859.755
06/30/2013  14:16:00       -7.201      -12.266      -10.981       43.506       33.497       20.705     1892.809     1122.069      428.677        0.188        0.172       14.224       18.955        1.776      352.434       35.084      859.739
06/30/2013  14:17:00       13.514        1.338       31.852       31.078       32.323       24.979      965.860     1044.762      623.972        0.192        0.132       13.580       19.609        2.085      352.564       35.311      859.730
06/30/2013  14:18:00      -47.833       -6.350       20.008       36.262       33.779       28.066     1314.898     1141.012      787.681        0.299        0.162       48.253       17.820        0.136      352.741       35.623      859.721
06/30/2013  14:19:00      -23.800      -11.391      -28.242       34.662       32.916       33.115     1201.456     1083.453     1096.584        0.244        0.169       26.385       23.502        0.793      352.836       35.789      859.724
06/30/2013  14:20:00      -10.819      -10.374       29.711       25.954       32.778       28.538      673.631     1074.409      814.397        0.183        0.128       14.989       20.703        1.908      352.836       35.787      859.708
06/30/2013  14:21:00       54.374       13.052        8.121       36.708       28.482       30.816     1347.495      811.253      949.635        0.315        0.155       55.919       19.932        0.127      352.012       34.347      859.703
06/30/2013  14:22:00       47.287       44.037       19.335       32.482       23.803       22.127     1055.101      566.577      489.613        0.333        0.106       64.617        7.648        0.014      351.696       33.795      859.704
06/30/2013  14:23:00      -38.392       91.717       13.746       59.435       52.706       40.598     3532.530     2777.952     1648.227        0.902        0.398       99.428       35.178        0.125      352.652       35.466      859.689
06/30/2013  14:24:00      -20.979        6.920       17.209       18.131       26.295       19.309      328.746      691.408      372.843        0.109        0.070       22.091       13.797        0.390      353.405       36.786      859.702
06/30/2013  14:25:00      -81.677     -114.740       -2.335       36.456       63.700       32.754     1329.040     4057.726     1072.826        1.315        0.323      140.841       22.451        0.025      352.702       35.553      859.698
06/30/2013  14:26:00      -78.273      -61.408       -8.366       26.757       37.731       24.383      715.938     1423.607      594.538        0.635        0.137       99.487       14.575        0.021      352.653       35.468      859.694
06/30/2013  14:27:00      -45.099       44.233       -1.042       38.019       56.594       28.677     1445.427     3202.913      822.369        0.473        0.274       63.171       24.415        0.149      352.839       35.794      859.665
06/30/2013  14:28:00       27.269      -39.699       12.252       47.934       50.625       23.204     2297.704     2562.882      538.410        0.393        0.270       48.163       24.988        0.269      352.934       35.960      859.647
06/30/2013  14:29:00       19.123       81.756      108.085       54.044       77.101       56.107     2920.734     5944.607     3147.941        1.537        0.601       83.963       53.798        0.411      352.384       34.998      859.606
06/30/2013  14:30:00      -10.248       -5.093       13.747       40.875       53.643       33.739     1670.740     2877.624     1138.325        0.300        0.284       11.443       29.590        6.686      352.080       34.466      859.590
06/30/2013  14:31:00      -23.550      -48.526       -3.366       86.498       87.357       37.901     7481.880     7631.177     1436.494        0.973        0.827       53.938       37.580        0.485      352.854       35.818      859.586
06/30/2013  14:32:00      -49.938     -123.249       -9.272       53.312       46.205       36.696     2842.166     2134.891     1346.573        1.205        0.316      132.982       16.850        0.016      352.784       35.696      859.582
06/30/2013  14:33:00        1.932      -77.633        2.423       77.581       84.553       46.871     6018.853     7149.197     2196.923        1.070        0.768       77.657       34.805        0.201      352.963       36.008      859.570
06/30/2013  14:34:00      -44.133      -28.700        9.992       73.087       50.663       42.382     5341.681     2566.689     1796.235        0.629        0.485       52.644       31.130        0.350      353.034       36.135      859.546
06/30/2013  14:35:00     -140.162     -145.575        4.897      127.962      101.680       54.103    16374.218    10338.726     2927.149        3.524        1.482      202.083       62.817        0.097      352.878       35.858      859.532
06/30/2013  14:36:00     -105.038      -79.674       12.615       92.506       99.960       46.225     8557.402     9992.066     2136.729        1.911        1.034      131.837       46.746        0.126      353.086       36.225      859.514
06/30/2013  14:37:00     -137.432     -125.248        9.143      141.629      139.974       77.878    20058.765    19592.810     6065.027        4.018        2.286      185.943       89.014        0.229      352.952       35.988      859.505
06/30/2013  14:38:00     -154.581     -102.006       11.702      100.663       85.812       51.687    10133.010     7363.634     2671.515        2.730        1.008      185.205       43.082        0.054      352.927       35.945      859.516
06/30/2013  14:39:00     -172.220     -145.587       -2.866       87.014      105.080       48.980     7571.519    11041.719     2399.012        3.593        1.051      225.512       49.553        0.048      352.960       36.001      859.524
06/30/2013  14:40:00      -36.968      -79.888       -5.522      133.534       70.601       52.056    17831.404     4984.560     2709.784        1.665        1.276       88.027       41.401        0.221      352.971       36.024      859.516
06/30/2013  14:41:00      -58.590     -128.976       10.774       76.881      104.527       42.672     5910.688    10925.841     1820.874        1.942        0.933      141.660       36.126        0.065      353.103       36.255      859.527
06/30/2013  14:42:00     -204.933     -111.050        8.976      124.550      104.246       52.240    15512.734    10867.225     2728.971        4.175        1.455      233.087       58.800        0.064      352.879       35.859      859.542
06/30/2013  14:43:00     -244.450     -162.549       -6.734       96.601       64.447       45.788     9331.801     4153.378     2096.583        5.090        0.779      293.561       54.427        0.034      352.736       35.607      859.517
06/30/2013  14:44:00     -282.236      -57.940      -25.223      124.824       66.961       45.347    15580.958     4483.826     2056.368        5.288        1.106      288.122       44.813        0.024      352.688       35.526      859.502
06/30/2013  14:45:00      -56.950       32.510       -6.754       52.490       29.065       15.494     2755.155      844.751      240.074        0.409        0.192       65.576       12.195        0.035      352.774       35.680      859.477
06/30/2013  14:46:00      -55.450      -48.814        8.461       99.926       41.907       36.803     9985.231     1756.164     1354.439        0.931        0.655       73.875       48.595        0.433      352.839       35.792      859.480
06/30/2013  14:47:00     -100.342      -97.032        7.530       69.743       66.638       36.195     4864.071     4440.637     1310.086        1.508        0.531      139.584       41.720        0.089      352.841       35.796      859.485
06/30/2013  14:48:00       24.331      -34.777       42.718       62.886       76.917       43.989     3954.628     5916.162     1935.043        0.771        0.590       42.444       38.835        0.837      352.999       36.073      859.470
06/30/2013  14:49:00       31.051       17.632       53.828       37.756       57.634       38.318     1425.530     3321.675     1468.255        0.519        0.311       35.708       41.511        1.351      352.387       35.003      859.439
06/30/2013  14:50:00       16.111      -17.873        1.939       22.683       18.378       23.861      514.508      337.762      569.348        0.100        0.071       24.063        8.740        0.132      352.783       35.695      859.430
06/30/2013  14:51:00      -14.180      -30.748       18.533       38.667       45.573       29.318     1495.120     2076.932      859.555        0.296        0.222       33.860       20.876        0.380      353.157       36.350      859.435
06/30/2013  14:52:00      -30.609      -66.809       19.669       73.803       83.800       40.242     5446.811     7022.512     1619.439        0.994        0.704       73.488       43.106        0.344      353.100       36.250      859.413
06/30/2013  14:53:00     -122.440     -147.630       -0.986       89.072       93.872       43.271     7933.810     8811.959     1872.422        2.770        0.931      191.797       36.709        0.037      353.186       36.398      859.421
06/30/2013  14:54:00     -236.011       18.104      -25.326       91.421       57.107       35.885     8357.813     3261.152     1287.732        3.479        0.645      236.704       44.160        0.035      352.886       35.872      859.420
06/30/2013  14:55:00     -117.496      -61.535       16.988       75.973       58.808       34.368     5771.933     3458.350     1181.133        1.414        0.521      132.635       28.791        0.047      353.327       36.647      859.428
06/30/2013  14:56:00     -167.806     -135.783      -14.461      100.174       96.162       31.608    10034.885     9247.147      999.071        3.354        1.014      215.861       40.240        0.035      352.829       35.773      859.432
06/30/2013  14:57:00      -93.000      -21.427        5.178       61.439       45.642       29.512     3774.732     2083.184      870.945        0.793        0.336       95.436       35.776        0.141      353.085       36.223      859.415
06/30/2013  14:58:00       42.263      -40.711       15.994       44.572       37.240       35.234     1986.630     1386.808     1241.403        0.416        0.231       58.681       30.400        0.268      352.652       35.466      859.408
06/30/2013  14:59:00        4.052      -21.801       19.123       20.655       38.862       29.072      426.624     1510.232      845.191        0.182        0.139       22.174       21.036        0.900      352.683       35.519      859.394
06/30/2013  15:00:00      -26.601        9.188       14.120       29.749       26.996       25.253      884.984      728.802      637.701        0.162        0.113       28.143       21.321        0.574      353.500       36.950      859.379
06/30/2013  15:01:00      -33.248       23.613      -28.924       63.917       66.817       28.760     4085.401     4464.459      827.143        0.594        0.469       40.780       31.201        0.585      353.054       36.170      859.376
06/30/2013  15:02:00     -187.891      -22.478       -3.722      102.877       89.441       42.428    10583.634     7999.675     1800.144        2.810        1.019      189.231       32.039        0.029      353.176       36.380      859.386
06/30/2013  15:03:00      -52.950      -25.045       -0.930       63.342       58.378       37.920     4012.215     3408.001     1437.930        0.614        0.443       58.575       15.884        0.074      353.069       36.198      859.377
06/30/2013  15:04:00     -223.364      -70.452       -7.292      130.363      102.718       48.761    16994.591    10551.042     2377.679        4.241        1.496      234.211       59.358        0.064      353.278       36.559      859.374
06/30/2013  15:05:00     -225.997      -93.760       -1.770      100.489       78.825       46.310    10097.997     6213.447     2144.629        3.916        0.923      244.675       49.211        0.040      353.045       36.152      859.369
06/30/2013  15:06:00      -66.766      -37.113       11.302       74.401       52.017       38.265     5535.564     2705.805     1464.239        0.783        0.485       76.388       47.748        0.391      353.277       36.560      859.362
06/30/2013  15:07:00     -122.274     -185.184       -7.901       96.462      112.106       58.072     9304.935    12567.667     3372.413        3.727        1.262      221.910       56.205        0.064      352.885       35.871      859.371
06/30/2013  15:08:00     -166.300      -60.437        2.818       84.309       69.526       38.115     7108.073     4833.912     1452.779        2.235        0.670      176.941       39.827        0.051      352.937       35.962      859.358
06/30/2013  15:09:00     -127.088      -44.390      -16.304       38.246       45.968       19.813     1462.788     2113.017      392.564        1.118        0.198      134.617       17.699        0.017      352.631       35.428      859.351
06/30/2013  15:10:00      -64.143       -7.160       -1.694       28.506       19.129       20.375      812.607      365.919      415.132        0.288        0.080       64.541       19.289        0.089      352.914       35.925      859.334
06/30/2013  15:11:00      -58.792      -12.046      -10.582       45.310       24.194       13.221     2052.968      585.353      174.790        0.326        0.141       60.013       16.111        0.072      352.927       35.947      859.306
06/30/2013  15:12:00       41.848       10.307        9.759       21.167       18.622       25.477      448.038      346.790      649.102        0.170        0.072       43.098       16.109        0.140      352.642       35.448      859.292
06/30/2013  15:13:00       64.472       49.503       17.123       24.360       20.399       21.988      593.392      416.107      483.454        0.420        0.075       81.284       11.498        0.020      351.956       34.249      859.280
06/30/2013  15:14:00       41.103       36.752       18.435       28.151       22.222       21.346      792.457      493.832      455.668        0.256        0.087       55.138       13.119        0.057      351.860       34.082      859.275
06/30/2013  15:15:00       20.707        5.271       17.535       35.100       16.675       19.246     1232.038      278.066      370.403        0.132        0.094       21.367       10.054        0.221      351.934       34.210      859.257
06/30/2013  15:16:00      -75.753      -54.550       10.728       83.016       80.447       33.880     6891.587     6471.749     1147.863        1.167        0.726       93.350       28.567        0.094      352.727       35.597      859.245
06/30/2013  15:17:00     -146.362     -134.447      -17.534       76.544       64.022       27.561     5859.005     4098.880      759.616        2.526        0.536      198.741       23.900        0.014      352.824       35.766      859.243
06/30/2013  15:18:00     -100.189      -67.644        4.867       67.724       68.629       38.355     4586.560     4709.903     1471.139        1.270        0.538      120.887       41.045        0.115      353.061       36.181      859.235
06/30/2013  15:19:00     -120.633      -26.511      -10.307       39.149       45.461       23.476     1532.630     2066.688      551.141        0.976        0.208      123.512       17.576        0.020      352.737       35.616      859.221
06/30/2013  15:20:00      -50.435        1.361       15.324       41.324       31.528       27.288     1707.693      994.036      744.617        0.311        0.172       50.453       30.771        0.372      352.852       35.816      859.218
06/30/2013  15:21:00       10.456      -21.182        8.979       28.890       47.233       31.134      834.634     2230.988      969.306        0.234        0.202       23.622       15.654        0.439      352.063       34.437      859.221
06/30/2013  15:22:00      -17.549       15.882       34.695       28.112       39.427       24.096      790.300     1554.474      580.624        0.234        0.146       23.669       24.516        1.073      352.634       35.434      859.208
06/30/2013  15:23:00      -40.859      -47.066        0.333       34.555       47.697       23.634     1194.030     2275.024      558.563        0.396        0.201       62.327       24.096        0.149      352.818       35.756      859.190
06/30/2013  15:24:00       12.691       -4.960        6.691       26.090       38.857       36.430      680.681     1509.892     1327.145        0.187        0.176       13.626       19.160        1.977      352.846       35.806      859.181
06/30/2013  15:25:00        4.994      -78.474      -22.303       74.475       82.008       26.401     5546.572     6725.387      696.997        0.982        0.648       78.632       31.107        0.156      352.673       35.500      859.174
06/30/2013  15:26:00      127.994     -159.422       -4.594       63.954       82.289       38.398     4090.078     6771.527     1474.370        2.707        0.617      204.445       38.209        0.035      352.982       36.040      859.153
06/30/2013  15:27:00       41.641      -75.489        2.661       70.340       53.711       25.891     4947.757     2884.864      670.358        0.797        0.425       86.213       24.440        0.080      353.017       36.103      859.150
06/30/2013  15:28:00      -74.566      -61.727       -1.313       46.014       29.282       23.247     2117.288      857.415      540.428        0.644        0.176       96.800       20.260        0.044      353.038       36.142      859.149
06/30/2013  15:29:00      -58.699      -36.646        3.053       38.720       38.328       16.849     1499.260     1469.043      283.886        0.402        0.163       69.199       16.894        0.060      352.918       35.931      859.151
06/30/2013  15:30:00      -29.373       -1.277       30.468       36.411       39.901       22.988     1325.767     1592.083      528.443        0.262        0.172       29.401       20.435        0.483      353.368       36.720      859.149
06/30/2013  15:31:00      -64.008       24.671       15.519       40.635       35.117       27.473     1651.216     1233.178      754.744        0.429        0.182       68.598       19.526        0.081      353.313       36.623      859.148
06/30/2013  15:32:00     -115.535      -25.145       -7.777       33.882       37.862       26.926     1147.983     1433.551      725.000        0.867        0.165      118.240       15.885        0.018      353.040       36.145      859.148
06/30/2013  15:33:00     -126.942       76.690       -0.815       38.665       29.793       23.386     1494.969      887.620      546.928        1.246        0.146      148.309       18.169        0.015      353.010       36.090      859.140
06/30/2013  15:34:00      -29.878       87.437        8.034       37.390       41.452       26.711     1398.026     1718.290      713.483        0.622        0.191       92.401       15.666        0.029      353.069       36.194      859.135
06/30/2013  15:35:00      -37.218        1.475       14.929       43.645       31.991       19.209     1904.866     1023.417      368.985        0.245        0.165       37.247       23.807        0.409      353.068       36.194      859.149
06/30/2013  15:36:00      -81.540     -130.907       11.690      106.075      119.515       45.822    11251.947    14283.950     2099.675        2.577        1.382      154.225       44.072        0.082      353.262       36.530      859.151
06/30/2013  15:37:00      -92.643     -197.375        1.385      108.232      102.191       47.923    11714.261    10442.913     2296.585        3.599        1.223      218.036       52.680        0.058      353.198       36.417      859.135
06/30/2013  15:38:00     -218.883     -241.245        6.496      239.378      153.006       83.109    57302.063    23410.916     6907.037        9.687        4.381      325.744       96.922        0.089      353.324       36.638      859.092
06/30/2013  15:39:00     -330.837      -60.727      -21.765      212.221      152.044       68.164    45037.582    23117.448     4646.271        9.319        3.640      336.364       82.427        0.060      353.180       36.387      859.120
06/30/2013  15:40:00     -351.723     -322.431      -10.303      154.314      150.410       78.524    23812.905    22623.070     6166.077       14.018        2.630      477.149       73.193        0.024      352.910       35.913      859.117
06/30/2013  15:41:00     -173.278     -154.567       -0.965      122.315      115.974       63.696    14960.970    13450.046     4057.240        4.319        1.623      232.199       64.621        0.077      353.128       36.295      859.118
06/30/2013  15:42:00     -208.177     -180.237        8.590      119.569      125.906       64.102    14296.836    15852.208     4109.059        5.507        1.713      275.360       67.536        0.060      352.983       36.041      859.079
06/30/2013  15:43:00     -165.413      -87.066       -4.390      140.391       90.942       48.949    19709.551     8270.449     2395.985        3.266        1.519      186.928       62.856        0.113      352.980       36.035      859.060
06/30/2013  15:44:00      -33.577     -123.683        8.955       76.720       83.198       41.153     5885.997     6921.875     1693.590        1.550        0.725      128.160       39.306        0.094      353.005       36.083      859.019
06/30/2013  15:45:00     -230.816     -177.184        0.665      144.230      123.137       54.811    20802.269    15162.809     3004.271        6.181        1.948      290.982       53.598        0.034      353.253       36.514      859.012
06/30/2013  15:46:00     -280.123     -157.818       -9.481      155.773      155.010       84.681    24265.110    24028.023     7170.861        7.945        2.773      321.520       87.491        0.074      353.405       36.779      859.007
06/30/2013  15:47:00     -361.565     -197.173      -11.568      166.469      119.546       74.229    27711.793    14291.238     5509.873       10.862        2.376      411.832       76.734        0.035      353.212       36.441      859.004
06/30/2013  15:48:00     -146.928     -143.758        5.058      148.179      110.415       61.927    21956.890    12191.531     3834.989        4.012        1.899      205.558       51.259        0.062      353.362       36.706      858.991
06/30/2013  15:49:00     -150.648     -318.511        8.675      131.166      163.592       71.633    17204.520    26762.323     5131.256        8.665        2.455      352.341       61.935        0.031      353.241       36.493      858.979
06/30/2013  15:50:00     -403.970     -186.322      -17.134      169.649      177.127       75.025    28780.645    31374.025     5628.727       13.198        3.289      444.868       74.904        0.028      353.332       36.653      858.972
06/30/2013  15:51:00     -454.535      -43.341       -9.092      233.445      191.155       93.672    54496.613    36540.387     8774.503       15.417        4.991      456.597      102.183        0.050      353.353       36.690      858.987
06/30/2013  15:52:00     -350.548      -96.327      -12.201      266.586      180.279       92.355    71068.324    32500.363     8529.455       12.218        5.605      363.542      110.057        0.092      353.430       36.824      858.998
06/30/2013  15:53:00     -301.928      -37.400       -4.130      155.657      111.753       73.396    24229.224    12488.841     5386.951        6.733        2.105      304.235       80.621        0.070      353.262       36.531      859.020
06/30/2013  15:54:00     -413.245       81.616      -41.256      151.689      128.177       69.810    23009.439    16429.277     4873.431       11.171        2.216      421.227       73.018        0.030      353.026       36.115      858.978
06/30/2013  15:55:00     -284.559       10.525      -35.987       86.174       71.814       36.215     7425.955     5157.244     1311.544        4.813        0.695      284.753       32.860        0.013      352.987       36.046      858.938
06/30/2013  15:56:00     -261.847        0.051      -10.807      114.894       99.119       62.634    13200.534     9824.598     3923.030        4.781        1.347      261.847       65.160        0.062      353.269       36.541      858.941
06/30/2013  15:57:00     -215.818      -95.821        1.022      133.463      116.552       60.634    17812.430    13584.463     3676.518        4.541        1.754      236.134       64.785        0.075      353.498       36.944      858.963
06/30/2013  15:58:00     -446.017     -349.557      -34.863      188.117      169.428       97.479    35387.902    28706.012     9502.210       19.795        3.680      566.675       99.477        0.031      353.141       36.318      858.956
06/30/2013  15:59:00     -295.246     -251.901        5.337      198.933      140.414       82.495    39574.243    19716.033     6805.427       10.836        3.305      388.103       91.802        0.056      353.058       36.173      858.918
06/30/2013  16:00:00     -259.612     -161.816       13.004      178.828      158.187       77.713    31979.576    25023.226     6039.383        7.838        3.152      305.914       78.500        0.066      353.189       36.401      858.882
06/30/2013  16:01:00     -400.601      -17.281       -9.631      223.779      164.925      100.790    50076.963    27200.312    10158.528       12.414        4.372      400.973      103.209        0.066      353.285       36.569      858.863
06/30/2013  16:02:00     -223.247      -74.529       -5.262      173.993      128.049       74.216    30273.717    16396.535     5507.952        5.379        2.609      235.359       80.267        0.116      353.438       36.839      858.865
06/30/2013  16:03:00     -178.550     -106.302       10.360      119.050       98.444       54.631    14172.868     9691.165     2984.574        3.506        1.342      207.799       61.607        0.088      353.359       36.700      858.886
06/30/2013  16:04:00     -241.512     -157.481       -0.169      145.836      110.144       67.252    21268.164    12131.610     4522.847        6.052        1.896      288.319       72.612        0.063      353.163       36.355      858.871
06/30/2013  16:05:00     -276.059     -245.042       15.249      216.619      135.745       89.602    46923.794    18426.705     8028.533       10.492        3.669      369.126      111.137        0.091      353.194       36.411      858.878
06/30/2013  16:06:00     -430.687     -232.311      -28.233      173.762      163.463       93.961    30193.120    26720.297     8828.600       15.299        3.287      489.346       90.636        0.034      353.052       36.162      858.853
06/30/2013  16:07:00     -396.478     -126.657      -18.221      181.322      131.676       58.088    32877.635    17338.497     3374.237       11.357        2.680      416.217       72.725        0.031      353.244       36.499      858.879
06/30/2013  16:08:00     -371.744      -78.481        3.087      186.659      140.488       87.381    34841.546    19736.836     7635.524       10.328        3.111      379.938      104.288        0.075      353.112       36.267      858.880
06/30/2013  16:09:00     -381.363      -44.165      -13.551      143.724      112.814       66.434    20656.703    12727.021     4413.484        9.268        1.890      383.912       68.719        0.032      353.175       36.377      858.872
06/30/2013  16:10:00     -547.325      -86.262      -33.236      169.237      171.213       69.350    28641.255    29313.725     4809.414       18.542        3.138      554.081       66.851        0.015      353.017       36.100      858.844
06/30/2013  16:11:00     -452.503     -166.485        1.461      157.772      141.251       70.178    24891.868    19951.704     4924.947       14.111        2.488      482.158       69.331        0.021      353.005       36.077      858.844
06/30/2013  16:12:00     -281.220     -109.745       -3.927      159.263      181.519       79.284    25364.827    32949.270     6285.917        7.786        3.230      301.875       81.349        0.073      353.229       36.472      858.840
06/30/2013  16:13:00     -405.951     -177.402      -26.623      249.074      163.242       98.966    62037.829    26647.949     9794.326       14.771        4.924      443.021      115.920        0.068      353.093       36.233      858.853
06/30/2013  16:14:00     -347.778     -187.623       -9.086      184.775      127.706       64.708    34141.962    16308.947     4187.145       10.543        2.732      395.161       52.623        0.018      352.896       35.889      858.857
06/30/2013  16:15:00     -323.842     -220.186      -10.792      168.220      164.051       76.049    28298.033    26912.764     5783.430       10.722        3.050      391.607       72.957        0.035      352.993       36.058      858.869
06/30/2013  16:16:00     -378.143     -321.668      -17.460      179.914      152.355       83.044    32368.974    23211.919     6896.347       15.461        3.124      496.450       87.131        0.031      352.912       35.916      858.867
06/30/2013  16:17:00     -397.411     -323.562       -0.236      168.700      168.353       95.074    28459.549    28342.884     9039.103       16.422        3.292      512.472       92.103        0.032      352.894       35.884      858.865
06/30/2013  16:18:00     -327.308     -237.841      -15.062      206.159      160.542       80.625    42501.645    25773.842     6500.398       11.934        3.739      404.598      103.788        0.066      352.920       35.931      858.862
06/30/2013  16:19:00     -175.132     -192.690       -9.704       94.889      111.988       50.344     9003.890    12541.343     2534.537        4.598        1.204      260.386       48.127        0.034      353.090       36.229      858.842
06/30/2013  16:20:00     -312.519      -80.978       14.873      190.517      137.166       84.453    36296.727    18814.552     7132.303        8.333        3.112      322.840       98.259        0.093      353.309       36.612      858.865
06/30/2013  16:21:00     -370.411     -122.463       -1.686      189.536      193.997       85.394    35923.709    37634.726     7292.106       11.651        4.043      390.130       89.620        0.053      353.238       36.487      858.877
06/30/2013  16:22:00     -425.986     -170.665      -21.202      155.305      164.040       88.514    24119.669    26909.026     7834.765       13.494        2.943      458.901       67.366        0.022      353.099       36.243      858.885
06/30/2013  16:23:00     -290.745     -177.930      -15.543      132.851      102.321       67.566    17649.459    10469.547     4565.181        7.455        1.634      340.869       72.022        0.045      352.867       35.837      858.878
06/30/2013  16:24:00     -342.056     -131.181      -17.360      141.806      125.642       71.820    20109.043    15785.923     5158.144        8.777        2.053      366.348       72.777        0.039      352.997       36.065      858.844
06/30/2013  16:25:00     -295.250      -26.270       -8.604      207.465      140.146       51.520    43041.590    19641.037     2654.307        7.662        3.267      296.417       55.610        0.035      353.166       36.362      858.837
06/30/2013  16:26:00     -261.527      -83.105       -0.364      192.937      172.762       70.268    37224.808    29846.757     4937.641        7.364        3.600      274.413       88.823        0.105      353.385       36.747      858.834
06/30/2013  16:27:00     -389.114     -203.061       -7.927      193.279      146.998       90.675    37356.920    21608.457     8221.908       12.993        3.359      438.911       89.394        0.041      353.175       36.376      858.839
06/30/2013  16:28:00     -500.745     -323.422      -23.856      236.799      172.700      112.416    56073.549    29825.203    12637.439       22.721        4.927      596.110      115.120        0.037      352.934       35.954      858.813
06/30/2013  16:29:00     -161.514     -157.515        0.408      103.132      107.712       62.436    10636.259    11601.967     3898.212        3.851        1.307      225.605       57.023        0.064      353.225       36.466      858.828
06/30/2013  16:30:00     -348.723     -344.807        3.189      218.908      211.343       98.711    47920.753    44665.853     9743.827       17.140        5.117      490.407      118.447        0.058      353.087       36.223      858.835
06/30/2013  16:31:00     -345.671     -179.168      -19.134      176.312      165.964       82.019    31085.954    27544.169     6727.040       10.864        3.268      389.345       96.486        0.061      353.133       36.302      858.842
06/30/2013  16:32:00     -520.346      -85.082      -19.461      190.212      140.126       74.066    36180.558    19635.200     5485.712       16.983        3.065      527.256       77.433        0.022      352.997       36.064      858.831
06/30/2013  16:33:00     -458.488      -36.243      -16.975      191.685      109.987       77.078    36743.285    12097.048     5940.997       13.329        2.739      459.918       95.455        0.043      353.173       36.373      858.847
06/30/2013  16:34:00     -374.977      -77.806       -9.704      180.022      160.418       75.459    32407.974    25734.055     5693.998       10.528        3.192      382.964       82.691        0.047      353.259       36.524      858.867
06/30/2013  16:35:00     -103.257      -41.946       20.010      144.188      102.010       65.147    20790.036    10405.975     4244.149        2.412        1.772      111.452       59.325        0.283      353.419       36.808      858.870
06/30/2013  16:36:00     -466.925      -62.860      -21.165      184.141      131.739       87.391    33907.925    17355.226     7637.224       14.065        2.945      471.138       91.085        0.037      352.958       35.996      858.868
06/30/2013  16:37:00     -267.152     -100.193        9.036      187.234      126.968       86.733    35056.393    16120.821     7522.552        7.008        2.935      285.322       92.438        0.105      353.041       36.142      858.818
06/30/2013  16:38:00     -497.989     -107.422      -27.567      169.032      160.999       73.375    28571.703    25920.830     5383.818       16.007        2.994      509.443       77.032        0.023      353.086       36.220      858.817
06/30/2013  16:39:00     -296.805     -166.140      -17.618      156.482      136.272       83.280    24486.540    18570.113     6935.580        8.299        2.500      340.141       82.154        0.058      353.148       36.329      858.863
06/30/2013  16:40:00     -249.389     -160.831      -10.925      129.471      108.382       63.181    16762.742    11746.764     3991.807        6.033        1.625      296.751       66.324        0.050      353.119       36.277      858.866
06/30/2013  16:41:00     -214.151     -163.002        9.215      160.961      118.441       76.734    25908.540    14028.275     5888.166        5.916        2.291      269.128       80.947        0.090      353.207       36.434      858.911
06/30/2013  16:42:00     -302.304     -260.354       -7.267      173.361      164.135       89.636    30054.156    26940.439     8034.688       11.211        3.251      398.964       89.041        0.050      352.977       36.031      858.899
06/30/2013  16:43:00     -392.829     -109.509        1.941      193.274      153.999       86.434    37355.009    23715.678     7470.750       11.741        3.427      407.808       95.526        0.055      352.933       35.954      858.884
06/30/2013  16:44:00     -359.232     -311.999       15.390      236.315      179.582       96.131    55844.848    32249.586     9241.075       16.196        4.867      475.805      103.531        0.047      352.831       35.774      858.883
06/30/2013  16:45:00     -387.203     -277.967       -5.983      227.298      155.176      103.625    51664.456    24079.607    10738.058       15.684        4.324      476.646      108.071        0.051      352.785       35.692      858.877
06/30/2013  16:46:00     -310.060     -270.283        2.014      185.945      146.213       93.862    34575.518    21378.247     8809.999       11.697        3.238      411.327       97.395        0.056      352.897       35.891      858.903
06/30/2013  16:47:00     -362.136     -193.302       -4.686      245.484      174.249       96.859    60262.526    30362.714     9381.655       13.425        5.000      410.498      111.462        0.074      352.912       35.918      858.906
06/30/2013  16:48:00     -417.423     -207.226       -2.725      261.136      197.063      101.005    68191.901    38833.867    10201.994       16.719        5.861      466.030      118.566        0.065      352.968       36.015      858.903
06/30/2013  16:49:00     -382.263     -270.186       -9.202      205.267      184.744      102.706    42134.456    34130.177    10548.549       15.299        4.341      468.108      104.936        0.050      352.947       35.977      858.906
06/30/2013  16:50:00     -214.619     -142.335        3.055      161.855      118.986       72.496    26196.959    14157.750     5255.631        5.596        2.281      257.528       81.228        0.099      353.009       36.087      858.937
06/30/2013  16:51:00     -335.036      -86.881       -8.065      137.071      138.468       66.108    18788.516    19173.362     4370.292        8.109        2.117      346.118       73.834        0.046      353.003       36.077      858.935
06/30/2013  16:52:00     -160.715      -94.318       17.535      191.226      142.758       85.233    36567.504    20379.792     7264.746        4.961        3.211      186.347       92.464        0.246      353.087       36.225      858.924
06/30/2013  16:53:00     -231.256      -69.089        8.357      155.098      143.944       71.997    24055.525    20719.738     5183.503        5.413        2.498      241.356       77.138        0.102      353.118       36.278      858.927
06/30/2013  16:54:00     -351.865     -257.403      -13.883      211.230      179.050       97.139    44617.962    32058.945     9435.986       13.817        4.306      435.964      105.480        0.059      352.971       36.021      858.926
06/30/2013  16:55:00     -435.672     -292.114       -3.009      275.670      186.728      105.847    75994.080    34867.170    11203.685       19.858        6.103      524.539      135.192        0.066      352.762       35.655      858.915
06/30/2013  16:56:00     -375.470     -279.916       -1.165      221.130      160.559      101.370    48898.396    25779.170    10275.976       15.213        4.248      468.328      113.813        0.059      352.702       35.549      858.919
06/30/2013  16:57:00     -274.481     -191.325        6.223      186.579      162.366       80.639    34811.621    26362.809     6502.728        8.982        3.384      334.582       85.921        0.066      352.911       35.915      858.906
06/30/2013  16:58:00     -252.046      -45.240       20.050      231.716      122.223       84.000    53692.303    14938.397     7056.056        7.082        3.784      256.074      108.930        0.181      353.041       36.142      858.929
06/30/2013  16:59:00     -214.377      -36.353        7.440      129.054      134.177       64.968    16655.040    18003.422     4220.777        4.310        1.944      217.437       60.512        0.077      353.194       36.411      858.954
06/30/2013  17:00:00     -368.334     -183.867      -10.434      179.882      122.127       86.275    32357.454    14915.102     7443.342       11.214        2.736      411.676       85.565        0.043      353.021       36.108      858.951
06/30/2013  17:01:00     -463.764     -135.001      -16.029      182.952      119.232       93.194    33471.338    14216.321     8685.106       14.495        2.819      483.014       94.260        0.038      352.831       35.775      858.943
06/30/2013  17:02:00     -247.188     -174.016       -0.955      164.940      134.756       84.771    27205.132    18159.263     7186.197        7.196        2.628      302.297       82.058        0.074      353.031       36.126      858.944
06/30/2013  17:03:00     -418.425     -300.713       -8.727      216.325      136.723       94.428    46796.476    18693.256     8916.704       16.998        3.720      515.275       92.715        0.032      352.804       35.726      858.923
06/30/2013  17:04:00     -486.614     -364.370       -9.163      247.478      173.276      113.983    61245.477    30024.523    12992.157       23.693        5.213      607.913      128.296        0.045      352.631       35.425      858.914
06/30/2013  17:05:00     -568.189     -321.977      -14.544      213.586      197.353      111.631    45618.901    38948.031    12461.453       26.185        4.851      653.076      121.001        0.034      352.549       35.280      858.945
06/30/2013  17:06:00     -409.843     -282.202      -12.915      242.315      165.096       91.218    58716.337    27256.839     8320.766       17.102        4.715      497.604      119.926        0.058      352.617       35.400      858.964
06/30/2013  17:07:00     -351.125     -120.243       -8.315      175.627      117.192       75.128    30844.776    13733.968     5644.151        9.401        2.511      371.143       77.457        0.044      352.810       35.740      858.962
06/30/2013  17:08:00     -356.568      -52.818      -21.005      190.339      125.264       73.385    36228.909    15691.140     5385.353        9.383        2.865      360.459       85.205        0.056      352.878       35.855      858.964
06/30/2013  17:09:00     -233.207     -160.732       -1.445      168.874      123.779       76.731    28518.411    15321.204     5887.678        6.496        2.486      283.232       85.376        0.091      352.853       35.813      858.986
06/30/2013  17:10:00     -433.171     -218.039      -28.652      223.580      207.462       92.454    49987.820    43040.490     8547.819       16.877        5.079      484.952      108.979        0.051      352.651       35.459      858.994
06/30/2013  17:11:00     -194.781      -12.621       -2.669      159.207      114.570       71.087    25346.721    13126.347     5053.382        4.081        2.176      195.190       68.087        0.122      352.731       35.601      858.974
06/30/2013  17:12:00     -455.327     -311.378       -5.180      253.556      146.560      104.662    64290.865    21479.950    10954.033       20.050        4.836      551.615      122.105        0.049      352.686       35.519      858.999
06/30/2013  17:13:00     -470.100     -170.737      -16.742      270.696      169.950       89.301    73276.312    28882.892     7974.722       18.026        5.507      500.145       95.817        0.037      352.577       35.332      859.003
06/30/2013  17:14:00     -352.048     -152.784       -6.151      180.362      133.605       80.739    32530.539    17850.372     6518.814       10.210        2.845      383.772       80.235        0.044      352.675       35.501      858.987
06/30/2013  17:15:00     -315.527     -199.437       -6.577      198.860      176.236       94.271    39545.144    31058.983     8887.062       10.942        3.975      373.273      105.264        0.080      352.742       35.620      858.988
06/30/2013  17:16:00     -465.448     -283.395      -35.524      248.395      199.779       89.549    61700.277    39911.765     8018.980       20.390        5.482      544.935       95.390        0.031      352.594       35.360      858.999
06/30/2013  17:17:00     -463.954     -246.984       -9.177      267.786      226.147      123.602    71709.128    51142.610    15277.482       20.721        6.906      525.600      146.739        0.078      352.561       35.302      859.005
06/30/2013  17:18:00     -311.432     -142.424       -1.320      193.100      201.411      105.521    37287.742    40566.317    11134.623       10.311        4.449      342.454      129.058        0.142      352.688       35.525      859.017
06/30/2013  17:19:00     -471.015      -95.627      -28.921      161.381      191.206       79.052    26043.745    36559.738     6249.223       15.033        3.443      480.624       86.234        0.032      352.653       35.463      859.004
06/30/2013  17:20:00     -409.032      -54.455      -34.889      155.977      181.590       69.144    24328.885    32975.071     4780.836       11.677        3.104      412.641       67.026        0.026      352.662       35.478      859.027
06/30/2013  17:21:00     -370.214     -207.940      -14.460      148.679      140.607       74.189    22105.412    19770.454     5504.063       11.393        2.369      424.615       83.516        0.039      352.681       35.512      859.029
06/30/2013  17:22:00     -426.584     -192.785      -15.161      198.425      174.815       85.034    39372.639    30560.342     7230.713       14.825        3.858      468.124       76.413        0.027      352.657       35.469      859.001
06/30/2013  17:23:00     -424.766     -236.742      -11.640      308.398      190.659      120.644    95109.475    36350.917    14555.046       19.128        7.301      486.285      143.824        0.087      352.524       35.237      858.982
06/30/2013  17:24:00     -454.478     -188.771      -20.605      230.661      189.687      109.128    53204.649    35981.136    11908.886       17.183        5.055      492.123      120.836        0.060      352.510       35.212      859.005
06/30/2013  17:25:00     -377.781     -211.195       -6.991      273.124      217.507      104.513    74596.447    47309.283    10922.982       16.007        6.641      432.807      139.376        0.104      352.490       35.178      859.030
06/30/2013  17:26:00     -415.973     -278.883        1.582      254.512      199.009      115.643    64776.204    39604.591    13373.353       18.426        5.888      500.809      125.333        0.063      352.450       35.108      858.986
06/30/2013  17:27:00     -418.334     -208.765      -20.792      179.181      174.987       93.688    32105.781    30620.341     8777.368       14.525        3.575      467.532      101.111        0.047      352.503       35.199      858.998
06/30/2013  17:28:00     -236.408     -114.355       -9.252      121.774       99.531       56.051    14828.973     9906.463     3141.748        4.846        1.394      262.613       56.086        0.046      352.681       35.511      858.991
06/30/2013  17:29:00     -139.525     -125.603       17.271      150.373       85.816       67.718    22612.100     7364.454     4585.766        3.505        1.728      187.733       79.408        0.179      352.786       35.696      858.980
06/30/2013  17:30:00     -248.024     -139.044        7.337      141.817      178.304       71.560    20112.079    31792.445     5120.845        6.895        2.851      284.340       75.807        0.071      352.712       35.569      858.976
06/30/2013  17:31:00     -366.631     -180.403      -13.530      115.914      112.694       66.773    13435.983    12700.045     4458.577        9.886        1.530      408.612       70.922        0.030      352.623       35.410      858.956
06/30/2013  17:32:00     -342.045      -86.572       -4.156      119.298      101.532       60.374    14231.908    10308.655     3645.052        7.634        1.409      352.830       57.372        0.026      352.731       35.598      858.959
06/30/2013  17:33:00     -160.841     -134.525        2.010      171.669      132.810       92.362    29470.149    17638.599     8530.770        4.979        2.782      209.683       98.052        0.219      352.733       35.604      858.945
06/30/2013  17:34:00     -401.404     -228.410       -9.038      271.301      149.592       84.742    73603.982    22377.716     7181.195       15.825        5.158      461.840       84.263        0.033      352.571       35.318      858.929
06/30/2013  17:35:00     -449.347      -90.240       -8.834      180.315      159.436      101.007    32513.559    25419.828    10202.419       13.912        3.407      458.318       98.742        0.046      352.652       35.462      858.923
06/30/2013  17:36:00     -423.579      -73.478      -33.199      140.144      155.196       83.724    19640.323    24085.837     7009.753       11.832        2.537      429.904       82.173        0.037      352.635       35.431      858.952
06/30/2013  17:37:00     -383.701     -212.589      -19.567      155.051      135.548       82.224    24040.919    18373.237     6760.738       12.098        2.459      438.658       85.161        0.038      352.559       35.300      858.931
06/30/2013  17:38:00     -244.860     -233.048       10.682      232.358      134.196       86.426    53990.328    18008.462     7469.377        9.691        3.973      338.035      102.457        0.092      352.581       35.338      858.949
06/30/2013  17:39:00     -310.092     -166.553       -8.294      174.928      121.607       75.312    30599.839    14788.327     5671.845        8.750        2.553      351.990       76.137        0.047      352.460       35.126      858.936
06/30/2013  17:40:00     -365.695     -236.991      -20.831      182.608      157.990       87.314    33345.857    24960.973     7623.779       12.812        3.297      435.772       89.245        0.042      352.504       35.202      858.937
06/30/2013  17:41:00     -417.836      -55.407      -28.767      152.761      136.555       81.789    23335.906    18647.324     6689.386       11.357        2.434      421.494       86.099        0.042      352.479       35.158      858.927
06/30/2013  17:42:00     -328.749     -101.756      -15.006      182.285      147.841       69.005    33227.900    21856.953     4761.719        8.924        2.992      344.137       71.361        0.043      352.595       35.362      858.920
06/30/2013  17:43:00     -204.486     -166.563       11.413      152.228      126.824       82.242    23173.286    16084.295     6763.761        5.785        2.301      263.738       85.486        0.105      352.598       35.367      858.950
06/30/2013  17:44:00     -275.398     -266.673       22.386      218.517      181.650       95.901    47749.541    32996.558     9196.984       11.868        4.497      383.352      105.981        0.076      352.468       35.140      858.933
06/30/2013  17:45:00     -198.674      -44.381      -14.635      150.604      194.648       88.651    22681.676    37888.010     7859.016        5.503        3.421      203.571       79.581        0.153      352.597       35.367      858.906
06/30/2013  17:46:00     -433.099     -128.028      -11.039      246.296      202.886       92.237    60661.557    41162.634     8507.732       15.719        5.517      451.626      111.361        0.061      352.512       35.216      858.943
06/30/2013  17:47:00     -568.037      -79.581      -44.914      224.266      143.251       82.088    50295.108    20520.933     6738.518       20.427        3.878      573.585      103.122        0.032      352.442       35.093      858.958
06/30/2013  17:48:00     -390.637     -187.224       -5.602      256.453      192.877      103.561    65768.007    37201.485    10724.828       15.067        5.685      433.186      119.448        0.076      352.428       35.071      858.959
06/30/2013  17:49:00     -320.243     -221.164       -9.363      202.718      129.424       81.897    41094.633    16750.485     6707.162       10.804        3.228      389.190       86.583        0.049      352.417       35.051      858.961
06/30/2013  17:50:00     -354.145     -154.939       -0.894      219.589      119.615       86.429    48219.431    14307.768     7469.939       10.970        3.500      386.555      102.306        0.070      352.410       35.038      858.958
06/30/2013  17:51:00     -164.898     -122.867       14.033      150.057      127.024       64.947    22517.094    16135.020     4218.155        4.267        2.144      205.640       70.432        0.117      352.501       35.198      858.958
06/30/2013  17:52:00     -163.621      -65.632       12.176      134.773      123.931       70.331    18163.634    15358.815     4946.381        3.484        1.923      176.294       76.912        0.190      352.626       35.418      858.945
06/30/2013  17:53:00     -412.354     -100.731      -24.638      275.871      149.215       90.272    76104.727    22265.207     8149.097       14.363        5.326      424.479      112.494        0.070      352.471       35.145      858.934
06/30/2013  17:54:00     -338.863      -95.486      -28.465      183.527      140.640       72.226    33682.220    19779.483     5216.561        9.171        2.934      352.059       83.211        0.056      352.491       35.180      858.931
06/30/2013  17:55:00     -279.538      -43.206       -1.002      170.018      117.732       76.514    28906.093    13860.708     5854.321        6.431        2.431      282.857       80.385        0.081      352.557       35.295      858.927
06/30/2013  17:56:00     -267.021      -87.567        3.653      154.038      107.816       72.013    23727.578    11624.323     5185.865        5.975        2.027      281.012       79.552        0.080      352.478       35.157      858.948
06/30/2013  17:57:00     -250.167     -125.532      -18.705      128.957       88.641       57.420    16629.785     7857.169     3297.045        5.323        1.389      279.896       45.706        0.027      352.531       35.249      858.945
06/30/2013  17:58:00     -273.308     -196.070        9.638      185.829      160.183      100.633    34532.426    25658.462    10127.000        9.176        3.516      336.364      107.495        0.102      352.473       35.149      858.950
06/30/2013  17:59:00     -258.994     -202.445       14.845      186.755      150.857       93.718    34877.514    22757.713     8783.141        8.734        3.321      328.728      102.678        0.098      352.429       35.072      858.933
06/30/2013  18:00:00     -240.886      -42.096       -9.188      154.899      149.232       75.957    23993.784    22270.295     5769.446        5.595        2.602      244.537       77.255        0.100      352.508       35.210      858.955
06/30/2013  18:01:00     -282.973      -26.231       -5.014      126.252       91.702       73.624    15939.519     8409.297     5420.494        5.527        1.488      284.186       73.318        0.067      352.477       35.157      858.959
06/30/2013  18:02:00     -252.029      -93.394       -0.392      201.830       99.219       77.164    40735.343     9844.504     5954.308        6.438        2.827      268.777       86.520        0.104      352.511       35.215      858.950
06/30/2013  18:03:00     -487.207     -161.441      -29.781      205.383      104.792       59.519    42182.342    10981.330     3542.493       16.050        2.835      513.258       80.947        0.025      352.370       34.967      858.955
06/30/2013  18:04:00     -255.434     -123.530        1.485      139.983      138.477       72.587    19595.329    19175.896     5268.895        6.227        2.202      283.736       72.717        0.066      352.476       35.153      858.976
06/30/2013  18:05:00     -394.178      -76.444       -4.434      214.760      118.034       80.338    46121.784    13932.052     6454.183       11.386        3.325      401.522       90.639        0.051      352.385       34.994      858.961
06/30/2013  18:06:00     -348.858     -107.072       -3.920      187.162      159.621       85.563    35029.640    25478.710     7321.057       10.049        3.391      364.919       87.090        0.057      352.355       34.942      858.948
06/30/2013  18:07:00     -223.131     -135.993       24.045      218.121      181.012      108.614    47576.839    32765.214    11796.940        8.048        4.607      261.307      123.318        0.223      352.399       35.019      858.934
06/30/2013  18:08:00     -520.596     -279.235      -18.500      239.256      176.875       92.708    57243.328    31284.819     8594.821       22.321        4.856      590.756       85.609        0.021      352.295       34.837      858.929
06/30/2013  18:09:00     -326.724     -117.947        7.989      251.356      142.949       85.824    63179.652    20434.476     7365.767       10.583        4.549      347.361      110.377        0.101      352.360       34.951      858.934
06/30/2013  18:10:00     -394.793     -287.614      -17.235      206.597      163.466       83.800    42682.420    26721.057     7022.462       15.764        3.821      488.450       76.229        0.024      352.213       34.693      858.935
06/30/2013  18:11:00     -345.746     -208.411       -9.872      140.772      152.447       86.175    19816.890    23240.182     7426.135       10.677        2.524      403.702       82.332        0.042      352.215       34.695      858.927
06/30/2013  18:12:00     -394.504     -112.410      -23.472      164.686      152.568       72.430    27121.317    23277.063     5246.096       11.222        2.782      410.206       80.317        0.038      352.295       34.836      858.949
06/30/2013  18:13:00     -582.621     -139.533      -32.479      216.176      138.795       87.784    46732.022    19264.062     7706.002       21.682        3.685      599.097       94.253        0.025      352.236       34.734      858.964
06/30/2013  18:14:00     -321.338      -88.281        0.347      167.944      155.039       82.126    28205.224    24037.013     6744.646        8.501        2.949      333.244       81.679        0.060      352.273       34.796      858.964
06/30/2013  18:15:00     -272.796       -9.954       -2.484      125.187       96.347       73.114    15671.694     9282.684     5345.693        5.241        1.515      272.977       67.371        0.061      352.387       34.999      858.964
06/30/2013  18:16:00     -496.788      -24.293      -18.813      219.294      140.233       86.151    48089.934    19665.186     7422.015       16.144        3.759      497.382       86.158        0.030      352.209       34.685      858.956
06/30/2013  18:17:00     -488.469     -173.147      -15.454      236.892      147.179       90.695    56117.600    21661.539     8225.566       17.740        4.300      518.249       92.267        0.032      352.189       34.652      858.964
06/30/2013  18:18:00     -386.804      -85.341        1.821      236.440      143.586       87.577    55903.977    20616.874     7669.727       12.053        4.210      396.107      107.884        0.074      352.195       34.663      858.966
06/30/2013  18:19:00     -356.343      -94.508        2.144      198.259      143.816       85.755    39306.479    20682.984     7353.841       10.162        3.367      368.662       98.989        0.072      352.184       34.644      858.989
06/30/2013  18:20:00     -364.687      -59.667      -22.497      169.917      168.941       74.174    28871.866    28540.978     5501.792        9.998        3.146      369.536       83.910        0.052      352.221       34.707      858.991
06/30/2013  18:21:00     -367.136      -22.523       -4.053      177.814      156.670       83.061    31617.918    24545.484     6899.205        9.918        3.153      367.826       87.123        0.056      352.212       34.691      859.003
06/30/2013  18:22:00     -214.430      -65.717       -4.992      115.741      114.634       61.632    13395.952    13140.971     3798.517        4.032        1.517      224.274       49.787        0.049      352.344       34.922      859.018
06/30/2013  18:23:00     -151.892     -126.068       -1.156       86.029      130.822       64.872     7401.013    17114.516     4208.318        3.384        1.436      197.394       63.138        0.102      352.344       34.923      859.006
06/30/2013  18:24:00     -361.888     -229.963      -34.506      217.773      168.648      105.790    47424.976    28442.172    11191.513       13.603        4.353      428.773      117.474        0.075      352.223       34.711      859.000
06/30/2013  18:25:00     -405.568     -120.210      -14.041      161.140      148.199       81.173    25966.107    21963.031     6589.073       11.681        2.726      423.008       91.588        0.047      352.178       34.631      859.004
06/30/2013  18:26:00     -205.148     -124.256        9.723      151.167       87.204       67.652    22851.395     7604.581     4576.809        4.632        1.752      239.844       81.530        0.116      352.287       34.823      859.019
06/30/2013  18:27:00     -314.821     -122.396      -10.804      159.579      135.750       80.909    25465.561    18428.092     6546.204        8.231        2.522      337.776       78.145        0.054      352.254       34.765      859.024
06/30/2013  18:28:00     -317.425     -162.872        5.608      248.496      213.714       99.527    61750.049    45673.752     9905.585       12.230        5.866      356.771      136.456        0.146      352.245       34.749      859.038
06/30/2013  18:29:00     -456.458     -111.437      -17.692      224.949      183.107       94.465    50601.889    33528.156     8923.693       15.705        4.653      469.864      106.360        0.051      352.166       34.611      859.039
06/30/2013  18:30:00     -426.426      -93.461      -23.984      193.885      160.436       95.356    37591.393    25739.714     9092.862       13.177        3.621      436.547      109.836        0.063      352.095       34.487      859.042
06/30/2013  18:31:00     -311.172     -123.181        6.822      254.662      175.162       88.273    64852.666    30681.713     7792.097       10.767        5.166      334.666      121.093        0.131      352.135       34.558      859.043
06/30/2013  18:32:00     -314.732     -106.081       -9.331      181.518      107.985       59.770    32948.934    11660.708     3572.489        7.928        2.409      332.128       67.553        0.041      352.173       34.624      859.088
06/30/2013  18:33:00     -308.075     -109.117      -15.722      148.422       92.203       67.084    22029.175     8501.467     4500.317        7.104        1.752      326.828       72.529        0.049      352.173       34.622      859.087
06/30/2013  18:34:00     -362.176      -68.073      -19.636      104.489      114.784       48.179    10917.853    13175.410     2321.255        8.130        1.321      368.518       38.087        0.011      352.144       34.573      859.097
06/30/2013  18:35:00     -339.102      -60.994      -19.022      172.611      129.425       72.641    29794.573    16750.948     5276.734        8.544        2.591      344.543       83.470        0.059      352.208       34.685      859.099
06/30/2013  18:36:00     -497.408     -136.297      -20.354      212.880      167.480       99.505    45317.833    28049.591     9901.310       17.482        4.163      515.744      100.806        0.038      352.035       34.381      859.058
06/30/2013  18:37:00     -361.346     -142.915       -8.637      266.483      145.906       98.317    71013.153    21288.571     9666.260       12.650        5.098      388.582      108.890        0.079      352.044       34.398      859.067
06/30/2013  18:38:00     -503.095      -58.140      -30.253      174.981      150.607       87.240    30618.497    22682.425     7610.771       15.914        3.046      506.443       80.569        0.025      352.035       34.383      859.095
06/30/2013  18:39:00     -286.959      -28.363        4.530      260.387      130.310       98.672    67801.443    16980.811     9736.227        8.883        4.726      288.357      120.508        0.175      352.096       34.491      859.098
06/30/2013  18:40:00     -397.710      -60.842      -17.803      165.732      110.266       77.419    27467.119    12158.677     5993.738       10.390        2.281      402.337       85.863        0.046      352.017       34.350      859.122
06/30/2013  18:41:00     -369.926     -164.663       -8.164      192.297      131.693       68.455    36978.312    17343.062     4686.120       11.150        2.950      404.918       86.256        0.045      352.000       34.320      859.114
06/30/2013  18:42:00     -359.788      -54.849       -9.380      229.625      111.688       83.137    52727.515    12474.275     6911.706       10.231        3.606      363.945       90.791        0.062      352.055       34.418      859.136
06/30/2013  18:43:00     -385.410      -92.164       -6.109      240.084      148.229       99.007    57640.436    21971.716     9802.409       12.323        4.471      396.276      109.156        0.076      351.982       34.290      859.129
06/30/2013  18:44:00     -292.131      -19.705       -3.916      238.178      142.361       95.247    56728.587    20266.534     9072.024        8.589        4.303      292.795      111.663        0.145      352.014       34.346      859.141
06/30/2013  18:45:00     -342.330      -94.319       -6.626      215.593      106.169       69.962    46480.259    11271.919     4894.711        9.438        3.132      355.086       84.031        0.056      351.978       34.282      859.140
06/30/2013  18:46:00     -351.982     -100.929      -10.714      188.316      141.967       75.502    35462.933    20154.757     5700.501        9.774        3.066      366.166       91.358        0.062      351.952       34.237      859.138
06/30/2013  18:47:00     -372.933      -21.295      -19.511      152.912      108.598       62.753    23382.000    11793.501     3937.993        8.951        1.956      373.541       70.097        0.035      352.001       34.322      859.154
06/30/2013  18:48:00     -627.741      -99.883      -44.302      244.080      144.307       80.875    59574.922    20824.624     6540.716       24.645        4.347      635.638       96.060        0.023      351.886       34.122      859.153
06/30/2013  18:49:00     -552.699     -162.657      -14.357      224.520      168.685       94.294    50409.215    28454.586     8891.449       20.993        4.388      576.137       97.347        0.029      351.863       34.081      859.128
06/30/2013  18:50:00     -441.914     -106.240       10.548      262.657      212.155      104.210    68988.880    45009.850    10859.780       16.575        6.243      454.505      119.871        0.070      351.857       34.070      859.155
06/30/2013  18:51:00     -436.582       -8.183      -35.931      153.205      138.559       82.760    23471.654    19198.564     6849.279       12.073        2.476      436.658       78.914        0.033      351.920       34.180      859.168
06/30/2013  18:52:00     -370.130      -66.972        2.175      173.266      170.534       81.607    30021.027    29081.951     6659.737       10.361        3.288      376.140       78.960        0.044      351.920       34.180      859.184
06/30/2013  18:53:00     -346.457      -74.363        0.868      172.274      154.674       78.939    29678.209    23923.936     6231.410        9.269        2.992      354.348       78.655        0.049      351.920       34.179      859.190
06/30/2013  18:54:00     -246.341      -56.339       -0.322      157.385      127.964       72.723    24769.884    16374.815     5288.661        5.514        2.322      252.701       86.541        0.117      351.941       34.219      859.185
06/30/2013  18:55:00     -329.131     -114.558       -0.598      256.041      141.327       85.331    65556.975    19973.450     7281.383       10.711        4.641      348.498      106.479        0.093      351.912       34.169      859.204
06/30/2013  18:56:00     -380.386      -94.918      -24.291      170.414      145.296       73.560    29040.985    21110.879     5411.049       10.492        2.778      392.050       85.609        0.048      351.854       34.067      859.197
06/30/2013  18:57:00     -326.393     -104.055       -2.098      190.615      143.758       70.695    36334.135    20666.349     4997.771        8.967        3.100      342.578       85.168        0.062      351.866       34.088      859.208
06/30/2013  18:58:00     -258.943     -127.014       -2.694      170.919      134.336       72.267    29213.359    18046.107     5222.554        6.783        2.624      288.417       79.720        0.076      351.846       34.053      859.207
06/30/2013  18:59:00     -297.672      -95.403        6.877      202.138      151.571       99.546    40859.636    22973.626     9909.447        8.574        3.687      312.586      115.071        0.136      351.823       34.012      859.184
06/30/2013  19:00:00     -280.281       -4.604        0.842      166.047      126.096       75.224    27571.766    15900.169     5658.653        6.385        2.457      280.319       74.826        0.071      351.811       33.989      859.172
06/30/2013  19:01:00     -389.563      -55.179      -31.683      154.110       99.348       66.194    23749.950     9870.040     4381.661        9.690        1.900      393.452       75.163        0.036      351.790       33.953      859.197
06/30/2013  19:02:00     -485.795      -40.672      -32.579      165.383      148.789       83.087    27351.481    22138.213     6903.478       14.754        2.820      487.494       84.571        0.030      351.783       33.940      859.206
06/30/2013  19:03:00     -437.603     -116.428      -31.454      193.555      136.255       88.836    37463.465    18565.483     7891.825       13.497        3.196      452.827       90.970        0.040      351.777       33.933      859.192
06/30/2013  19:04:00     -442.977     -109.628      -23.254      175.679      135.035       81.242    30863.192    18234.458     6600.191       13.223        2.785      456.341       82.911        0.033      351.739       33.868      859.206
06/30/2013  19:05:00     -243.615      -70.318        6.818      168.753      134.253       85.853    28477.632    18023.903     7370.786        5.910        2.694      253.561      101.288        0.160      351.797       33.965      859.214
06/30/2013  19:06:00     -281.428     -140.241       -9.528      144.830      119.591       66.348    20975.684    14301.897     4402.038        6.931        1.984      314.435       62.435        0.039      351.805       33.980      859.224
06/30/2013  19:07:00     -163.043      -55.911        4.829      151.439      109.857       65.903    22933.852    12068.582     4343.158        3.453        1.967      172.363       76.133        0.195      351.814       33.998      859.234
06/30/2013  19:08:00     -350.266      -32.652      -16.074      198.595      103.899       65.659    39439.785    10794.937     4311.122        8.927        2.727      351.785       80.579        0.052      351.773       33.926      859.238
06/30/2013  19:09:00     -293.186      -76.411      -12.082      163.566      148.514       71.939    26753.695    22056.355     5175.204        7.295        2.699      302.979       71.114        0.055      351.749       33.883      859.224
06/30/2013  19:10:00     -197.092     -102.656        8.388      126.120      106.850       76.278    15906.181    11416.818     5818.342        4.129        1.657      222.224       80.664        0.132      351.726       33.845      859.228
06/30/2013  19:11:00     -201.217     -172.117        0.475      161.047      129.353       66.032    25936.097    16732.191     4360.194        5.856        2.351      264.788       77.304        0.085      351.724       33.841      859.243
06/30/2013  19:12:00     -255.166     -133.582       13.644      174.000      140.780       75.319    30276.039    19819.072     5672.887        6.944        2.788      288.017       90.055        0.098      351.696       33.792      859.233
06/30/2013  19:13:00     -452.598      -75.582      -20.955      176.967      139.812       75.845    31317.182    19547.534     5752.403       13.380        2.831      458.866       76.944        0.028      351.663       33.736      859.238
06/30/2013  19:14:00     -380.696      -53.967      -28.907      150.895      117.804       70.450    22769.322    13877.824     4963.184        9.514        2.081      384.502       59.480        0.024      351.666       33.741      859.255
06/30/2013  19:15:00     -276.132      -85.905      -16.643      147.820      129.773       61.007    21850.799    16841.141     3721.828        6.315        2.121      289.186       68.292        0.056      351.661       33.731      859.259
06/30/2013  19:16:00     -278.427     -165.666       19.706      242.981      163.230       91.416    59039.598    26644.184     8356.852        9.968        4.702      323.986      118.862        0.135      351.651       33.715      859.259
06/30/2013  19:17:00     -221.976      -85.502        7.347      193.812      139.571       94.704    37563.047    19480.100     8968.802        6.131        3.301      237.874      104.613        0.193      351.634       33.684      859.255
06/30/2013  19:18:00     -379.039      -44.331       -4.516      214.205      171.960       84.069    45883.946    29570.084     7067.629       11.407        4.126      381.623       99.276        0.068      351.620       33.660      859.260
06/30/2013  19:19:00     -300.662     -195.170      -12.379      193.018      152.100       76.290    37255.877    23134.540     5820.189        9.741        3.311      358.454       74.766        0.044      351.571       33.574      859.257
06/30/2013  19:20:00     -189.082      -97.672       13.425      131.935      115.299       59.165    17406.934    13293.940     3500.515        3.983        1.710      212.819       55.940        0.069      351.600       33.624      859.271
06/30/2013  19:21:00     -279.080      -91.586       -4.360      167.318      149.600       82.248    27995.269    22380.303     6764.764        7.170        2.857      293.724       90.017        0.094      351.593       33.612      859.299
06/30/2013  19:22:00     -306.074     -156.378       -6.892      184.319      133.743       84.138    33973.436    17887.268     7079.216        8.855        2.947      343.709       86.443        0.063      351.582       33.593      859.293
06/30/2013  19:23:00     -286.909     -135.024        1.540      186.140      115.280       69.843    34648.054    13289.468     4878.019        7.667        2.641      317.094       76.929        0.059      351.575       33.582      859.281
06/30/2013  19:24:00     -247.286     -102.705      -10.657      110.571      118.496       60.824    12225.907    14041.340     3699.583        5.088        1.498      267.766       47.163        0.031      351.550       33.536      859.290
06/30/2013  19:25:00     -187.323      -51.992        4.225      143.649       94.022       64.923    20635.037     8840.201     4215.026        3.574        1.685      194.404       70.922        0.133      351.564       33.562      859.311
06/30/2013  19:26:00     -240.490      -89.073       -4.978      123.657      129.578       58.465    15291.079    16790.484     3418.176        5.064        1.775      256.455       57.822        0.051      351.561       33.557      859.336
06/30/2013  19:27:00     -210.099      -82.127       -6.207      157.089      142.935       69.873    24676.808    20430.435     4882.277        5.045        2.499      225.580       71.632        0.101      351.548       33.533      859.346
06/30/2013  19:28:00     -242.685      -29.805       -3.242      182.283      134.910       69.859    33226.981    18200.686     4880.336        5.804        2.815      244.509       84.294        0.119      351.525       33.493      859.330
06/30/2013  19:29:00     -222.549     -123.980       -0.956      123.672      116.722       63.302    15294.774    13623.937     4007.086        4.891        1.646      254.753       63.524        0.062      351.516       33.480      859.341
06/30/2013  19:30:00     -109.635     -103.584       19.604      147.585      130.874       76.731    21781.191    17128.070     5887.622        3.396        2.240      150.829       83.946        0.310      351.483       33.421      859.348
06/30/2013  19:31:00     -254.074      -29.755       -2.568      114.337      109.819       62.603    13073.000    12060.203     3919.147        4.724        1.453      255.811       59.396        0.054      351.484       33.422      859.355
06/30/2013  19:32:00     -361.203      -66.032      -18.988      214.901      121.768       68.979    46182.386    14827.358     4758.075       10.046        3.288      367.189       85.706        0.054      351.448       33.360      859.344
06/30/2013  19:33:00     -406.738      -35.052      -31.067      178.686      124.894       73.936    31928.576    15598.393     5466.578       11.030        2.650      408.246       70.448        0.030      351.434       33.335      859.340
06/30/2013  19:34:00     -224.479     -120.550        5.130      124.043      132.594       63.357    15386.732    17581.159     4014.169        5.096        1.849      254.801       60.202        0.056      351.440       33.345      859.340
06/30/2013  19:35:00     -181.027      -49.599        9.396      145.955      114.296       69.304    21302.748    13063.482     4803.060        3.724        1.958      187.699       75.589        0.162      351.447       33.358      859.343
06/30/2013  19:36:00     -282.320      -32.601      -13.138      135.199       85.965       62.476    18278.879     7389.992     3903.253        5.525        1.479      284.196       69.555        0.060      351.401       33.278      859.350
06/30/2013  19:37:00     -258.505       -2.563      -12.888       96.008       89.229       53.019     9217.606     7961.881     2810.984        4.349        1.000      258.518       50.655        0.038      351.414       33.300      859.354
06/30/2013  19:38:00     -298.388      -63.642       -1.086      155.825      139.151       74.371    24281.480    19362.933     5530.975        7.112        2.459      305.100       79.800        0.068      351.393       33.262      859.349
06/30/2013  19:39:00     -276.417      -58.446      -13.741      107.700      112.169       46.981    11599.207    12581.946     2207.214        5.319        1.319      282.528       52.945        0.035      351.353       33.194      859.373
06/30/2013  19:40:00     -149.662      -92.978      -11.689      104.902       69.511       55.660    11004.470     4831.772     3098.010        2.505        0.947      176.192       58.302        0.109      351.354       33.194      859.374
06/30/2013  19:41:00     -268.792      -50.807      -15.471      101.581       73.560       47.843    10318.788     5411.000     2288.938        4.654        0.901      273.551       50.436        0.034      351.342       33.172      859.380
06/30/2013  19:42:00     -304.255      -72.039      -12.344      110.042       82.874       59.642    12109.210     6868.102     3557.111        6.022        1.127      312.667       55.384        0.031      351.329       33.150      859.392
06/30/2013  19:43:00     -303.288      -50.633       -6.280      154.932      109.554       64.262    24004.031    12002.104     4129.560        6.735        2.007      307.485       63.598        0.043      351.326       33.145      859.393
06/30/2013  19:44:00     -385.948     -116.211       -5.867      197.085      130.584       70.805    38842.416    17052.181     5013.409       11.169        3.045      403.064       76.986        0.036      351.319       33.133      859.393
06/30/2013  19:45:00     -371.837      -97.920      -11.285      180.387      124.496       66.967    32539.338    15499.355     4484.570       10.024        2.626      384.514       82.190        0.046      351.310       33.118      859.388
06/30/2013  19:46:00     -345.711      -74.932      -14.107      139.194      110.465       56.374    19374.862    12202.490     3178.071        8.004        1.738      353.738       53.543        0.023      351.285       33.074      859.407
06/30/2013  19:47:00     -262.511     -109.608      -10.047      132.765      110.299       66.862    17626.415    12165.978     4470.509        5.764        1.713      284.475       65.354        0.053      351.291       33.084      859.418
06/30/2013  19:48:00     -238.262     -117.651      -13.439      108.042       96.597       53.481    11673.067     9331.050     2860.255        4.732        1.193      265.726       45.763        0.030      351.287       33.078      859.428
06/30/2013  19:49:00     -282.157      -43.732       -6.581      141.071      107.521       67.948    19901.006    11560.689     4616.960        5.882        1.804      285.526       67.745        0.056      351.237       32.989      859.426
06/30/2013  19:50:00     -220.848      -20.677       -4.213      111.721       93.860       51.639    12481.652     8809.651     2666.600        3.658        1.198      221.814       54.854        0.061      351.219       32.960      859.438
06/30/2013  19:51:00     -324.455     -118.326      -20.835      162.554      128.985       80.540    26423.891    16637.016     6486.626        8.462        2.477      345.358       73.382        0.045      351.210       32.942      859.434
06/30/2013  19:52:00     -347.326      -59.681      -13.545      138.997      122.015       68.110    19320.083    14887.629     4639.038        8.161        1.942      352.416       73.573        0.044      351.207       32.938      859.427
06/30/2013  19:53:00     -246.102       -1.486       -3.094      116.822       85.894       54.406    13647.472     7377.790     2959.962        4.228        1.199      246.107       58.160        0.056      351.155       32.847      859.447
06/30/2013  19:54:00     -225.942      -85.608        3.532      146.228      113.801       65.837    21382.623    12950.757     4334.526        4.852        1.933      241.617       75.319        0.097      351.152       32.843      859.462
06/30/2013  19:55:00     -284.595      -84.173       -5.384      124.376      129.328       58.740    15469.430    16725.830     3450.388        6.187        1.782      296.782       58.495        0.039      351.167       32.868      859.458
06/30/2013  19:56:00     -382.156      -63.399      -24.272      176.016       94.865       63.523    30981.538     8999.331     4035.140        9.733        2.201      387.379       63.485        0.027      351.125       32.793      859.466
06/30/2013  19:57:00     -266.458      -56.796      -19.687       92.748       88.135       53.030     8602.195     7767.826     2812.162        4.689        0.959      272.443       33.785        0.015      351.078       32.713      859.474
06/30/2013  19:58:00     -393.897     -116.044      -16.979      114.412      150.772       62.648    13090.200    22732.089     3924.718       10.432        1.987      410.635       45.520        0.012      351.051       32.665      859.489
06/30/2013  19:59:00     -351.090      -51.612      -18.640      167.503      133.304       75.240    28057.316    17769.976     5661.007        8.887        2.574      354.863       90.710        0.065      351.013       32.599      859.484
06/30/2013  20:00:00     -524.439      -85.844      -20.208      162.708      108.080       71.040    26474.046    11681.350     5046.637       16.300        2.160      531.418       77.510        0.021      351.069       32.696      859.475
06/30/2013  20:01:00     -287.499      -78.713       -9.452      134.410      119.634       57.752    18066.088    14312.393     3335.283        6.232        1.786      298.080       55.646        0.035      351.014       32.601      859.491
06/30/2013  20:02:00     -207.882      -58.289        4.821       95.959       78.996       47.156     9208.128     6240.405     2223.717        3.215        0.884      215.899       46.058        0.046      350.957       32.503      859.507
06/30/2013  20:03:00     -182.012      -50.210       14.195      139.681       89.250       63.913    19510.886     7965.513     4084.856        3.370        1.578      188.810       70.687        0.140      350.924       32.445      859.512
06/30/2013  20:04:00     -289.693     -100.493      -20.855       97.345       90.541       53.619     9476.082     8197.677     2875.047        5.750        1.027      306.629       45.150        0.022      350.923       32.442      859.504
06/30/2013  20:05:00     -306.382      -82.214       -9.908       97.348       85.365       50.240     9476.684     7287.163     2524.011        6.000        0.964      317.221       50.046        0.025      350.929       32.455      859.505
06/30/2013  20:06:00     -273.868      -63.086      -10.286      127.548      104.893       54.393    16268.429    11002.577     2958.589        5.465        1.511      281.040       51.410        0.033      350.868       32.348      859.500
06/30/2013  20:07:00     -328.470      -29.255      -15.087      152.106      128.630       70.875    23136.235    16545.607     5023.332        7.683        2.235      329.770       71.480        0.047      350.859       32.333      859.488
06/30/2013  20:08:00     -377.708     -101.653      -26.046      179.942      122.586       76.014    32379.199    15027.335     5778.091       10.342        2.659      391.148       79.156        0.041      350.857       32.330      859.507
06/30/2013  20:09:00     -353.212      -39.390       -9.625      172.169      127.421       71.308    29642.214    16236.055     5084.870        8.867        2.548      355.401       71.479        0.040      350.834       32.290      859.526
06/30/2013  20:10:00     -358.398      -75.021      -17.210      147.092      146.518       80.620    21636.200    21467.584     6499.618        9.198        2.480      366.166       73.532        0.040      350.829       32.281      859.549
06/30/2013  20:11:00     -296.201      -44.769        9.523      160.145      114.536       76.103    25646.321    13118.589     5791.738        6.718        2.228      299.565       85.999        0.082      350.820       32.265      859.579
06/30/2013  20:12:00     -178.491      -84.047       24.184      199.378      141.613       81.358    39751.581    20054.368     6619.188        5.295        3.321      197.289       96.416        0.239      350.797       32.226      859.585
06/30/2013  20:13:00     -261.000      -64.115      -11.955      106.989       83.786       38.859    11446.661     7020.164     1510.006        4.617        0.999      268.759       35.115        0.017      350.813       32.251      859.624
06/30/2013  20:14:00     -313.151      -55.623       -4.684      151.225      125.088       73.538    22868.900    15646.903     5407.812        7.254        2.196      318.052       79.540        0.063      350.750       32.143      859.634
06/30/2013  20:15:00     -382.018      -49.704      -20.172      133.420       97.808       67.950    17801.020     9566.370     4617.143        9.039        1.599      385.238       68.505        0.032      350.776       32.187      859.636
06/30/2013  20:16:00     -271.593      -64.837      -14.872      148.051       96.697       56.851    21919.121     9350.303     3232.091        5.634        1.725      279.225       59.522        0.045      350.760       32.160      859.637
06/30/2013  20:17:00     -309.280      -13.798      -29.627      133.530       96.566       55.955    17830.347     9324.947     3130.911        6.350        1.514      309.587       57.450        0.034      350.728       32.104      859.643
06/30/2013  20:18:00     -293.693     -121.123      -11.895      151.656      109.260       71.683    22999.466    11937.749     5138.511        7.056        2.004      317.689       78.916        0.062      350.699       32.054      859.640
06/30/2013  20:19:00     -387.545      -82.988      -28.077      152.672      129.027       64.802    23308.604    16648.009     4199.236       10.100        2.208      396.331       77.457        0.038      350.708       32.071      859.655
06/30/2013  20:20:00     -270.277      -43.327      -23.776      132.331       62.893       49.729    17511.547     3955.499     2472.988        4.971        1.197      273.728       48.052        0.031      350.675       32.012      859.661
06/30/2013  20:21:00     -258.821     -139.525        3.820      174.117      146.920       68.161    30316.750    21585.367     4645.977        7.150        2.827      294.033       91.327        0.096      350.643       31.956      859.669
06/30/2013  20:22:00     -400.414      -75.516      -19.826      209.745      137.543       76.247    43992.901    18918.114     5813.558       11.756        3.436      407.472       97.301        0.057      350.697       32.050      859.656
06/30/2013  20:23:00     -336.232      -60.908      -19.297      144.618      134.507       66.187    20914.496    18092.148     4380.731        8.025        2.169      341.704       70.350        0.042      350.632       31.935      859.674
06/30/2013  20:24:00     -353.271      -56.985      -17.174      138.017      105.981       61.120    19048.781    11232.045     3735.617        8.117        1.701      357.837       63.994        0.032      350.629       31.930      859.662
06/30/2013  20:25:00     -458.246      -53.779      -23.975      188.022      118.147       67.115    35352.237    13958.766     4504.434       13.363        2.691      461.391       75.630        0.027      350.609       31.896      859.677
06/30/2013  20:26:00     -446.579     -178.788      -24.696      193.120      162.185       87.676    37295.518    26303.818     7687.135       15.163        3.564      481.038      105.590        0.048      350.601       31.881      859.670
06/30/2013  20:27:00     -390.652      -94.520       -5.162      184.311      140.014       79.742    33970.491    19603.935     6358.736       11.074        2.997      401.924       78.196        0.038      350.575       31.838      859.680
06/30/2013  20:28:00     -377.840      -87.728       -0.263      158.365      114.844       73.581    25079.452    13189.152     5414.117        9.706        2.184      387.891       78.293        0.041      350.580       31.847      859.703
06/30/2013  20:29:00     -291.741     -125.534      -23.877      171.625      107.123       58.507    29455.310    11475.353     3423.050        7.289        2.218      317.603       76.369        0.058      350.560       31.811      859.717
06/30/2013  20:30:00     -307.014      -41.913       -4.321      212.425      112.527       82.556    45124.529    12662.274     6815.483        8.030        3.230      309.861      107.850        0.121      350.531       31.760      859.744
06/30/2013  20:31:00     -443.058      -48.051      -27.407      174.886      146.719       81.935    30585.144    21526.501     6713.423       12.908        2.941      445.656       80.806        0.033      350.538       31.774      859.746
06/30/2013  20:32:00     -308.527      -68.189      -10.100      140.644      109.541       63.661    19780.846    11999.326     4052.782        6.788        1.792      315.973       74.421        0.055      350.510       31.725      859.764
06/30/2013  20:33:00     -298.130      -59.304      -22.636      140.638      106.389       53.143    19778.976    11318.682     2824.176        6.341        1.696      303.971       53.121        0.031      350.486       31.682      859.784
06/30/2013  20:34:00     -389.749      -44.725      -19.204      163.586      121.447       77.926    26760.351    14749.466     6072.496       10.092        2.379      392.307       83.439        0.045      350.499       31.703      859.797
06/30/2013  20:35:00     -223.210      -72.661        5.226      152.452      126.409       70.673    23241.494    15979.200     4994.666        4.966        2.211      234.739       82.804        0.124      350.451       31.620      859.797
06/30/2013  20:36:00     -314.634      -25.154      -16.738      160.118      123.081       59.064    25637.852    15148.826     3488.505        7.208        2.214      315.638       63.721        0.041      350.471       31.655      859.800
06/30/2013  20:37:00     -392.095      -16.772      -30.146      171.441      118.475       64.821    29392.171    14036.376     4201.727       10.127        2.382      392.454       78.798        0.040      350.447       31.614      859.818
06/30/2013  20:38:00     -247.844      -40.473      -11.651       91.295       86.645       59.430     8334.775     7507.310     3531.921        4.128        0.969      251.127       50.302        0.040      350.421       31.569      859.858
06/30/2013  20:39:00     -248.845     -108.730      -14.160       94.728      111.904       55.939     8973.386    12522.581     3129.184        4.928        1.231      271.562       49.073        0.033      350.402       31.538      859.866
06/30/2013  20:40:00     -201.017      -38.545       -5.512      130.857      148.980       71.114    17123.514    22194.921     5057.203        4.314        2.219      204.679       68.679        0.113      350.372       31.485      859.868
06/30/2013  20:41:00     -322.944      -57.158      -18.618      128.523       98.907       53.071    16518.117     9782.679     2816.537        6.851        1.456      327.963       40.267        0.015      350.349       31.445      859.876
06/30/2013  20:42:00     -281.547      -28.224      -20.725      118.946       81.379       51.522    14148.261     6622.598     2654.540        5.196        1.171      282.959       48.111        0.029      350.359       31.463      859.862
06/30/2013  20:43:00     -210.018      -41.466      -16.154       95.152       73.412       43.731     9053.828     5389.333     1912.424        3.122        0.818      214.072       43.325        0.041      350.316       31.387      859.872
06/30/2013  20:44:00     -235.039      -62.899      -14.937       96.144       82.925       49.283     9243.636     6876.512     2428.833        3.898        0.927      243.310       52.893        0.047      350.288       31.338      859.888
06/30/2013  20:45:00     -309.619     -116.315      -20.712      116.855       85.116       45.738    13655.181     7244.651     2092.006        6.640        1.150      330.747       39.300        0.014      350.227       31.231      859.891
06/30/2013  20:46:00     -301.530      -46.200       -9.001      134.772      111.517       71.830    18163.461    12435.936     5159.521        6.444        1.788      305.049       74.552        0.060      350.246       31.265      859.902
06/30/2013  20:47:00     -274.451      -23.483      -19.003      124.110      105.489       60.887    15403.372    11128.012     3707.200        5.323        1.512      275.453       67.346        0.060      350.209       31.202      859.924
06/30/2013  20:48:00     -264.880      -46.032       -5.258      138.769      111.488       59.658    19256.971    12429.481     3559.120        5.377        1.762      268.851       63.865        0.056      350.226       31.232      859.935
06/30/2013  20:49:00     -311.530      -14.646      -14.986      100.613      100.804       61.850    10122.890    10161.428     3825.464        6.080        1.205      311.874       56.413        0.033      350.279       31.324      859.952
06/30/2013  20:50:00     -111.563      -24.119       18.108      131.268       77.799       55.849    17231.244     6052.610     3119.150        1.987        1.320      114.140       62.653        0.301      350.196       31.179      859.967
06/30/2013  20:51:00     -161.128        3.775      -11.360       79.555       75.004       47.558     6329.008     5625.559     2261.787        2.016        0.711      161.172       35.906        0.050      350.210       31.203      859.979
06/30/2013  20:52:00     -187.373       15.539       -6.540      108.316       71.101       49.408    11732.396     5055.289     2441.123        2.731        0.961      188.016       47.384        0.064      350.199       31.182      860.004
06/30/2013  20:53:00     -115.083       37.465        7.459       65.835       63.216       45.795     4334.249     3996.220     2097.171        1.256        0.521      121.028       37.336        0.095      350.189       31.167      860.015
06/30/2013  20:54:00     -175.411      -14.779      -15.377       81.549       85.164       50.603     6650.270     7252.876     2560.677        2.384        0.823      176.033       39.903        0.051      350.187       31.165      860.023
06/30/2013  20:55:00     -199.372      -44.069       -3.605      101.671       66.095       48.910    10336.899     4368.500     2392.211        2.940        0.855      204.184       46.916        0.053      350.127       31.058      860.049
06/30/2013  20:56:00     -167.635      -57.550      -18.224       87.711       58.342       32.413     7693.150     3403.832     1050.575        2.194        0.607      177.239       24.308        0.019      350.149       31.098      860.066
06/30/2013  20:57:00     -202.048        5.603      -11.441       79.858       73.088       50.062     6377.248     5341.848     2506.180        2.760        0.711      202.126       46.657        0.053      350.053       30.930      860.079
06/30/2013  20:58:00     -225.012      -34.448       -5.009      105.960       90.200       51.496    11227.458     8136.011     2651.831        3.692        1.101      227.633       50.749        0.050      350.097       31.006      860.085
06/30/2013  20:59:00     -133.190      -62.011       -2.850       79.094       66.013       39.707     6255.799     4357.742     1576.618        1.689        0.610      146.918       33.947        0.053      350.050       30.926      860.099
06/30/2013  21:00:00     -254.922      -39.726      -13.302      151.835      124.323       57.764    23054.008    15456.117     3336.690        5.429        2.092      257.999       60.754        0.055      350.070       30.959      860.092
06/30/2013  21:01:00     -158.420      -40.468      -15.821      130.735       68.514       46.100    17091.709     4694.186     2125.164        2.544        1.196      163.507       52.970        0.105      349.990       30.820      860.115
06/30/2013  21:02:00     -248.292      -50.202       -7.907       89.972       90.454       48.041     8095.043     8181.889     2307.969        4.140        0.929      253.316       48.636        0.037      349.988       30.817      860.136
06/30/2013  21:03:00     -179.911      -57.301       -7.205      118.158       82.339       52.562    13961.270     6779.639     2762.768        2.960        1.175      188.816       62.658        0.110      349.986       30.813      860.141
06/30/2013  21:04:00     -143.817      -79.122        3.383      107.267       79.478       48.399    11506.115     6316.688     2342.450        2.356        1.008      164.145       47.358        0.083      349.983       30.810      860.150
06/30/2013  21:05:00     -220.593      -73.718       -2.614      101.562       84.402       54.244    10314.940     7123.717     2942.392        3.724        1.019      232.585       45.705        0.039      350.001       30.839      860.174
06/30/2013  21:06:00     -264.023       -9.045      -31.857      128.349      103.466       52.255    16473.404    10705.285     2730.612        5.035        1.495      264.178       52.690        0.040      350.019       30.871      860.175
06/30/2013  21:07:00     -204.735      -87.040        1.690       96.796       99.075       55.897     9369.482     9815.768     3124.423        3.590        1.115      222.469       49.777        0.050      349.946       30.745      860.168
06/30/2013  21:08:00     -321.356      -25.885      -11.508      107.250      117.878       49.315    11502.477    13895.179     2431.960        6.595        1.391      322.396       45.515        0.020      350.019       30.871      860.178
06/30/2013  21:09:00     -277.980      -85.061      -17.783      105.388       69.405       46.048    11106.691     4817.004     2120.374        5.143        0.902      290.703       47.994        0.027      350.016       30.864      860.193
06/30/2013  21:10:00     -272.086        9.683      -20.670      104.012      103.143       44.848    10818.590    10638.462     2011.345        4.901        1.173      272.258       53.004        0.038      349.971       30.787      860.200
06/30/2013  21:11:00     -325.376      -35.677      -41.237      118.332       94.224       50.012    14002.502     8878.251     2501.191        6.711        1.269      327.326       50.091        0.023      350.000       30.837      860.214
06/30/2013  21:12:00     -206.014      -40.334      -20.555       81.054       70.632       41.608     6569.820     4988.943     1731.251        2.889        0.665      209.925       35.828        0.029      349.953       30.756      860.218
06/30/2013  21:13:00     -331.074      -63.714      -14.131      147.723       98.502       55.603    21822.048     9702.698     3091.677        7.424        1.731      337.149       53.845        0.026      349.917       30.694      860.240
06/30/2013  21:14:00     -361.057        7.076      -19.479      172.091      122.502       61.645    29615.149    15006.651     3800.139        8.960        2.421      361.126       68.705        0.036      349.933       30.723      860.266
06/30/2013  21:15:00     -368.237      -38.018      -34.836      116.786       90.039       56.001    13639.021     8107.075     3136.166        8.157        1.244      370.195       56.540        0.023      349.917       30.693      860.277
06/30/2013  21:16:00     -193.515      -86.251       -2.369       94.472      106.817       50.874     8925.032    11409.875     2588.187        3.390        1.146      211.866       37.275        0.031      349.835       30.551      860.290
06/30/2013  21:17:00     -371.546      -85.517      -17.512      169.186       99.353       48.615    28623.996     9871.064     2363.454        9.325        2.043      381.261       53.471        0.020      349.853       30.584      860.283
06/30/2013  21:18:00     -322.590      -92.173      -15.576      159.722      113.247       67.309    25510.978    12824.911     4530.472        7.783        2.143      335.500       69.844        0.043      349.826       30.537      860.288
06/30/2013  21:19:00     -307.373      -11.632      -34.899       93.820       83.781       45.723     8802.099     7019.320     2090.566        5.687        0.896      307.593       35.111        0.013      349.843       30.565      860.300
06/30/2013  21:20:00     -256.803      -86.317      -16.584      115.530       91.227       56.721    13347.090     8322.370     3217.239        4.927        1.244      270.921       55.816        0.042      349.805       30.499      860.306
06/30/2013  21:21:00     -366.294      -73.845      -21.590      132.698      114.483       65.677    17608.753    13106.291     4313.414        8.755        1.751      373.663       68.980        0.034      349.846       30.569      860.334
06/30/2013  21:22:00     -390.288      -49.822      -24.139      141.207      148.508       66.570    19939.411    22054.516     4431.627       10.090        2.321      393.455       59.524        0.023      349.878       30.626      860.338
06/30/2013  21:23:00     -294.325      -34.625      -15.840       93.580       80.375       50.173     8757.305     6460.082     2517.344        5.290        0.887      296.355       42.151        0.020      349.817       30.519      860.352
06/30/2013  21:24:00     -330.343     -120.103      -25.582      104.012      110.757       69.300    10818.469    12267.146     4802.477        7.604        1.394      351.499       49.107        0.020      349.825       30.534      860.355
06/30/2013  21:25:00     -411.550     -130.218      -13.030      111.634      137.778       72.243    12462.252    18982.853     5218.983       11.157        1.833      431.660       63.139        0.021      349.814       30.516      860.363
06/30/2013  21:26:00     -353.741      -99.950       -9.637      134.171      120.187       71.003    18001.860    14444.806     5041.408        8.634        1.874      367.591       64.638        0.031      349.827       30.538      860.375
06/30/2013  21:27:00     -356.218      -99.064       -5.905      135.261      109.258       62.405    18295.564    11937.323     3894.327        8.543        1.706      369.736       59.092        0.026      349.797       30.485      860.383
06/30/2013  21:28:00     -263.146     -114.558       -7.002      120.620      109.598       56.207    14549.081    12011.776     3159.194        5.606        1.486      287.001       56.375        0.039      349.765       30.428      860.395
06/30/2013  21:29:00     -329.070      -98.883       -5.917      126.897      106.224       63.971    16102.953    11283.637     4092.272        7.478        1.574      343.606       59.359        0.030      349.771       30.440      860.407
06/30/2013  21:30:00     -239.232     -118.694       -4.773      178.565      113.662       70.333    31885.571    12919.074     4946.701        6.054        2.488      267.058       84.532        0.100      349.747       30.399      860.425
06/30/2013  21:31:00     -235.509      -98.856        3.028      140.703      127.562       64.022    19797.362    16272.190     4098.828        5.270        2.008      255.416       69.427        0.074      349.737       30.381      860.419
06/30/2013  21:32:00     -429.317     -127.487       -6.774      156.630      120.512       79.193    24532.877    14523.130     6271.582       12.296        2.266      447.846       62.005        0.019      349.793       30.478      860.442
06/30/2013  21:33:00     -368.770      -83.790      -29.992      166.672      108.794       81.403    27779.715    11836.231     6626.473        9.507        2.312      378.169       64.611        0.029      349.808       30.503      860.455
06/30/2013  21:34:00     -257.261      -99.102      -10.708      145.544      102.025       63.084    21182.968    10409.080     3979.568        5.584        1.779      275.689       53.155        0.037      349.770       30.438      860.475
06/30/2013  21:35:00     -325.810      -80.453      -24.409      147.385      102.563       55.409    21722.221    10519.079     3070.195        7.426        1.766      335.597       58.548        0.030      349.781       30.458      860.497
06/30/2013  21:36:00     -368.851      -72.161      -15.861      146.680      120.918       61.041    21514.883    14621.164     3726.000        9.068        1.993      375.844       70.765        0.035      349.790       30.473      860.525
06/30/2013  21:37:00     -281.018     -136.399      -16.305      161.912      116.375       79.307    26215.347    13543.143     6289.612        7.194        2.302      312.372       83.008        0.071      349.800       30.490      860.514
06/30/2013  21:38:00     -447.140      -64.470      -24.377      111.399       99.871       66.914    12409.638     9974.117     4477.540       11.577        1.343      451.764       59.677        0.017      349.792       30.475      860.520
06/30/2013  21:39:00     -296.776     -109.027       -4.547      139.720      118.863       63.560    19521.726    14128.492     4039.889        6.883        1.885      316.169       61.201        0.037      349.747       30.399      860.512
06/30/2013  21:40:00     -424.393      -61.019      -31.327      139.054       99.979       66.462    19335.914     9995.746     4417.148       10.927        1.687      428.757       68.507        0.026      349.772       30.441      860.516
06/30/2013  21:41:00     -335.786     -191.247      -10.485      167.404       95.025       63.459    28023.944     9029.789     4026.983        9.525        2.054      386.429       65.042        0.028      349.699       30.314      860.511
06/30/2013  21:42:00     -342.821     -120.066      -27.186      145.097      132.296       69.903    21053.162    17502.299     4886.434        8.805        2.172      363.238       64.914        0.032      349.749       30.402      860.520
06/30/2013  21:43:00     -283.773      -53.244      -14.132      136.234       89.601       59.084    18559.660     8028.409     3490.936        5.681        1.504      288.725       55.746        0.037      349.686       30.292      860.535
06/30/2013  21:44:00     -382.324     -116.260      -10.813      138.051      119.510       67.983    19058.084    14282.653     4621.722        9.888        1.898      399.609       59.182        0.022      349.716       30.344      860.546
06/30/2013  21:45:00     -411.453      -83.732      -14.665      140.601      125.247       68.201    19768.696    15686.762     4651.415       10.831        2.005      419.887       68.340        0.026      349.690       30.299      860.542
06/30/2013  21:46:00     -285.306      -43.678       -8.197      156.903      108.628       69.116    24618.467    11799.984     4776.997        6.228        2.060      288.630       72.792        0.064      349.664       30.255      860.571
06/30/2013  21:47:00     -250.297      -89.797        6.616      154.885      124.888       69.091    23989.439    15596.999     4773.524        5.755        2.218      265.917       79.359        0.089      349.693       30.306      860.560
06/30/2013  21:48:00     -541.933       17.882      -49.004      135.044      153.516       57.236    18236.954    23567.250     3275.988       17.074        2.254      542.228       58.912        0.012      349.722       30.352      860.570
06/30/2013  21:49:00     -319.617      -37.728      -14.710      156.973      160.944       63.453    24640.643    25902.954     4026.283        7.917        2.728      321.836       64.341        0.040      349.664       30.253      860.574
06/30/2013  21:50:00     -289.784       -4.456      -14.515      167.542      147.834       75.562    28070.488    21854.753     5709.691        6.991        2.782      289.818       84.263        0.085      349.666       30.258      860.592
06/30/2013  21:51:00     -438.347      -62.717      -31.869      159.903      131.126       65.720    25568.851    17193.920     4319.151       12.208        2.354      442.811       68.486        0.024      349.725       30.359      860.595
06/30/2013  21:52:00     -374.961      -34.535      -29.361      101.105      127.012       66.053    10222.179    16132.092     4362.936        8.668        1.536      376.548       50.688        0.018      349.694       30.304      860.610
06/30/2013  21:53:00     -346.318      -64.468      -21.981      104.807      112.864       63.431    10984.467    12738.173     4023.446        7.616        1.387      352.268       57.735        0.027      349.645       30.220      860.627
06/30/2013  21:54:00     -234.312      -56.009      -10.387      118.581       88.704       48.544    14061.395     7868.431     2356.552        4.121        1.214      240.913       51.358        0.045      349.617       30.173      860.645
06/30/2013  21:55:00     -249.796      -69.303      -10.197      101.830       96.872       59.509    10369.315     9384.115     3541.331        4.530        1.165      259.232       54.722        0.045      349.550       30.057      860.638
06/30/2013  21:56:00     -480.095      -65.591      -24.608      184.935      122.658       76.417    34200.799    15044.897     5839.523       14.523        2.754      484.555      101.952        0.044      349.652       30.233      860.644
06/30/2013  21:57:00     -356.364     -108.498      -15.593      124.487      118.080       63.767    15496.976    13942.866     4066.184        8.625        1.675      372.515       51.169        0.019      349.636       30.206      860.657
06/30/2013  21:58:00     -298.247     -104.824       -3.494      106.627      107.291       55.147    11369.352    11511.405     3041.214        6.293        1.296      316.132       58.630        0.034      349.614       30.168      860.658
06/30/2013  21:59:00     -281.518      -33.368      -19.225       88.897       86.828       57.972     7902.764     7539.172     3360.760        4.977        0.940      283.488       52.556        0.034      349.555       30.066      860.670
06/30/2013  22:00:00     -250.978       -0.081      -25.955       88.500      114.847       43.719     7832.219    13189.802     1911.370        4.329        1.147      250.978       22.709        0.008      349.538       30.035      860.665
06/30/2013  22:01:00     -232.875      -60.361       -7.100      124.645      119.945       53.073    15536.278    14386.898     2816.722        4.533        1.637      240.570       59.047        0.060      349.427       29.843      860.654
06/30/2013  22:02:00     -503.210      -30.762      -51.802      143.724      117.097       63.857    20656.563    13711.606     4077.671       14.764        1.922      504.149       62.327        0.015      349.582       30.112      860.647
06/30/2013  22:03:00     -448.940     -123.144      -36.305      176.477      148.465       74.618    31144.138    22041.963     5567.857       13.838        2.938      465.523       69.854        0.023      349.598       30.140      860.643
06/30/2013  22:04:00     -437.841     -137.225      -29.638      136.521      108.696       75.786    18638.101    11814.809     5743.521       12.380        1.810      458.842       74.238        0.026      349.695       30.309      860.658
06/30/2013  22:05:00     -254.123     -134.282       11.272      134.202      129.606       63.574    18010.110    16797.842     4041.666        6.079        1.942      287.420       61.866        0.046      349.597       30.137      860.646
06/30/2013  22:06:00     -293.258      -49.715       -8.638      145.148      112.219       71.786    21067.874    12593.000     5153.258        6.367        1.941      297.442       77.678        0.068      349.587       30.122      860.665
06/30/2013  22:07:00     -354.010      -41.160      -30.086      122.810      126.742       54.066    15082.315    16063.513     2923.112        8.099        1.703      356.395       46.762        0.017      349.568       30.089      860.677
06/30/2013  22:08:00     -337.682      -64.536      -22.014      122.189      106.461       62.515    14930.130    11333.928     3908.154        7.442        1.509      343.793       68.236        0.039      349.527       30.017      860.679
06/30/2013  22:09:00     -293.400     -139.876       -6.268      158.543      113.703       65.932    25135.928    12928.442     4347.064        7.404        2.121      325.036       76.608        0.056      349.522       30.009      860.695
06/30/2013  22:10:00     -267.854      -36.971       -0.478      129.283      102.135       66.786    16714.218    10431.646     4460.375        5.235        1.580      270.394       68.813        0.065      349.470       29.918      860.699
06/30/2013  22:11:00     -317.479      -80.191      -25.811      112.695      131.034       58.696    12700.189    17169.839     3445.267        7.060        1.666      327.450       41.132        0.016      349.439       29.864      860.702
06/30/2013  22:12:00     -334.248      -50.523      -13.470      129.662      123.275       66.940    16812.226    15196.751     4480.967        7.547        1.824      338.045       63.609        0.035      349.516       29.997      860.704
06/30/2013  22:13:00     -393.488     -107.139      -14.342      141.962       90.780       59.251    20153.262     8241.022     3510.675        9.920        1.595      407.814       52.508        0.017      349.552       30.059      860.707
06/30/2013  22:14:00     -415.833      -80.178      -28.222      123.810      142.781       62.939    15328.935    20386.347     3961.328       10.990        1.984      423.492       57.626        0.019      349.551       30.058      860.732
06/30/2013  22:15:00     -285.688      -85.060       -5.364      111.234      112.528       56.011    12373.052    12662.648     3137.259        5.852        1.409      298.081       48.352        0.026      349.503       29.976      860.743
06/30/2013  22:16:00     -296.192      -67.896       -8.228      126.722       89.528       53.857    16058.571     8015.290     2900.610        5.969        1.349      303.874       55.505        0.033      349.466       29.912      860.774
06/30/2013  22:17:00     -280.461      -48.915      -14.550      112.217       97.749       50.871    12592.545     9554.937     2587.882        5.299        1.237      284.695       55.013        0.037      349.390       29.778      860.775
06/30/2013  22:18:00     -289.326      -18.846      -10.286      113.842       91.617       43.559    12959.910     8393.606     1897.412        5.371        1.163      289.939       38.620        0.018      349.404       29.802      860.770
06/30/2013  22:19:00     -276.439      -78.928       -0.641      135.486       94.316       64.308    18356.470     8895.472     4135.509        5.701        1.569      287.486       68.731        0.057      349.387       29.773      860.761
06/30/2013  22:20:00     -284.116     -119.961       -7.235      115.268       94.721       50.336    13286.737     8972.081     2533.675        5.997        1.240      308.403       54.920        0.032      349.416       29.822      860.765
06/30/2013  22:21:00     -308.571      -73.855      -22.024       93.271       95.171       58.675     8699.483     9057.431     3442.717        6.117        1.060      317.286       52.499        0.027      349.367       29.737      860.756
06/30/2013  22:22:00     -311.080      -34.685      -23.278      151.065      102.498       65.565    22820.760    10505.761     4298.789        6.806        1.881      313.008       71.969        0.053      349.420       29.831      860.758
06/30/2013  22:23:00     -272.186      -30.374       -8.655      134.904       88.104       55.775    18199.099     7762.333     3110.865        5.207        1.454      273.875       66.140        0.058      349.410       29.815      860.763
06/30/2013  22:24:00     -274.350      -78.996      -24.570      124.242       92.075       65.719    15436.099     8477.793     4319.020        5.517        1.412      285.497       68.448        0.057      349.440       29.865      860.755
06/30/2013  22:25:00     -199.750      -70.247      -27.404       54.667       67.500       37.596     2988.513     4556.256     1413.433        2.727        0.448      211.742       23.917        0.013      349.372       29.747      860.773
06/30/2013  22:26:00     -222.384      -79.309      -10.985      108.939       67.461       40.240    11867.614     4551.020     1619.260        3.695        0.902      236.103       46.194        0.038      349.284       29.594      860.773
06/30/2013  22:27:00     -258.824      -49.053      -20.647       65.753       74.019       38.200     4323.423     5478.877     1459.268        4.054        0.563      263.431       30.848        0.014      349.285       29.597      860.778
06/30/2013  22:28:00     -189.280       -3.975       -4.770       94.130       56.690       45.403     8860.514     3213.726     2061.440        2.500        0.707      189.322       50.068        0.070      349.248       29.534      860.778
06/30/2013  22:29:00     -151.865      -47.874        4.295       94.249       83.651       50.527     8882.872     6997.421     2552.976        2.190        0.922      159.232       49.743        0.098      349.233       29.509      860.773
06/30/2013  22:30:00     -293.705      -76.766       -6.930      145.619       98.732       57.318    21204.945     9748.032     3285.312        6.321        1.712      303.571       67.696        0.050      349.290       29.606      860.789
06/30/2013  22:31:00     -321.836     -107.338       -9.366      109.081       94.646       53.919    11898.677     8957.873     2907.230        6.947        1.188      339.263       52.871        0.024      349.410       29.813      860.798
06/30/2013  22:32:00     -291.718      -88.535      -14.197      115.668      106.263       63.391    13379.090    11291.831     4018.467        6.091        1.434      304.858       58.845        0.037      349.397       29.790      860.809
06/30/2013  22:33:00     -263.184      -50.207      -10.223      101.961       87.193       49.714    10396.076     7602.667     2471.481        4.618        1.024      267.931       40.929        0.023      349.412       29.817      860.822
06/30/2013  22:34:00     -396.706      -69.125      -18.113      126.956       95.346       52.391    16117.924     9090.837     2744.861        9.521        1.398      402.684       56.732        0.020      349.380       29.763      860.853
06/30/2013  22:35:00     -216.179      -19.098      -17.014       82.670       66.777       44.687     6834.300     4459.119     1996.936        3.034        0.665      217.021       41.723        0.037      349.335       29.684      860.874
06/30/2013  22:36:00     -187.543      -28.166       -3.963       74.605       66.800       40.165     5565.940     4462.286     1613.232        2.381        0.582      189.646       39.823        0.044      349.348       29.707      860.878
06/30/2013  22:37:00     -119.312      -20.450      -14.025       87.643       50.306       27.128     7681.245     2530.681      735.923        1.290        0.547      121.051       25.882        0.046      349.326       29.672      860.898
06/30/2013  22:38:00     -199.121       -0.838        4.111      126.640       74.570       50.152    16037.640     5560.756     2515.221        3.189        1.206      199.122       54.043        0.074      349.301       29.627      860.900
06/30/2013  22:39:00     -149.055      -51.786        7.116       99.742       78.467       45.220     9948.374     6157.105     2044.815        2.155        0.908      157.794       51.094        0.105      349.280       29.590      860.915
06/30/2013  22:40:00     -116.498      -14.599        0.941       81.182       61.234       38.278     6590.439     3749.592     1465.188        1.279        0.590      117.409       34.809        0.088      349.332       29.682      860.936
06/30/2013  22:41:00      -77.251      -37.215       -0.293       49.407       43.375       25.980     2441.017     1881.395      674.975        0.617        0.250       85.748       24.408        0.081      349.268       29.571      860.947
06/30/2013  22:42:00     -106.780      -42.922       13.602       79.466       57.959       43.475     6314.815     3359.208     1890.053        1.249        0.578      115.084       46.953        0.166      349.211       29.472      860.969
06/30/2013  22:43:00       -6.219        6.829       19.380       55.341       31.150       35.055     3062.662      970.333     1228.858        0.286        0.263        9.237       28.207        9.326      349.235       29.513      860.985
06/30/2013  22:44:00      -76.215      -40.079        0.567       33.819       40.620       27.291     1143.732     1649.969      744.793        0.548        0.177       86.110       17.868        0.043      349.362       29.732      861.004
06/30/2013  22:45:00       -8.561       -1.233       -2.105       33.622       45.479       20.320     1130.445     2068.316      412.911        0.184        0.181        8.649       19.017        4.834      349.210       29.472      861.020
06/30/2013  22:46:00      -23.189      -18.106       21.660       58.336       24.535       19.742     3403.078      601.972      389.758        0.286        0.220       29.420       23.617        0.644      349.153       29.371      861.050
06/30/2013  22:47:00       50.580        3.600       17.148       32.124       18.350       19.818     1031.959      336.715      392.767        0.231        0.088       50.708       17.438        0.118      348.973       29.060      861.067
06/30/2013  22:48:00       90.479       49.510        6.848       36.704       36.778       25.079     1347.191     1352.637      628.958        0.701        0.166      103.139       20.372        0.039      348.874       28.890      861.083
06/30/2013  22:49:00       81.231       30.424       13.393       39.889       20.493       23.582     1591.165      419.952      556.100        0.513        0.128       86.741        9.998        0.013      348.712       28.608      861.086
06/30/2013  22:50:00      120.339       53.852       39.531       40.943       40.478       32.738     1676.341     1638.453     1071.749        1.166        0.219      131.839       23.268        0.031      348.922       28.971      861.085
06/30/2013  22:51:00      135.080       53.550       13.625       43.664       35.403       28.337     1906.583     1253.394      803.004        1.263        0.198      145.307       12.066        0.007      348.853       28.852      861.065
06/30/2013  22:52:00      119.869       63.823       39.488       43.833       36.891       32.022     1921.358     1360.965     1025.424        1.215        0.215      135.801       21.369        0.025      348.721       28.625      861.040
06/30/2013  22:53:00       28.326       -3.575       35.517       38.863       57.277       40.458     1510.320     3280.710     1636.871        0.425        0.321       28.551       42.683        2.235      348.851       28.848      861.074
06/30/2013  22:54:00        5.644      -19.463       17.428       54.946       34.310       24.095     3019.075     1177.200      580.580        0.274        0.239       20.265       24.059        1.410      348.722       28.625      861.100
06/30/2013  22:55:00       32.564       55.351       61.455       38.684       32.090       18.362     1496.450     1029.792      337.156        0.538        0.143       64.220        9.597        0.022      348.712       28.608      861.080
06/30/2013  22:56:00        5.257       41.460       74.167       26.390       30.962       17.263      696.457      958.662      298.019        0.460        0.098       41.792       15.610        0.140      348.557       28.338      861.090
06/30/2013  22:57:00       70.139       54.601       31.147       55.898       34.788       31.881     3124.626     1210.193     1016.379        0.711        0.268       88.886       25.599        0.083      348.706       28.597      861.096
06/30/2013  22:58:00       74.131       37.931       -2.976       27.303       29.194       20.442      745.471      852.288      417.868        0.448        0.101       83.271       10.851        0.017      348.641       28.486      861.100
06/30/2013  22:59:00       13.213       16.299        0.606       14.426       11.036       14.160      208.104      121.786      200.507        0.049        0.027       20.982        7.718        0.135      348.637       28.477      861.097
06/30/2013  23:00:00       -5.361      -16.755        3.051       13.748       22.215       13.095      189.017      493.492      171.476        0.059        0.043       17.591       15.723        0.799      348.637       28.478      861.103
06/30/2013  23:01:00        4.614       23.238        6.018       15.225       10.961        9.405      231.795      120.139       88.456        0.052        0.022       23.692        9.501        0.161      348.588       28.393      861.097
06/30/2013  23:02:00       26.731       20.090        3.980       11.333        5.006        5.941      128.442       25.065       35.295        0.066        0.009       33.439        4.846        0.021      348.520       28.276      861.090
06/30/2013  23:03:00        8.585       21.856       -0.168       13.160       11.434       10.805      173.177      130.747      116.754        0.049        0.021       23.482        7.857        0.112      348.532       28.297      861.094
06/30/2013  23:04:00       15.882       70.506      -12.490       15.937       17.141       11.545      253.980      293.804      133.279        0.303        0.034       72.273        4.494        0.004      348.669       28.534      861.090
06/30/2013  23:05:00       31.484       52.564       -8.446       23.888       25.498       17.969      570.651      650.160      322.890        0.268        0.077       61.272       16.638        0.074      348.752       28.676      861.076
06/30/2013  23:06:00       96.373       65.550        4.370       33.202       20.649       18.335     1102.380      426.396      336.176        0.773        0.093      116.552       14.276        0.015      348.787       28.737      861.069
06/30/2013  23:07:00       86.511       54.479       16.809       37.800       34.223       22.911     1428.869     1171.184      524.895        0.693        0.156      102.236       17.362        0.029      348.590       28.396      861.059
06/30/2013  23:08:00       10.583       68.724      -13.940       24.253       38.349       17.298      588.201     1470.657      299.217        0.369        0.118       69.534       23.936        0.118      348.337       27.960      861.067
06/30/2013  23:09:00      -22.568       88.019      -11.237       20.768       21.154       13.198      431.302      447.479      174.190        0.472        0.053       90.866        7.950        0.008      348.364       28.006      861.097
06/30/2013  23:10:00      -32.801       52.487       -9.572       12.964       14.348       11.810      168.064      205.859      139.474        0.222        0.026       61.893       10.838        0.031      348.162       27.658      861.098
06/30/2013  23:11:00      -43.074       92.882      -11.413       19.119       36.639       14.616      365.532     1342.384      213.619        0.627        0.096      102.384       11.939        0.014      348.395       28.060      861.090
06/30/2013  23:12:00      -36.631       69.318       -9.052       19.680       19.999       12.649      387.307      399.968      159.994        0.359        0.047       78.402       11.888        0.023      348.489       28.221      861.096
06/30/2013  23:13:00       -6.000      107.651      -11.129       12.641       20.241       12.015      159.789      409.706      144.365        0.623        0.036      107.818       10.124        0.009      348.764       28.698      861.090
06/30/2013  23:14:00      -10.588      112.155       -9.294       19.066       27.279       15.201      363.525      744.121      231.067        0.706        0.067      112.654       11.170        0.010      348.778       28.724      861.081
06/30/2013  23:15:00      -52.518       69.567      -22.282       19.112       35.529       10.153      365.266     1262.275      103.093        0.491        0.087       87.165        9.076        0.011      348.503       28.246      861.078
06/30/2013  23:16:00      -64.365      -33.453       -5.573       28.308       27.180       13.266      801.369      738.738      175.987        0.350        0.086       72.539       13.521        0.035      348.132       27.606      861.092
06/30/2013  23:17:00      -59.676       -7.627       -5.837       17.623       15.643        8.609      310.567      244.704       74.112        0.214        0.031       60.161        8.881        0.022      348.188       27.702      861.089
06/30/2013  23:18:00      -97.520       -0.182      -17.715       40.272       19.468       13.148     1621.837      378.999      172.882        0.600        0.109       97.520       12.497        0.016      348.188       27.702      861.095
06/30/2013  23:19:00      -50.026       12.125       -7.023       18.134       14.911       12.755      328.846      222.348      162.686        0.171        0.036       51.475       10.050        0.038      348.362       28.004      861.110
06/30/2013  23:20:00      -52.269        0.558       -4.507       20.384       16.688        9.805      415.505      278.498       96.132        0.177        0.040       52.271        9.888        0.036      348.426       28.114      861.113
06/30/2013  23:21:00      -79.915      -15.897       -7.579       19.038       14.879       10.782      362.448      221.388      116.258        0.370        0.035       81.481        8.066        0.010      348.196       27.717      861.111
06/30/2013  23:22:00      -80.945       -5.878       -3.163       35.143       18.650       16.660     1235.053      347.819      277.542        0.423        0.093       81.158       18.338        0.051      348.190       27.704      861.116
06/30/2013  23:23:00      -62.876      -35.328       -1.997       24.349       23.861       13.308      592.851      569.346      177.092        0.327        0.067       72.121        7.888        0.012      348.296       27.889      861.110
06/30/2013  23:24:00      -12.154      -31.793        3.455       25.751       19.145       13.806      663.119      366.521      190.601        0.120        0.061       34.037       14.255        0.175      348.197       27.718      861.114
06/30/2013  23:25:00       -4.117      -29.534       18.685       31.578       20.701       14.815      997.159      428.547      219.485        0.144        0.082       29.820       16.827        0.318      348.104       27.557      861.122
06/30/2013  23:26:00      -19.868      -41.380        7.360       27.684       26.717       14.957      766.397      713.772      223.699        0.193        0.085       45.902       14.286        0.097      348.139       27.617      861.124
06/30/2013  23:27:00      -37.711      -70.572       -3.988       26.632       23.466       14.700      709.266      550.654      216.089        0.395        0.074       80.016        9.041        0.013      348.241       27.792      861.133
06/30/2013  23:28:00      -59.295      -58.784        9.067       52.452       35.226       27.675     2751.232     1240.863      765.898        0.590        0.238       83.496       31.229        0.140      348.153       27.642      861.145
06/30/2013  23:29:00      -22.352      -58.468        8.290       31.907       27.447       20.328     1018.078      753.354      413.208        0.309        0.109       62.595       18.492        0.087      348.342       27.966      861.145
06/30/2013  23:30:00      -16.021      -53.711       -2.723       17.980       23.606       11.680      323.278      557.232      136.422        0.208        0.051       56.050       10.253        0.033      348.314       27.919      861.149
06/30/2013  23:31:00      -20.219      -86.214        5.004       16.791       24.706       14.175      281.922      610.387      200.921        0.448        0.055       88.553       11.270        0.016      348.624       28.455      861.169
06/30/2013  23:32:00      -59.339      -33.458        7.540       35.950       41.822       19.912     1292.369     1749.120      396.474        0.407        0.172       68.122       19.123        0.079      348.420       28.102      861.181
06/30/2013  23:33:00      -56.180      -27.457        1.529       32.236       23.826       15.423     1039.151      567.682      237.874        0.288        0.092       62.531       15.072        0.058      347.989       27.357      861.195
06/30/2013  23:34:00      -33.456      -29.184       -0.871       24.143       27.990       14.624      582.895      783.465      213.857        0.178        0.079       44.396        8.942        0.041      347.926       27.251      861.208
06/30/2013  23:35:00      -45.276      -79.582       -2.763       22.992       46.140       22.215      528.653     2128.939      493.513        0.577        0.158       91.560       23.670        0.067      348.189       27.704      861.206
06/30/2013  23:36:00      -15.046      -19.107        2.450       29.998       30.612       15.799      899.863      937.080      249.614        0.134        0.104       24.320       13.833        0.324      348.060       27.480      861.205
06/30/2013  23:37:00       -2.304      -30.433        5.398       25.753       19.634       12.648      663.197      385.480      159.971        0.108        0.060       30.520        5.339        0.031      348.270       27.843      861.205
06/30/2013  23:38:00       -8.733      -19.218        8.476       15.155       16.519       13.399      229.680      272.876      179.530        0.060        0.034       21.110        4.924        0.054      348.238       27.789      861.197
06/30/2013  23:39:00       21.376      -25.860        9.554       14.484       21.642        9.905      209.799      468.386       98.115        0.100        0.039       33.551        7.139        0.045      348.391       28.052      861.189
06/30/2013  23:40:00       18.000      -74.561       -3.447       23.711       20.324       19.375      562.195      413.068      375.397        0.362        0.068       76.703       12.160        0.025      348.289       27.876      861.200
06/30/2013  23:41:00      -34.218      -48.073       -9.876       23.212       12.719        9.130      538.809      161.770       83.352        0.218        0.039       59.007        6.217        0.011      348.115       27.574      861.205
06/30/2013  23:42:00      -55.441      -39.496        7.112       34.982       20.709       16.385     1223.726      428.856      268.476        0.330        0.096       68.071       13.659        0.040      347.851       27.121      861.230
06/30/2013  23:43:00      -23.923      -19.002        4.793       22.143       25.613       16.077      490.327      656.044      258.465        0.118        0.070       30.551        1.882        0.004      347.878       27.166      861.247
06/30/2013  23:44:00      -28.149      -27.702       -0.553       21.206       26.235        8.853      449.696      688.300       78.376        0.139        0.061       39.494       10.138        0.066      347.923       27.243      861.253
06/30/2013  23:45:00      -33.400      -86.674      -10.023       20.621       20.003       14.712      425.210      400.102      216.456        0.488        0.052       92.887       12.814        0.019      348.177       27.681      861.260
06/30/2013  23:46:00      -55.348     -139.424       -6.476       30.274       31.256       18.658      916.514      976.926      348.125        1.239        0.112      150.008       12.905        0.007      348.125       27.594      861.279
06/30/2013  23:47:00      -79.757     -166.856        2.049       35.486       53.160       23.621     1259.222     2825.952      557.954        1.942        0.232      184.938       20.110        0.012      347.957       27.301      861.287
06/30/2013  23:48:00      -72.014     -142.309       -5.376       38.006       64.184       22.974     1444.462     4119.537      527.813        1.578        0.305      159.492       19.980        0.016      347.990       27.360      861.300
06/30/2013  23:49:00      -10.884      -25.835       16.876       23.778       34.205       22.412      565.408     1169.956      502.288        0.165        0.112       28.035        9.847        0.123      347.790       27.014      861.309
06/30/2013  23:50:00      -48.059      -75.471       -1.050       41.913       31.408       21.002     1756.707      986.482      441.071        0.559        0.159       89.473       22.933        0.066      347.924       27.246      861.314
06/30/2013  23:51:00      -38.963      -47.440       -2.214       44.302       24.968       26.039     1962.657      623.404      678.051        0.352        0.163       61.389       22.151        0.130      347.882       27.172      861.313
06/30/2013  23:52:00      -13.767      -82.468        2.944       25.313       36.446       22.880      640.745     1328.299      523.512        0.475        0.125       83.610       10.406        0.015      347.941       27.275      861.314
06/30/2013  23:53:00      -48.574      -26.686        2.313       31.784       17.983       11.346     1010.245      323.373      128.721        0.227        0.073       55.422        8.851        0.026      347.809       27.048      861.317
06/30/2013  23:54:00       -4.887      -26.855        7.071       33.623       17.421       12.753     1130.480      303.504      162.633        0.120        0.080       27.296       12.872        0.222      347.626       26.733      861.332
06/30/2013  23:55:00       -9.096      -78.261       -7.360       31.307       31.725       12.062      980.159     1006.480      145.485        0.420        0.107       78.788        5.942        0.006      347.791       27.016      861.340
06/30/2013  23:56:00      -52.790      -83.005      -16.700       27.413       23.637       14.200      751.472      558.695      201.646        0.573        0.076       98.370        6.412        0.004      347.803       27.037      861.342
06/30/2013  23:57:00      -50.893      -64.873       -2.738       27.239       23.859       14.208      741.951      569.270      201.856        0.416        0.076       82.454       10.387        0.016      347.723       26.901      861.341
06/30/2013  23:58:00      -15.480     -113.828       -7.499       17.327       18.854       15.439      300.235      355.481      238.373        0.707        0.045      114.876       13.558        0.014      347.770       26.979      861.344
06/30/2013  23:59:00      -41.848     -119.421      -10.226       26.561       18.302       14.390      705.511      334.981      207.065        0.868        0.062      126.541        7.420        0.003      347.745       26.938      861.342
